Wetterdaten: Mittwoch, 31.01.2018
Datum Zeit Temp. A. Feuchte A. Luftdruck Regen Wind Richtung Richtung Sonnenschein ET UV Solar Taupunkt Windchill Windböen
31.01.2018 00:00 3,7 °C 85 % 1025,0 hPa 0,0 mm 3,5 km/h (1 Bft) S-SW 199 ° 0 min 0,000 mm 0,0 UV-I 0 W/m² 1,4 °C 3,7 °C 8,0 km/h (2 Bft)
31.01.2018 00:01 3,7 °C 85 % 1025,0 hPa 0,0 mm 4,8 km/h (1 Bft) S-SW 197 ° 0 min 0,000 mm 0,0 UV-I 0 W/m² 1,4 °C 2,7 °C 8,0 km/h (2 Bft)
31.01.2018 00:03 3,7 °C 85 % 1025,0 hPa 0,0 mm 2,5 km/h (1 Bft) S-SW 206 ° 0 min 0,000 mm 0,0 UV-I 0 W/m² 1,4 °C 3,7 °C 4,8 km/h (1 Bft)
31.01.2018 00:05 3,7 °C 85 % 1025,0 hPa 0,0 mm 3,5 km/h (1 Bft) S-SW 211 ° 0 min 0,000 mm 0,0 UV-I 0 W/m² 1,4 °C 3,7 °C 4,8 km/h (1 Bft)
31.01.2018 00:06 3,7 °C 85 % 1024,9 hPa 0,0 mm 3,0 km/h (1 Bft) S-SW 207 ° 0 min 0,000 mm 0,0 UV-I 0 W/m² 1,4 °C 3,7 °C 4,8 km/h (1 Bft)
31.01.2018 00:07 3,6 °C 85 % 1024,9 hPa 0,0 mm 4,3 km/h (1 Bft) S-SW 207 ° 0 min 0,000 mm 0,0 UV-I 0 W/m² 1,3 °C 3,6 °C 4,8 km/h (1 Bft)
31.01.2018 00:09 3,7 °C 85 % 1024,9 hPa 0,0 mm 3,1 km/h (1 Bft) S-SW 198 ° 0 min 0,000 mm 0,0 UV-I 0 W/m² 1,4 °C 3,7 °C 6,4 km/h (2 Bft)
31.01.2018 00:10 3,7 °C 85 % 1024,9 hPa 0,0 mm 3,3 km/h (1 Bft) W-SW 244 ° 0 min 0,000 mm 0,0 UV-I 0 W/m² 1,4 °C 3,7 °C 4,8 km/h (1 Bft)
31.01.2018 00:12 3,7 °C 85 % 1024,9 hPa 0,0 mm 2,3 km/h (1 Bft) S-SW 205 ° 0 min 0,000 mm 0,0 UV-I 0 W/m² 1,4 °C 3,7 °C 4,8 km/h (1 Bft)
31.01.2018 00:13 3,7 °C 85 % 1024,9 hPa 0,0 mm 0,8 km/h (0 Bft) S-SW 205 ° 0 min 0,000 mm 0,0 UV-I 0 W/m² 1,4 °C 3,7 °C 1,6 km/h (1 Bft)
31.01.2018 00:15 3,7 °C 85 % 1024,8 hPa 0,0 mm 0,2 km/h (0 Bft) S-SW 205 ° 0 min 0,000 mm 0,0 UV-I 0 W/m² 1,4 °C 3,7 °C 1,6 km/h (1 Bft)
31.01.2018 00:16 3,7 °C 85 % 1024,8 hPa 0,0 mm 0,0 km/h (0 Bft) S-SW 205 ° 0 min 0,000 mm 0,0 UV-I 0 W/m² 1,4 °C 3,7 °C 0,0 km/h (0 Bft)
31.01.2018 00:18 3,7 °C 85 % 1024,8 hPa 0,0 mm 1,5 km/h (1 Bft) S-SW 205 ° 0 min 0,000 mm 0,0 UV-I 0 W/m² 1,4 °C 3,7 °C 4,8 km/h (1 Bft)
31.01.2018 00:19 3,6 °C 85 % 1024,8 hPa 0,0 mm 3,5 km/h (1 Bft) S-SW 201 ° 0 min 0,000 mm 0,0 UV-I 0 W/m² 1,3 °C 3,6 °C 6,4 km/h (2 Bft)
31.01.2018 00:21 3,6 °C 85 % 1024,7 hPa 0,0 mm 1,8 km/h (1 Bft) S-SW 201 ° 0 min 0,000 mm 0,0 UV-I 0 W/m² 1,3 °C 3,6 °C 4,8 km/h (1 Bft)
31.01.2018 00:22 3,6 °C 85 % 1024,7 hPa 0,0 mm 3,3 km/h (1 Bft) S-SW 201 ° 0 min 0,000 mm 0,0 UV-I 0 W/m² 1,3 °C 3,6 °C 4,8 km/h (1 Bft)
31.01.2018 00:24 3,6 °C 85 % 1024,7 hPa 0,0 mm 3,2 km/h (1 Bft) S-SW 201 ° 0 min 0,000 mm 0,0 UV-I 0 W/m² 1,3 °C 3,6 °C 4,8 km/h (1 Bft)
31.01.2018 00:25 3,6 °C 85 % 1024,7 hPa 0,0 mm 4,5 km/h (1 Bft) S-SW 201 ° 0 min 0,000 mm 0,0 UV-I 0 W/m² 1,3 °C 3,6 °C 8,0 km/h (2 Bft)
31.01.2018 00:27 3,6 °C 85 % 1024,7 hPa 0,0 mm 3,2 km/h (1 Bft) S-SW 201 ° 0 min 0,000 mm 0,0 UV-I 0 W/m² 1,3 °C 3,6 °C 4,8 km/h (1 Bft)
31.01.2018 00:28 3,6 °C 85 % 1024,7 hPa 0,0 mm 2,5 km/h (1 Bft) S-SW 201 ° 0 min 0,000 mm 0,0 UV-I 0 W/m² 1,3 °C 3,6 °C 4,8 km/h (1 Bft)
31.01.2018 00:30 3,6 °C 85 % 1024,7 hPa 0,0 mm 4,4 km/h (1 Bft) S-SW 202 ° 0 min 0,000 mm 0,0 UV-I 0 W/m² 1,3 °C 3,6 °C 8,0 km/h (2 Bft)
31.01.2018 00:31 3,6 °C 85 % 1024,7 hPa 0,0 mm 4,3 km/h (1 Bft) S-SW 194 ° 0 min 0,000 mm 0,0 UV-I 0 W/m² 1,3 °C 3,6 °C 6,4 km/h (2 Bft)
31.01.2018 00:33 3,6 °C 85 % 1024,6 hPa 0,0 mm 4,2 km/h (1 Bft) S-SW 207 ° 0 min 0,000 mm 0,0 UV-I 0 W/m² 1,3 °C 3,6 °C 6,4 km/h (2 Bft)
31.01.2018 00:34 3,7 °C 85 % 1024,6 hPa 0,0 mm 4,3 km/h (1 Bft) S-SW 203 ° 0 min 0,000 mm 0,0 UV-I 0 W/m² 1,4 °C 3,7 °C 6,4 km/h (2 Bft)
31.01.2018 00:36 3,7 °C 84 % 1024,5 hPa 0,0 mm 1,8 km/h (1 Bft) S-SW 203 ° 0 min 0,000 mm 0,0 UV-I 0 W/m² 1,3 °C 3,7 °C 4,8 km/h (1 Bft)
31.01.2018 00:37 3,7 °C 84 % 1024,5 hPa 0,0 mm 0,3 km/h (0 Bft) S-SW 203 ° 0 min 0,000 mm 0,0 UV-I 0 W/m² 1,3 °C 3,7 °C 1,6 km/h (1 Bft)
31.01.2018 00:39 3,7 °C 84 % 1024,5 hPa 0,0 mm 0,6 km/h (0 Bft) S-SW 203 ° 0 min 0,000 mm 0,0 UV-I 0 W/m² 1,3 °C 3,7 °C 3,2 km/h (1 Bft)
31.01.2018 00:40 3,7 °C 85 % 1024,5 hPa 0,0 mm 0,1 km/h (0 Bft) S-SW 203 ° 0 min 0,000 mm 0,0 UV-I 0 W/m² 1,4 °C 3,7 °C 1,6 km/h (1 Bft)
31.01.2018 00:42 3,7 °C 84 % 1024,4 hPa 0,0 mm 3,5 km/h (1 Bft) S-SW 207 ° 0 min 0,000 mm 0,0 UV-I 0 W/m² 1,3 °C 3,7 °C 6,4 km/h (2 Bft)
31.01.2018 00:43 3,7 °C 84 % 1024,4 hPa 0,0 mm 4,9 km/h (1 Bft) S-SW 200 ° 0 min 0,000 mm 0,0 UV-I 0 W/m² 1,3 °C 2,6 °C 6,4 km/h (2 Bft)
31.01.2018 00:45 3,7 °C 84 % 1024,3 hPa 0,0 mm 4,1 km/h (1 Bft) S-SW 208 ° 0 min 0,000 mm 0,0 UV-I 0 W/m² 1,3 °C 3,7 °C 6,4 km/h (2 Bft)
31.01.2018 00:46 3,7 °C 84 % 1024,3 hPa 0,0 mm 6,2 km/h (2 Bft) S-SW 200 ° 0 min 0,000 mm 0,0 UV-I 0 W/m² 1,3 °C 2,2 °C 9,7 km/h (2 Bft)
31.01.2018 00:48 3,7 °C 84 % 1024,3 hPa 0,0 mm 5,6 km/h (1 Bft) S-SW 209 ° 0 min 0,000 mm 0,0 UV-I 0 W/m² 1,3 °C 2,4 °C 8,0 km/h (2 Bft)
31.01.2018 00:49 3,7 °C 84 % 1024,3 hPa 0,0 mm 5,4 km/h (1 Bft) S-SW 198 ° 0 min 0,000 mm 0,0 UV-I 0 W/m² 1,3 °C 2,4 °C 8,0 km/h (2 Bft)
31.01.2018 00:51 3,7 °C 84 % 1024,2 hPa 0,0 mm 5,1 km/h (1 Bft) S-SW 206 ° 0 min 0,000 mm 0,0 UV-I 0 W/m² 1,3 °C 2,6 °C 8,0 km/h (2 Bft)
31.01.2018 00:52 3,7 °C 84 % 1024,2 hPa 0,0 mm 2,6 km/h (1 Bft) W-SW 248 ° 0 min 0,000 mm 0,0 UV-I 0 W/m² 1,3 °C 3,7 °C 4,8 km/h (1 Bft)
31.01.2018 00:54 3,7 °C 83 % 1024,1 hPa 0,0 mm 2,7 km/h (1 Bft) SW 228 ° 0 min 0,000 mm 0,0 UV-I 0 W/m² 1,1 °C 3,7 °C 6,4 km/h (2 Bft)
31.01.2018 00:55 3,8 °C 83 % 1024,1 hPa 0,0 mm 0,5 km/h (0 Bft) SW 235 ° 0 min 0,000 mm 0,0 UV-I 0 W/m² 1,2 °C 3,8 °C 1,6 km/h (1 Bft)
31.01.2018 00:57 3,8 °C 83 % 1024,1 hPa 0,0 mm 3,1 km/h (1 Bft) W-SW 244 ° 0 min 0,000 mm 0,0 UV-I 0 W/m² 1,2 °C 3,8 °C 4,8 km/h (1 Bft)
31.01.2018 00:58 3,8 °C 83 % 1024,1 hPa 0,0 mm 1,6 km/h (1 Bft) W-SW 244 ° 0 min 0,000 mm 0,0 UV-I 0 W/m² 1,2 °C 3,8 °C 3,2 km/h (1 Bft)
31.01.2018 01:00 3,8 °C 83 % 1024,1 hPa 0,0 mm 1,0 km/h (0 Bft) W-SW 244 ° 0 min 0,000 mm 0,0 UV-I 0 W/m² 1,2 °C 3,8 °C 3,2 km/h (1 Bft)
31.01.2018 01:01 3,8 °C 83 % 1024,1 hPa 0,0 mm 4,1 km/h (1 Bft) S-SW 200 ° 0 min 0,000 mm 0,0 UV-I 0 W/m² 1,2 °C 3,8 °C 6,4 km/h (2 Bft)
31.01.2018 01:03 3,8 °C 83 % 1024,1 hPa 0,0 mm 3,0 km/h (1 Bft) S-SW 205 ° 0 min 0,000 mm 0,0 UV-I 0 W/m² 1,2 °C 3,8 °C 6,4 km/h (2 Bft)
31.01.2018 01:04 3,8 °C 83 % 1024,1 hPa 0,0 mm 1,9 km/h (1 Bft) S-SW 205 ° 0 min 0,000 mm 0,0 UV-I 0 W/m² 1,2 °C 3,8 °C 3,2 km/h (1 Bft)
31.01.2018 01:06 3,8 °C 83 % 1023,9 hPa 0,0 mm 2,0 km/h (1 Bft) S-SW 205 ° 0 min 0,000 mm 0,0 UV-I 0 W/m² 1,2 °C 3,8 °C 4,8 km/h (1 Bft)
31.01.2018 01:07 3,9 °C 83 % 1023,9 hPa 0,0 mm 0,3 km/h (0 Bft) S-SW 205 ° 0 min 0,000 mm 0,0 UV-I 0 W/m² 1,3 °C 3,9 °C 1,6 km/h (1 Bft)
31.01.2018 01:09 3,8 °C 83 % 1023,8 hPa 0,0 mm 1,5 km/h (1 Bft) SW 228 ° 0 min 0,000 mm 0,0 UV-I 0 W/m² 1,2 °C 3,8 °C 3,2 km/h (1 Bft)
31.01.2018 01:10 3,8 °C 83 % 1023,8 hPa 0,0 mm 1,4 km/h (1 Bft) SW 228 ° 0 min 0,000 mm 0,0 UV-I 0 W/m² 1,2 °C 3,8 °C 1,6 km/h (1 Bft)
31.01.2018 01:12 3,8 °C 83 % 1023,8 hPa 0,0 mm 1,7 km/h (1 Bft) S-SW 210 ° 0 min 0,000 mm 0,0 UV-I 0 W/m² 1,2 °C 3,8 °C 3,2 km/h (1 Bft)
31.01.2018 01:13 3,8 °C 83 % 1023,8 hPa 0,0 mm 3,3 km/h (1 Bft) S-SW 210 ° 0 min 0,000 mm 0,0 UV-I 0 W/m² 1,2 °C 3,8 °C 6,4 km/h (2 Bft)
31.01.2018 01:15 3,8 °C 82 % 1023,7 hPa 0,0 mm 3,4 km/h (1 Bft) SW 217 ° 0 min 0,000 mm 0,0 UV-I 0 W/m² 1,0 °C 3,8 °C 8,0 km/h (2 Bft)
31.01.2018 01:16 3,8 °C 82 % 1023,7 hPa 0,0 mm 3,5 km/h (1 Bft) SW 232 ° 0 min 0,000 mm 0,0 UV-I 0 W/m² 1,0 °C 3,8 °C 4,8 km/h (1 Bft)
31.01.2018 01:18 3,8 °C 82 % 1023,7 hPa 0,0 mm 4,0 km/h (1 Bft) W-SW 238 ° 0 min 0,000 mm 0,0 UV-I 0 W/m² 1,0 °C 3,8 °C 6,4 km/h (2 Bft)
31.01.2018 01:19 3,8 °C 82 % 1023,7 hPa 0,0 mm 2,6 km/h (1 Bft) W-SW 238 ° 0 min 0,000 mm 0,0 UV-I 0 W/m² 1,0 °C 3,8 °C 3,2 km/h (1 Bft)
31.01.2018 01:21 3,8 °C 82 % 1023,6 hPa 0,0 mm 1,1 km/h (1 Bft) W-SW 238 ° 0 min 0,000 mm 0,0 UV-I 0 W/m² 1,0 °C 3,8 °C 4,8 km/h (1 Bft)
31.01.2018 01:22 3,8 °C 82 % 1023,6 hPa 0,0 mm 1,0 km/h (0 Bft) W-SW 238 ° 0 min 0,000 mm 0,0 UV-I 0 W/m² 1,0 °C 3,8 °C 3,2 km/h (1 Bft)
31.01.2018 01:24 3,8 °C 82 % 1023,6 hPa 0,0 mm 1,2 km/h (1 Bft) SW 227 ° 0 min 0,000 mm 0,0 UV-I 0 W/m² 1,0 °C 3,8 °C 4,8 km/h (1 Bft)
31.01.2018 01:25 3,8 °C 82 % 1023,6 hPa 0,0 mm 1,9 km/h (1 Bft) SW 227 ° 0 min 0,000 mm 0,0 UV-I 0 W/m² 1,0 °C 3,8 °C 3,2 km/h (1 Bft)
31.01.2018 01:27 3,8 °C 82 % 1023,6 hPa 0,0 mm 0,0 km/h (0 Bft) SW 227 ° 0 min 0,000 mm 0,0 UV-I 0 W/m² 1,0 °C 3,8 °C 0,0 km/h (0 Bft)
31.01.2018 01:28 3,8 °C 82 % 1023,6 hPa 0,0 mm 0,0 km/h (0 Bft) SW 227 ° 0 min 0,000 mm 0,0 UV-I 0 W/m² 1,0 °C 3,8 °C 0,0 km/h (0 Bft)
31.01.2018 01:30 3,8 °C 82 % 1023,6 hPa 0,0 mm 0,0 km/h (0 Bft) SW 227 ° 0 min 0,000 mm 0,0 UV-I 0 W/m² 1,0 °C 3,8 °C 0,0 km/h (0 Bft)
31.01.2018 01:31 3,8 °C 82 % 1023,6 hPa 0,0 mm 2,3 km/h (1 Bft) SW 227 ° 0 min 0,000 mm 0,0 UV-I 0 W/m² 1,0 °C 3,8 °C 4,8 km/h (1 Bft)
31.01.2018 01:33 3,7 °C 82 % 1023,5 hPa 0,0 mm 2,0 km/h (1 Bft) SW 219 ° 0 min 0,000 mm 0,0 UV-I 0 W/m² 0,9 °C 3,7 °C 4,8 km/h (1 Bft)
31.01.2018 01:34 3,7 °C 82 % 1023,5 hPa 0,0 mm 2,7 km/h (1 Bft) SW 219 ° 0 min 0,000 mm 0,0 UV-I 0 W/m² 0,9 °C 3,7 °C 4,8 km/h (1 Bft)
31.01.2018 01:36 3,7 °C 82 % 1023,5 hPa 0,0 mm 0,7 km/h (0 Bft) SW 219 ° 0 min 0,000 mm 0,0 UV-I 0 W/m² 0,9 °C 3,7 °C 3,2 km/h (1 Bft)
31.01.2018 01:37 3,7 °C 82 % 1023,5 hPa 0,0 mm 0,6 km/h (0 Bft) SW 219 ° 0 min 0,000 mm 0,0 UV-I 0 W/m² 0,9 °C 3,7 °C 1,6 km/h (1 Bft)
31.01.2018 01:39 3,7 °C 82 % 1023,5 hPa 0,0 mm 1,5 km/h (1 Bft) SW 219 ° 0 min 0,000 mm 0,0 UV-I 0 W/m² 0,9 °C 3,7 °C 4,8 km/h (1 Bft)
31.01.2018 01:40 3,7 °C 82 % 1023,5 hPa 0,0 mm 3,5 km/h (1 Bft) SW 219 ° 0 min 0,000 mm 0,0 UV-I 0 W/m² 0,9 °C 3,7 °C 4,8 km/h (1 Bft)
31.01.2018 01:42 3,6 °C 82 % 1023,4 hPa 0,0 mm 1,4 km/h (1 Bft) SW 219 ° 0 min 0,000 mm 0,0 UV-I 0 W/m² 0,8 °C 3,6 °C 4,8 km/h (1 Bft)
31.01.2018 01:43 3,6 °C 82 % 1023,4 hPa 0,0 mm 4,1 km/h (1 Bft) SW 216 ° 0 min 0,000 mm 0,0 UV-I 0 W/m² 0,8 °C 3,6 °C 6,4 km/h (2 Bft)
31.01.2018 01:45 3,6 °C 82 % 1023,4 hPa 0,0 mm 2,8 km/h (1 Bft) S-SW 213 ° 0 min 0,000 mm 0,0 UV-I 0 W/m² 0,8 °C 3,6 °C 6,4 km/h (2 Bft)
31.01.2018 01:46 3,6 °C 82 % 1023,4 hPa 0,0 mm 3,1 km/h (1 Bft) S 185 ° 0 min 0,000 mm 0,0 UV-I 0 W/m² 0,8 °C 3,6 °C 4,8 km/h (1 Bft)
31.01.2018 01:48 3,6 °C 82 % 1023,6 hPa 0,0 mm 1,6 km/h (1 Bft) S 185 ° 0 min 0,000 mm 0,0 UV-I 0 W/m² 0,8 °C 3,6 °C 4,8 km/h (1 Bft)
31.01.2018 01:49 3,6 °C 83 % 1023,5 hPa 0,0 mm 0,0 km/h (0 Bft) S 185 ° 0 min 0,000 mm 0,0 UV-I 0 W/m² 1,0 °C 3,6 °C 0,0 km/h (0 Bft)
31.01.2018 01:51 3,6 °C 83 % 1023,5 hPa 0,0 mm 2,0 km/h (1 Bft) SW 217 ° 0 min 0,000 mm 0,0 UV-I 0 W/m² 1,0 °C 3,6 °C 4,8 km/h (1 Bft)
31.01.2018 01:52 3,6 °C 83 % 1023,5 hPa 0,0 mm 0,7 km/h (0 Bft) SW 217 ° 0 min 0,000 mm 0,0 UV-I 0 W/m² 1,0 °C 3,6 °C 3,2 km/h (1 Bft)
31.01.2018 01:54 3,6 °C 83 % 1023,5 hPa 0,0 mm 2,7 km/h (1 Bft) SW 217 ° 0 min 0,000 mm 0,0 UV-I 0 W/m² 1,0 °C 3,6 °C 4,8 km/h (1 Bft)
31.01.2018 01:55 3,6 °C 83 % 1023,5 hPa 0,0 mm 1,8 km/h (1 Bft) SW 217 ° 0 min 0,000 mm 0,0 UV-I 0 W/m² 1,0 °C 3,6 °C 3,2 km/h (1 Bft)
31.01.2018 01:57 3,5 °C 83 % 1023,4 hPa 0,0 mm 1,9 km/h (1 Bft) SW 219 ° 0 min 0,000 mm 0,0 UV-I 0 W/m² 0,9 °C 3,5 °C 4,8 km/h (1 Bft)
31.01.2018 01:58 3,5 °C 82 % 1023,4 hPa 0,0 mm 1,5 km/h (1 Bft) SW 219 ° 0 min 0,000 mm 0,0 UV-I 0 W/m² 0,7 °C 3,5 °C 3,2 km/h (1 Bft)
31.01.2018 02:00 3,5 °C 83 % 1023,3 hPa 0,0 mm 3,1 km/h (1 Bft) S 171 ° 0 min 0,000 mm 0,0 UV-I 0 W/m² 0,9 °C 3,5 °C 8,0 km/h (2 Bft)
31.01.2018 02:01 3,5 °C 82 % 1023,3 hPa 0,0 mm 0,9 km/h (0 Bft) S 171 ° 0 min 0,000 mm 0,0 UV-I 0 W/m² 0,7 °C 3,5 °C 3,2 km/h (1 Bft)
31.01.2018 02:03 3,5 °C 83 % 1023,3 hPa 0,0 mm 2,0 km/h (1 Bft) S 171 ° 0 min 0,000 mm 0,0 UV-I 0 W/m² 0,9 °C 3,5 °C 3,2 km/h (1 Bft)
31.01.2018 02:04 3,5 °C 83 % 1023,3 hPa 0,0 mm 3,0 km/h (1 Bft) S-SO 167 ° 0 min 0,000 mm 0,0 UV-I 0 W/m² 0,9 °C 3,5 °C 4,8 km/h (1 Bft)
31.01.2018 02:06 3,4 °C 82 % 1023,2 hPa 0,0 mm 0,7 km/h (0 Bft) S-SO 167 ° 0 min 0,000 mm 0,0 UV-I 0 W/m² 0,6 °C 3,4 °C 4,8 km/h (1 Bft)
31.01.2018 02:07 3,4 °C 82 % 1023,2 hPa 0,0 mm 0,6 km/h (0 Bft) S-SO 167 ° 0 min 0,000 mm 0,0 UV-I 0 W/m² 0,6 °C 3,4 °C 4,8 km/h (1 Bft)
31.01.2018 02:09 3,4 °C 82 % 1023,2 hPa 0,0 mm 2,8 km/h (1 Bft) S-SO 167 ° 0 min 0,000 mm 0,0 UV-I 0 W/m² 0,6 °C 3,4 °C 6,4 km/h (2 Bft)
31.01.2018 02:10 3,4 °C 82 % 1023,2 hPa 0,0 mm 1,6 km/h (1 Bft) S-SO 167 ° 0 min 0,000 mm 0,0 UV-I 0 W/m² 0,6 °C 3,4 °C 4,8 km/h (1 Bft)
31.01.2018 02:12 3,4 °C 82 % 1023,1 hPa 0,0 mm 0,9 km/h (0 Bft) S-SO 167 ° 0 min 0,000 mm 0,0 UV-I 0 W/m² 0,6 °C 3,4 °C 1,6 km/h (1 Bft)
31.01.2018 02:13 3,4 °C 82 % 1023,1 hPa 0,0 mm 0,7 km/h (0 Bft) S-SO 167 ° 0 min 0,000 mm 0,0 UV-I 0 W/m² 0,6 °C 3,4 °C 1,6 km/h (1 Bft)
31.01.2018 02:15 3,3 °C 82 % 1023,0 hPa 0,0 mm 0,0 km/h (0 Bft) S-SO 167 ° 0 min 0,000 mm 0,0 UV-I 0 W/m² 0,5 °C 3,3 °C 0,0 km/h (0 Bft)
31.01.2018 02:16 3,3 °C 82 % 1023,0 hPa 0,0 mm 0,0 km/h (0 Bft) S-SO 167 ° 0 min 0,000 mm 0,0 UV-I 0 W/m² 0,5 °C 3,3 °C 0,0 km/h (0 Bft)
31.01.2018 02:18 3,3 °C 82 % 1023,0 hPa 0,0 mm 0,0 km/h (0 Bft) S-SO 167 ° 0 min 0,000 mm 0,0 UV-I 0 W/m² 0,5 °C 3,3 °C 0,0 km/h (0 Bft)
31.01.2018 02:19 3,3 °C 82 % 1023,0 hPa 0,0 mm 0,0 km/h (0 Bft) S-SO 167 ° 0 min 0,000 mm 0,0 UV-I 0 W/m² 0,5 °C 3,3 °C 0,0 km/h (0 Bft)
31.01.2018 02:21 3,3 °C 82 % 1023,0 hPa 0,0 mm 0,0 km/h (0 Bft) S-SO 167 ° 0 min 0,000 mm 0,0 UV-I 0 W/m² 0,5 °C 3,3 °C 0,0 km/h (0 Bft)
31.01.2018 02:22 3,2 °C 82 % 1023,0 hPa 0,0 mm 1,2 km/h (1 Bft) S-SO 167 ° 0 min 0,000 mm 0,0 UV-I 0 W/m² 0,4 °C 3,2 °C 4,8 km/h (1 Bft)
31.01.2018 02:24 3,2 °C 82 % 1023,0 hPa 0,0 mm 0,0 km/h (0 Bft) S-SO 167 ° 0 min 0,000 mm 0,0 UV-I 0 W/m² 0,4 °C 3,2 °C 0,0 km/h (0 Bft)
31.01.2018 02:25 3,2 °C 82 % 1023,0 hPa 0,0 mm 0,0 km/h (0 Bft) S-SO 167 ° 0 min 0,000 mm 0,0 UV-I 0 W/m² 0,4 °C 3,2 °C 0,0 km/h (0 Bft)
31.01.2018 02:27 3,2 °C 82 % 1023,0 hPa 0,0 mm 0,0 km/h (0 Bft) S-SO 167 ° 0 min 0,000 mm 0,0 UV-I 0 W/m² 0,4 °C 3,2 °C 0,0 km/h (0 Bft)
31.01.2018 02:28 3,1 °C 82 % 1023,0 hPa 0,0 mm 0,0 km/h (0 Bft) S-SO 167 ° 0 min 0,000 mm 0,0 UV-I 0 W/m² 0,3 °C 3,1 °C 0,0 km/h (0 Bft)
31.01.2018 02:30 3,1 °C 82 % 1023,0 hPa 0,0 mm 0,2 km/h (0 Bft) S-SO 167 ° 0 min 0,000 mm 0,0 UV-I 0 W/m² 0,3 °C 3,1 °C 1,6 km/h (1 Bft)
31.01.2018 02:31 3,1 °C 82 % 1023,0 hPa 0,0 mm 0,0 km/h (0 Bft) S-SO 167 ° 0 min 0,000 mm 0,0 UV-I 0 W/m² 0,3 °C 3,1 °C 0,0 km/h (0 Bft)
31.01.2018 02:33 3,0 °C 82 % 1022,9 hPa 0,0 mm 1,2 km/h (1 Bft) S-SO 167 ° 0 min 0,000 mm 0,0 UV-I 0 W/m² 0,2 °C 3,0 °C 4,8 km/h (1 Bft)
31.01.2018 02:34 3,1 °C 82 % 1022,9 hPa 0,0 mm 3,8 km/h (1 Bft) S-SO 167 ° 0 min 0,000 mm 0,0 UV-I 0 W/m² 0,3 °C 3,1 °C 4,8 km/h (1 Bft)
31.01.2018 02:36 2,9 °C 82 % 1022,9 hPa 0,0 mm 0,0 km/h (0 Bft) S-SO 167 ° 0 min 0,000 mm 0,0 UV-I 0 W/m² 0,1 °C 2,9 °C 0,0 km/h (0 Bft)
31.01.2018 02:37 2,9 °C 82 % 1022,9 hPa 0,0 mm 0,0 km/h (0 Bft) S-SO 167 ° 0 min 0,000 mm 0,0 UV-I 0 W/m² 0,1 °C 2,9 °C 0,0 km/h (0 Bft)
31.01.2018 02:39 2,8 °C 82 % 1022,9 hPa 0,0 mm 0,0 km/h (0 Bft) S-SO 167 ° 0 min 0,000 mm 0,0 UV-I 0 W/m² 0,0 °C 2,8 °C 0,0 km/h (0 Bft)
31.01.2018 02:40 2,8 °C 82 % 1022,9 hPa 0,0 mm 0,0 km/h (0 Bft) S-SO 167 ° 0 min 0,000 mm 0,0 UV-I 0 W/m² 0,0 °C 2,8 °C 0,0 km/h (0 Bft)
31.01.2018 02:42 2,8 °C 82 % 1022,8 hPa 0,0 mm 0,5 km/h (0 Bft) SW 225 ° 0 min 0,000 mm 0,0 UV-I 0 W/m² 0,0 °C 2,8 °C 3,2 km/h (1 Bft)
31.01.2018 02:43 2,7 °C 82 % 1022,8 hPa 0,0 mm 0,7 km/h (0 Bft) SW 225 ° 0 min 0,000 mm 0,0 UV-I 0 W/m² -0,1 °C 2,7 °C 1,6 km/h (1 Bft)
31.01.2018 02:45 2,6 °C 82 % 1022,8 hPa 0,0 mm 1,0 km/h (0 Bft) S-SW 212 ° 0 min 0,000 mm 0,0 UV-I 0 W/m² -0,2 °C 2,6 °C 3,2 km/h (1 Bft)
31.01.2018 02:46 2,6 °C 83 % 1022,8 hPa 0,0 mm 0,0 km/h (0 Bft) S-SW 212 ° 0 min 0,000 mm 0,0 UV-I 0 W/m² 0,0 °C 2,6 °C 0,0 km/h (0 Bft)
31.01.2018 02:48 2,6 °C 83 % 1022,8 hPa 0,0 mm 0,0 km/h (0 Bft) S-SW 212 ° 0 min 0,000 mm 0,0 UV-I 0 W/m² 0,0 °C 2,6 °C 0,0 km/h (0 Bft)
31.01.2018 02:49 2,6 °C 83 % 1022,8 hPa 0,0 mm 1,8 km/h (1 Bft) W-SW 240 ° 0 min 0,000 mm 0,0 UV-I 0 W/m² 0,0 °C 2,6 °C 3,2 km/h (1 Bft)
31.01.2018 02:51 2,5 °C 83 % 1022,8 hPa 0,0 mm 0,7 km/h (0 Bft) W-SW 241 ° 0 min 0,000 mm 0,0 UV-I 0 W/m² -0,1 °C 2,5 °C 3,2 km/h (1 Bft)
31.01.2018 02:52 2,4 °C 83 % 1022,7 hPa 0,0 mm 0,0 km/h (0 Bft) W-SW 241 ° 0 min 0,000 mm 0,0 UV-I 0 W/m² -0,2 °C 2,4 °C 0,0 km/h (0 Bft)
31.01.2018 02:54 2,4 °C 83 % 1022,7 hPa 0,0 mm 0,0 km/h (0 Bft) W-SW 241 ° 0 min 0,000 mm 0,0 UV-I 0 W/m² -0,2 °C 2,4 °C 0,0 km/h (0 Bft)
31.01.2018 02:55 2,4 °C 83 % 1022,7 hPa 0,0 mm 0,0 km/h (0 Bft) W-SW 241 ° 0 min 0,000 mm 0,0 UV-I 0 W/m² -0,2 °C 2,4 °C 0,0 km/h (0 Bft)
31.01.2018 02:57 2,3 °C 83 % 1022,7 hPa 0,0 mm 0,0 km/h (0 Bft) W-SW 241 ° 0 min 0,000 mm 0,0 UV-I 0 W/m² -0,3 °C 2,3 °C 0,0 km/h (0 Bft)
31.01.2018 02:58 2,3 °C 83 % 1022,7 hPa 0,0 mm 0,0 km/h (0 Bft) W-SW 241 ° 0 min 0,000 mm 0,0 UV-I 0 W/m² -0,3 °C 2,3 °C 0,0 km/h (0 Bft)
31.01.2018 03:00 2,3 °C 83 % 1022,7 hPa 0,0 mm 0,2 km/h (0 Bft) W-SW 241 ° 0 min 0,000 mm 0,0 UV-I 0 W/m² -0,3 °C 2,3 °C 1,6 km/h (1 Bft)
31.01.2018 03:01 2,3 °C 83 % 1022,7 hPa 0,0 mm 0,0 km/h (0 Bft) W-SW 241 ° 0 min 0,000 mm 0,0 UV-I 0 W/m² -0,3 °C 2,3 °C 0,0 km/h (0 Bft)
31.01.2018 03:03 2,2 °C 83 % 1022,6 hPa 0,0 mm 0,0 km/h (0 Bft) W-SW 241 ° 0 min 0,000 mm 0,0 UV-I 0 W/m² -0,4 °C 2,2 °C 0,0 km/h (0 Bft)
31.01.2018 03:04 2,2 °C 83 % 1022,6 hPa 0,0 mm 0,0 km/h (0 Bft) W-SW 241 ° 0 min 0,000 mm 0,0 UV-I 0 W/m² -0,4 °C 2,2 °C 0,0 km/h (0 Bft)
31.01.2018 03:06 2,2 °C 83 % 1022,6 hPa 0,0 mm 0,0 km/h (0 Bft) W-SW 241 ° 0 min 0,000 mm 0,0 UV-I 0 W/m² -0,4 °C 2,2 °C 0,0 km/h (0 Bft)
31.01.2018 03:07 2,1 °C 83 % 1022,6 hPa 0,0 mm 0,0 km/h (0 Bft) W-SW 241 ° 0 min 0,000 mm 0,0 UV-I 0 W/m² -0,5 °C 2,1 °C 0,0 km/h (0 Bft)
31.01.2018 03:09 2,1 °C 83 % 1022,6 hPa 0,0 mm 0,2 km/h (0 Bft) W-SW 241 ° 0 min 0,000 mm 0,0 UV-I 0 W/m² -0,5 °C 2,1 °C 1,6 km/h (1 Bft)
31.01.2018 03:10 2,1 °C 83 % 1022,6 hPa 0,0 mm 0,0 km/h (0 Bft) W-SW 241 ° 0 min 0,000 mm 0,0 UV-I 0 W/m² -0,5 °C 2,1 °C 0,0 km/h (0 Bft)
31.01.2018 03:12 1,9 °C 83 % 1022,5 hPa 0,0 mm 0,0 km/h (0 Bft) W-SW 241 ° 0 min 0,000 mm 0,0 UV-I 0 W/m² -0,7 °C 1,9 °C 0,0 km/h (0 Bft)
31.01.2018 03:13 1,9 °C 83 % 1022,5 hPa 0,0 mm 0,0 km/h (0 Bft) W-SW 241 ° 0 min 0,000 mm 0,0 UV-I 0 W/m² -0,7 °C 1,9 °C 0,0 km/h (0 Bft)
31.01.2018 03:15 1,9 °C 83 % 1022,5 hPa 0,0 mm 0,0 km/h (0 Bft) W-SW 241 ° 0 min 0,000 mm 0,0 UV-I 0 W/m² -0,7 °C 1,9 °C 0,0 km/h (0 Bft)
31.01.2018 03:16 1,9 °C 83 % 1022,5 hPa 0,0 mm 0,0 km/h (0 Bft) W-SW 241 ° 0 min 0,000 mm 0,0 UV-I 0 W/m² -0,7 °C 1,9 °C 0,0 km/h (0 Bft)
31.01.2018 03:18 1,8 °C 83 % 1022,4 hPa 0,0 mm 0,0 km/h (0 Bft) W-SW 241 ° 0 min 0,000 mm 0,0 UV-I 0 W/m² -0,8 °C 1,8 °C 0,0 km/h (0 Bft)
31.01.2018 03:19 1,8 °C 83 % 1022,4 hPa 0,0 mm 0,0 km/h (0 Bft) W-SW 241 ° 0 min 0,000 mm 0,0 UV-I 0 W/m² -0,8 °C 1,8 °C 0,0 km/h (0 Bft)
31.01.2018 03:21 1,7 °C 83 % 1022,4 hPa 0,0 mm 0,0 km/h (0 Bft) W-SW 241 ° 0 min 0,000 mm 0,0 UV-I 0 W/m² -0,9 °C 1,7 °C 0,0 km/h (0 Bft)
31.01.2018 03:22 1,7 °C 83 % 1022,4 hPa 0,0 mm 0,0 km/h (0 Bft) W-SW 241 ° 0 min 0,000 mm 0,0 UV-I 0 W/m² -0,9 °C 1,7 °C 0,0 km/h (0 Bft)
31.01.2018 03:24 1,7 °C 83 % 1022,4 hPa 0,0 mm 0,0 km/h (0 Bft) W-SW 241 ° 0 min 0,000 mm 0,0 UV-I 0 W/m² -0,9 °C 1,7 °C 0,0 km/h (0 Bft)
31.01.2018 03:25 1,6 °C 83 % 1022,4 hPa 0,0 mm 0,2 km/h (0 Bft) W-SW 241 ° 0 min 0,000 mm 0,0 UV-I 0 W/m² -1,0 °C 1,6 °C 1,6 km/h (1 Bft)
31.01.2018 03:27 1,5 °C 84 % 1022,4 hPa 0,0 mm 0,0 km/h (0 Bft) W-SW 241 ° 0 min 0,000 mm 0,0 UV-I 0 W/m² -0,9 °C 1,5 °C 0,0 km/h (0 Bft)
31.01.2018 03:28 1,4 °C 84 % 1022,4 hPa 0,0 mm 0,0 km/h (0 Bft) W-SW 241 ° 0 min 0,000 mm 0,0 UV-I 0 W/m² -1,0 °C 1,4 °C 0,0 km/h (0 Bft)
31.01.2018 03:30 1,4 °C 84 % 1022,4 hPa 0,0 mm 0,0 km/h (0 Bft) W-SW 241 ° 0 min 0,000 mm 0,0 UV-I 0 W/m² -1,0 °C 1,4 °C 0,0 km/h (0 Bft)
31.01.2018 03:31 1,4 °C 84 % 1022,4 hPa 0,0 mm 0,0 km/h (0 Bft) W-SW 241 ° 0 min 0,000 mm 0,0 UV-I 0 W/m² -1,0 °C 1,4 °C 0,0 km/h (0 Bft)
31.01.2018 03:33 1,3 °C 84 % 1022,4 hPa 0,0 mm 0,0 km/h (0 Bft) W-SW 241 ° 0 min 0,000 mm 0,0 UV-I 0 W/m² -1,1 °C 1,3 °C 0,0 km/h (0 Bft)
31.01.2018 03:34 1,3 °C 84 % 1022,4 hPa 0,0 mm 0,0 km/h (0 Bft) W-SW 241 ° 0 min 0,000 mm 0,0 UV-I 0 W/m² -1,1 °C 1,3 °C 0,0 km/h (0 Bft)
31.01.2018 03:36 1,2 °C 84 % 1022,4 hPa 0,0 mm 0,0 km/h (0 Bft) W-SW 241 ° 0 min 0,000 mm 0,0 UV-I 0 W/m² -1,2 °C 1,2 °C 0,0 km/h (0 Bft)
31.01.2018 03:37 1,2 °C 85 % 1022,4 hPa 0,0 mm 0,0 km/h (0 Bft) W-SW 241 ° 0 min 0,000 mm 0,0 UV-I 0 W/m² -1,0 °C 1,2 °C 0,0 km/h (0 Bft)
31.01.2018 03:39 1,2 °C 85 % 1022,4 hPa 0,0 mm 0,0 km/h (0 Bft) W-SW 241 ° 0 min 0,000 mm 0,0 UV-I 0 W/m² -1,0 °C 1,2 °C 0,0 km/h (0 Bft)
31.01.2018 03:40 1,1 °C 85 % 1022,4 hPa 0,0 mm 0,0 km/h (0 Bft) W-SW 241 ° 0 min 0,000 mm 0,0 UV-I 0 W/m² -1,1 °C 1,1 °C 0,0 km/h (0 Bft)
31.01.2018 03:42 1,1 °C 85 % 1022,4 hPa 0,0 mm 0,0 km/h (0 Bft) W-SW 241 ° 0 min 0,000 mm 0,0 UV-I 0 W/m² -1,1 °C 1,1 °C 0,0 km/h (0 Bft)
31.01.2018 03:43 1,1 °C 85 % 1022,4 hPa 0,0 mm 0,0 km/h (0 Bft) W-SW 241 ° 0 min 0,000 mm 0,0 UV-I 0 W/m² -1,1 °C 1,1 °C 0,0 km/h (0 Bft)
31.01.2018 03:45 0,9 °C 86 % 1022,4 hPa 0,0 mm 0,0 km/h (0 Bft) W-SW 241 ° 0 min 0,000 mm 0,0 UV-I 0 W/m² -1,2 °C 0,9 °C 0,0 km/h (0 Bft)
31.01.2018 03:46 0,9 °C 86 % 1022,4 hPa 0,0 mm 0,0 km/h (0 Bft) W-SW 241 ° 0 min 0,000 mm 0,0 UV-I 0 W/m² -1,2 °C 0,9 °C 0,0 km/h (0 Bft)
31.01.2018 03:48 0,9 °C 86 % 1022,3 hPa 0,0 mm 0,0 km/h (0 Bft) W-SW 241 ° 0 min 0,000 mm 0,0 UV-I 0 W/m² -1,2 °C 0,9 °C 0,0 km/h (0 Bft)
31.01.2018 03:49 0,8 °C 87 % 1022,3 hPa 0,0 mm 0,0 km/h (0 Bft) W-SW 241 ° 0 min 0,000 mm 0,0 UV-I 0 W/m² -1,1 °C 0,8 °C 0,0 km/h (0 Bft)
31.01.2018 03:51 0,8 °C 87 % 1022,4 hPa 0,0 mm 0,0 km/h (0 Bft) W-SW 241 ° 0 min 0,000 mm 0,0 UV-I 0 W/m² -1,1 °C 0,8 °C 0,0 km/h (0 Bft)
31.01.2018 03:52 0,8 °C 87 % 1022,4 hPa 0,0 mm 0,0 km/h (0 Bft) W-SW 241 ° 0 min 0,000 mm 0,0 UV-I 0 W/m² -1,1 °C 0,8 °C 0,0 km/h (0 Bft)
31.01.2018 03:54 0,8 °C 87 % 1022,5 hPa 0,0 mm 0,0 km/h (0 Bft) W-SW 241 ° 0 min 0,000 mm 0,0 UV-I 0 W/m² -1,1 °C 0,8 °C 0,0 km/h (0 Bft)
31.01.2018 03:55 0,8 °C 87 % 1022,5 hPa 0,0 mm 0,0 km/h (0 Bft) W-SW 241 ° 0 min 0,000 mm 0,0 UV-I 0 W/m² -1,1 °C 0,8 °C 0,0 km/h (0 Bft)
31.01.2018 03:57 0,7 °C 87 % 1022,5 hPa 0,0 mm 0,0 km/h (0 Bft) W-SW 241 ° 0 min 0,000 mm 0,0 UV-I 0 W/m² -1,2 °C 0,7 °C 0,0 km/h (0 Bft)
31.01.2018 03:58 0,7 °C 87 % 1022,5 hPa 0,0 mm 0,0 km/h (0 Bft) W-SW 241 ° 0 min 0,000 mm 0,0 UV-I 0 W/m² -1,2 °C 0,7 °C 0,0 km/h (0 Bft)
31.01.2018 04:00 0,7 °C 88 % 1022,5 hPa 0,0 mm 0,0 km/h (0 Bft) W-SW 241 ° 0 min 0,000 mm 0,0 UV-I 0 W/m² -1,1 °C 0,7 °C 0,0 km/h (0 Bft)
31.01.2018 04:01 0,7 °C 88 % 1022,5 hPa 0,0 mm 0,0 km/h (0 Bft) N 0 ° 0 min 0,000 mm 0,0 UV-I 0 W/m² -1,1 °C 0,7 °C 0,0 km/h (0 Bft)
31.01.2018 04:02 0,7 °C 88 % 1022,5 hPa 0,0 mm 0,0 km/h (0 Bft) N 0 ° 0 min 0,000 mm 0,0 UV-I 0 W/m² -1,1 °C 0,7 °C 0,0 km/h (0 Bft)
31.01.2018 04:03 0,7 °C 88 % 1022,5 hPa 0,0 mm 0,0 km/h (0 Bft) N 0 ° 0 min 0,000 mm 0,0 UV-I 0 W/m² -1,1 °C 0,7 °C 0,0 km/h (0 Bft)
31.01.2018 04:04 0,7 °C 88 % 1022,4 hPa 0,0 mm 0,0 km/h (0 Bft) N 0 ° 0 min 0,000 mm 0,0 UV-I 0 W/m² -1,1 °C 0,7 °C 0,0 km/h (0 Bft)
31.01.2018 04:05 0,7 °C 88 % 1022,4 hPa 0,0 mm 0,0 km/h (0 Bft) N 0 ° 0 min 0,000 mm 0,0 UV-I 0 W/m² -1,1 °C 0,7 °C 0,0 km/h (0 Bft)
31.01.2018 04:06 0,7 °C 88 % 1022,4 hPa 0,0 mm 1,6 km/h (1 Bft) W-SW 247 ° 0 min 0,000 mm 0,0 UV-I 0 W/m² -1,1 °C 0,7 °C 3,2 km/h (1 Bft)
31.01.2018 04:07 0,7 °C 88 % 1022,4 hPa 0,0 mm 3,2 km/h (1 Bft) W-SW 247 ° 0 min 0,000 mm 0,0 UV-I 0 W/m² -1,1 °C 0,7 °C 3,2 km/h (1 Bft)
31.01.2018 04:09 0,7 °C 89 % 1022,4 hPa 0,0 mm 0,0 km/h (0 Bft) W-SW 240 ° 0 min 0,000 mm 0,0 UV-I 0 W/m² -0,9 °C 0,7 °C 0,0 km/h (0 Bft)
31.01.2018 04:10 0,7 °C 89 % 1022,4 hPa 0,0 mm 0,0 km/h (0 Bft) W-SW 240 ° 0 min 0,000 mm 0,0 UV-I 0 W/m² -0,9 °C 0,7 °C 0,0 km/h (0 Bft)
31.01.2018 04:11 0,7 °C 89 % 1022,3 hPa 0,0 mm 0,0 km/h (0 Bft) W-SW 240 ° 0 min 0,000 mm 0,0 UV-I 0 W/m² -0,9 °C 0,7 °C 0,0 km/h (0 Bft)
31.01.2018 04:12 0,7 °C 89 % 1022,4 hPa 0,0 mm 0,0 km/h (0 Bft) W-SW 240 ° 0 min 0,000 mm 0,0 UV-I 0 W/m² -0,9 °C 0,7 °C 0,0 km/h (0 Bft)
31.01.2018 04:13 0,7 °C 89 % 1022,4 hPa 0,0 mm 0,0 km/h (0 Bft) W-SW 240 ° 0 min 0,000 mm 0,0 UV-I 0 W/m² -0,9 °C 0,7 °C 0,0 km/h (0 Bft)
31.01.2018 04:14 0,7 °C 89 % 1022,4 hPa 0,0 mm 0,0 km/h (0 Bft) W-SW 240 ° 0 min 0,000 mm 0,0 UV-I 0 W/m² -0,9 °C 0,7 °C 0,0 km/h (0 Bft)
31.01.2018 04:15 0,7 °C 89 % 1022,3 hPa 0,0 mm 0,0 km/h (0 Bft) W-SW 240 ° 0 min 0,000 mm 0,0 UV-I 0 W/m² -0,9 °C 0,7 °C 0,0 km/h (0 Bft)
31.01.2018 04:16 0,7 °C 89 % 1022,4 hPa 0,0 mm 0,0 km/h (0 Bft) W-SW 240 ° 0 min 0,000 mm 0,0 UV-I 0 W/m² -0,9 °C 0,7 °C 0,0 km/h (0 Bft)
31.01.2018 04:17 0,7 °C 89 % 1022,4 hPa 0,0 mm 1,5 km/h (1 Bft) W-SW 240 ° 0 min 0,000 mm 0,0 UV-I 0 W/m² -0,9 °C 0,7 °C 3,2 km/h (1 Bft)
31.01.2018 04:18 0,7 °C 89 % 1022,4 hPa 0,0 mm 3,0 km/h (1 Bft) W-SW 240 ° 0 min 0,000 mm 0,0 UV-I 0 W/m² -0,9 °C 0,7 °C 4,8 km/h (1 Bft)
31.01.2018 04:19 0,7 °C 89 % 1022,4 hPa 0,0 mm 2,5 km/h (1 Bft) W-SW 240 ° 0 min 0,000 mm 0,0 UV-I 0 W/m² -0,9 °C 0,7 °C 3,2 km/h (1 Bft)
31.01.2018 04:20 0,7 °C 90 % 1022,4 hPa 0,0 mm 3,6 km/h (1 Bft) S-SW 206 ° 0 min 0,000 mm 0,0 UV-I 0 W/m² -0,7 °C 0,7 °C 4,8 km/h (1 Bft)
31.01.2018 04:21 0,7 °C 90 % 1022,4 hPa 0,0 mm 3,5 km/h (1 Bft) S-SW 206 ° 0 min 0,000 mm 0,0 UV-I 0 W/m² -0,7 °C 0,7 °C 4,8 km/h (1 Bft)
31.01.2018 04:22 0,7 °C 90 % 1022,3 hPa 0,0 mm 1,5 km/h (1 Bft) S-SW 206 ° 0 min 0,000 mm 0,0 UV-I 0 W/m² -0,7 °C 0,7 °C 3,2 km/h (1 Bft)
31.01.2018 04:23 0,8 °C 90 % 1022,4 hPa 0,0 mm 0,1 km/h (0 Bft) S-SW 206 ° 0 min 0,000 mm 0,0 UV-I 0 W/m² -0,6 °C 0,8 °C 1,6 km/h (1 Bft)
31.01.2018 04:24 0,8 °C 90 % 1022,4 hPa 0,0 mm 0,0 km/h (0 Bft) S-SW 206 ° 0 min 0,000 mm 0,0 UV-I 0 W/m² -0,6 °C 0,8 °C 0,0 km/h (0 Bft)
31.01.2018 04:25 0,8 °C 90 % 1022,3 hPa 0,0 mm 0,0 km/h (0 Bft) S-SW 206 ° 0 min 0,000 mm 0,0 UV-I 0 W/m² -0,6 °C 0,8 °C 0,0 km/h (0 Bft)
31.01.2018 04:26 0,8 °C 90 % 1022,3 hPa 0,0 mm 0,0 km/h (0 Bft) S-SW 206 ° 0 min 0,000 mm 0,0 UV-I 0 W/m² -0,6 °C 0,8 °C 0,0 km/h (0 Bft)
31.01.2018 04:27 0,8 °C 90 % 1022,3 hPa 0,0 mm 0,0 km/h (0 Bft) S-SW 206 ° 0 min 0,000 mm 0,0 UV-I 0 W/m² -0,6 °C 0,8 °C 0,0 km/h (0 Bft)
31.01.2018 04:28 0,8 °C 90 % 1022,3 hPa 0,0 mm 0,0 km/h (0 Bft) S-SW 206 ° 0 min 0,000 mm 0,0 UV-I 0 W/m² -0,6 °C 0,8 °C 0,0 km/h (0 Bft)
31.01.2018 04:29 0,8 °C 90 % 1022,3 hPa 0,0 mm 0,0 km/h (0 Bft) S-SW 206 ° 0 min 0,000 mm 0,0 UV-I 0 W/m² -0,6 °C 0,8 °C 0,0 km/h (0 Bft)
31.01.2018 04:30 0,9 °C 90 % 1022,3 hPa 0,0 mm 0,4 km/h (0 Bft) S-SW 206 ° 0 min 0,000 mm 0,0 UV-I 0 W/m² -0,6 °C 0,9 °C 1,6 km/h (1 Bft)
31.01.2018 04:31 0,9 °C 90 % 1022,3 hPa 0,0 mm 0,3 km/h (0 Bft) S-SW 206 ° 0 min 0,000 mm 0,0 UV-I 0 W/m² -0,6 °C 0,9 °C 1,6 km/h (1 Bft)
31.01.2018 04:32 0,9 °C 90 % 1022,3 hPa 0,0 mm 0,1 km/h (0 Bft) S-SW 206 ° 0 min 0,000 mm 0,0 UV-I 0 W/m² -0,6 °C 0,9 °C 1,6 km/h (1 Bft)
31.01.2018 04:33 0,9 °C 90 % 1022,4 hPa 0,0 mm 0,0 km/h (0 Bft) S-SW 206 ° 0 min 0,000 mm 0,0 UV-I 0 W/m² -0,6 °C 0,9 °C 0,0 km/h (0 Bft)
31.01.2018 04:34 0,9 °C 90 % 1022,3 hPa 0,0 mm 0,1 km/h (0 Bft) S-SW 206 ° 0 min 0,000 mm 0,0 UV-I 0 W/m² -0,6 °C 0,9 °C 1,6 km/h (1 Bft)
31.01.2018 04:35 0,9 °C 90 % 1022,3 hPa 0,0 mm 0,0 km/h (0 Bft) S-SW 206 ° 0 min 0,000 mm 0,0 UV-I 0 W/m² -0,6 °C 0,9 °C 0,0 km/h (0 Bft)
31.01.2018 04:36 1,0 °C 90 % 1022,3 hPa 0,0 mm 0,0 km/h (0 Bft) S-SW 206 ° 0 min 0,000 mm 0,0 UV-I 0 W/m² -0,5 °C 1,0 °C 0,0 km/h (0 Bft)
31.01.2018 04:37 1,0 °C 90 % 1022,3 hPa 0,0 mm 0,0 km/h (0 Bft) S-SW 206 ° 0 min 0,000 mm 0,0 UV-I 0 W/m² -0,5 °C 1,0 °C 0,0 km/h (0 Bft)
31.01.2018 04:38 1,0 °C 90 % 1022,3 hPa 0,0 mm 0,0 km/h (0 Bft) S-SW 206 ° 0 min 0,000 mm 0,0 UV-I 0 W/m² -0,5 °C 1,0 °C 0,0 km/h (0 Bft)
31.01.2018 04:39 1,0 °C 90 % 1022,3 hPa 0,0 mm 0,0 km/h (0 Bft) S-SW 206 ° 0 min 0,000 mm 0,0 UV-I 0 W/m² -0,5 °C 1,0 °C 0,0 km/h (0 Bft)
31.01.2018 04:40 1,1 °C 90 % 1022,2 hPa 0,0 mm 0,1 km/h (0 Bft) S-SW 206 ° 0 min 0,000 mm 0,0 UV-I 0 W/m² -0,4 °C 1,1 °C 1,6 km/h (1 Bft)
31.01.2018 04:41 1,1 °C 90 % 1022,2 hPa 0,0 mm 1,9 km/h (1 Bft) S-SW 206 ° 0 min 0,000 mm 0,0 UV-I 0 W/m² -0,4 °C 1,1 °C 3,2 km/h (1 Bft)
31.01.2018 04:42 1,1 °C 90 % 1022,2 hPa 0,0 mm 0,1 km/h (0 Bft) S-SW 206 ° 0 min 0,000 mm 0,0 UV-I 0 W/m² -0,4 °C 1,1 °C 1,6 km/h (1 Bft)
31.01.2018 04:43 1,1 °C 89 % 1022,2 hPa 0,0 mm 0,0 km/h (0 Bft) S-SW 206 ° 0 min 0,000 mm 0,0 UV-I 0 W/m² -0,5 °C 1,1 °C 0,0 km/h (0 Bft)
31.01.2018 04:44 1,1 °C 89 % 1022,2 hPa 0,0 mm 0,0 km/h (0 Bft) S-SW 206 ° 0 min 0,000 mm 0,0 UV-I 0 W/m² -0,5 °C 1,1 °C 0,0 km/h (0 Bft)
31.01.2018 04:45 1,1 °C 89 % 1022,2 hPa 0,0 mm 0,0 km/h (0 Bft) S-SW 206 ° 0 min 0,000 mm 0,0 UV-I 0 W/m² -0,5 °C 1,1 °C 0,0 km/h (0 Bft)
31.01.2018 04:46 1,1 °C 89 % 1022,1 hPa 0,0 mm 0,0 km/h (0 Bft) S-SW 206 ° 0 min 0,000 mm 0,0 UV-I 0 W/m² -0,5 °C 1,1 °C 0,0 km/h (0 Bft)
31.01.2018 04:47 1,1 °C 89 % 1022,2 hPa 0,0 mm 0,0 km/h (0 Bft) S-SW 206 ° 0 min 0,000 mm 0,0 UV-I 0 W/m² -0,5 °C 1,1 °C 0,0 km/h (0 Bft)
31.01.2018 04:48 1,1 °C 89 % 1022,2 hPa 0,0 mm 1,3 km/h (1 Bft) S-SW 206 ° 0 min 0,000 mm 0,0 UV-I 0 W/m² -0,5 °C 1,1 °C 3,2 km/h (1 Bft)
31.01.2018 04:49 1,1 °C 89 % 1022,2 hPa 0,0 mm 0,0 km/h (0 Bft) S-SW 206 ° 0 min 0,000 mm 0,0 UV-I 0 W/m² -0,5 °C 1,1 °C 0,0 km/h (0 Bft)
31.01.2018 04:50 1,2 °C 89 % 1022,1 hPa 0,0 mm 1,0 km/h (0 Bft) S-SW 206 ° 0 min 0,000 mm 0,0 UV-I 0 W/m² -0,4 °C 1,2 °C 3,2 km/h (1 Bft)
31.01.2018 04:51 1,2 °C 89 % 1022,1 hPa 0,0 mm 0,7 km/h (0 Bft) S-SW 206 ° 0 min 0,000 mm 0,0 UV-I 0 W/m² -0,4 °C 1,2 °C 1,6 km/h (1 Bft)
31.01.2018 04:52 1,2 °C 89 % 1022,2 hPa 0,0 mm 0,0 km/h (0 Bft) S-SW 206 ° 0 min 0,000 mm 0,0 UV-I 0 W/m² -0,4 °C 1,2 °C 0,0 km/h (0 Bft)
31.01.2018 04:53 1,2 °C 89 % 1022,1 hPa 0,0 mm 0,0 km/h (0 Bft) S-SW 206 ° 0 min 0,000 mm 0,0 UV-I 0 W/m² -0,4 °C 1,2 °C 0,0 km/h (0 Bft)
31.01.2018 04:54 1,2 °C 89 % 1022,1 hPa 0,0 mm 0,0 km/h (0 Bft) S-SW 206 ° 0 min 0,000 mm 0,0 UV-I 0 W/m² -0,4 °C 1,2 °C 0,0 km/h (0 Bft)
31.01.2018 04:55 1,2 °C 89 % 1022,1 hPa 0,0 mm 0,0 km/h (0 Bft) S-SW 206 ° 0 min 0,000 mm 0,0 UV-I 0 W/m² -0,4 °C 1,2 °C 0,0 km/h (0 Bft)
31.01.2018 04:56 1,2 °C 89 % 1022,1 hPa 0,0 mm 0,0 km/h (0 Bft) S-SW 206 ° 0 min 0,000 mm 0,0 UV-I 0 W/m² -0,4 °C 1,2 °C 0,0 km/h (0 Bft)
31.01.2018 04:57 1,2 °C 89 % 1022,1 hPa 0,0 mm 0,0 km/h (0 Bft) S-SW 206 ° 0 min 0,000 mm 0,0 UV-I 0 W/m² -0,4 °C 1,2 °C 0,0 km/h (0 Bft)
31.01.2018 04:58 1,2 °C 89 % 1022,0 hPa 0,0 mm 0,0 km/h (0 Bft) S-SW 206 ° 0 min 0,000 mm 0,0 UV-I 0 W/m² -0,4 °C 1,2 °C 0,0 km/h (0 Bft)
31.01.2018 04:59 1,2 °C 89 % 1022,0 hPa 0,0 mm 0,0 km/h (0 Bft) S-SW 206 ° 0 min 0,000 mm 0,0 UV-I 0 W/m² -0,4 °C 1,2 °C 0,0 km/h (0 Bft)
31.01.2018 05:00 1,2 °C 89 % 1022,0 hPa 0,0 mm 0,0 km/h (0 Bft) S-SW 206 ° 0 min 0,000 mm 0,0 UV-I 0 W/m² -0,4 °C 1,2 °C 0,0 km/h (0 Bft)
31.01.2018 05:01 1,2 °C 89 % 1022,0 hPa 0,0 mm 0,0 km/h (0 Bft) S-SW 206 ° 0 min 0,000 mm 0,0 UV-I 0 W/m² -0,4 °C 1,2 °C 0,0 km/h (0 Bft)
31.01.2018 05:02 1,2 °C 89 % 1022,1 hPa 0,0 mm 0,0 km/h (0 Bft) S-SW 206 ° 0 min 0,000 mm 0,0 UV-I 0 W/m² -0,4 °C 1,2 °C 0,0 km/h (0 Bft)
31.01.2018 05:03 1,2 °C 89 % 1022,1 hPa 0,0 mm 0,0 km/h (0 Bft) S-SW 206 ° 0 min 0,000 mm 0,0 UV-I 0 W/m² -0,4 °C 1,2 °C 0,0 km/h (0 Bft)
31.01.2018 05:04 1,2 °C 89 % 1022,0 hPa 0,0 mm 0,0 km/h (0 Bft) S-SW 206 ° 0 min 0,000 mm 0,0 UV-I 0 W/m² -0,4 °C 1,2 °C 0,0 km/h (0 Bft)
31.01.2018 05:05 1,2 °C 89 % 1022,0 hPa 0,0 mm 0,0 km/h (0 Bft) S-SW 206 ° 0 min 0,000 mm 0,0 UV-I 0 W/m² -0,4 °C 1,2 °C 0,0 km/h (0 Bft)
31.01.2018 05:06 1,2 °C 89 % 1022,0 hPa 0,0 mm 0,0 km/h (0 Bft) S-SW 206 ° 0 min 0,000 mm 0,0 UV-I 0 W/m² -0,4 °C 1,2 °C 0,0 km/h (0 Bft)
31.01.2018 05:07 1,2 °C 89 % 1022,0 hPa 0,0 mm 0,0 km/h (0 Bft) S-SW 206 ° 0 min 0,000 mm 0,0 UV-I 0 W/m² -0,4 °C 1,2 °C 0,0 km/h (0 Bft)
31.01.2018 05:08 1,2 °C 89 % 1021,9 hPa 0,0 mm 0,0 km/h (0 Bft) S-SW 206 ° 0 min 0,000 mm 0,0 UV-I 0 W/m² -0,4 °C 1,2 °C 0,0 km/h (0 Bft)
31.01.2018 05:09 1,2 °C 89 % 1021,9 hPa 0,0 mm 0,0 km/h (0 Bft) S-SW 206 ° 0 min 0,000 mm 0,0 UV-I 0 W/m² -0,4 °C 1,2 °C 0,0 km/h (0 Bft)
31.01.2018 05:10 1,2 °C 89 % 1021,9 hPa 0,0 mm 0,0 km/h (0 Bft) S-SW 206 ° 0 min 0,000 mm 0,0 UV-I 0 W/m² -0,4 °C 1,2 °C 0,0 km/h (0 Bft)
31.01.2018 05:11 1,2 °C 89 % 1021,9 hPa 0,0 mm 0,0 km/h (0 Bft) S-SW 206 ° 0 min 0,000 mm 0,0 UV-I 0 W/m² -0,4 °C 1,2 °C 0,0 km/h (0 Bft)
31.01.2018 05:12 1,2 °C 89 % 1021,9 hPa 0,0 mm 0,0 km/h (0 Bft) S-SW 206 ° 0 min 0,000 mm 0,0 UV-I 0 W/m² -0,4 °C 1,2 °C 0,0 km/h (0 Bft)
31.01.2018 05:13 1,2 °C 88 % 1021,9 hPa 0,0 mm 0,0 km/h (0 Bft) S-SW 206 ° 0 min 0,000 mm 0,0 UV-I 0 W/m² -0,6 °C 1,2 °C 0,0 km/h (0 Bft)
31.01.2018 05:14 1,2 °C 88 % 1021,9 hPa 0,0 mm 0,0 km/h (0 Bft) S-SW 206 ° 0 min 0,000 mm 0,0 UV-I 0 W/m² -0,6 °C 1,2 °C 0,0 km/h (0 Bft)
31.01.2018 05:15 1,2 °C 88 % 1021,9 hPa 0,0 mm 0,0 km/h (0 Bft) S-SW 206 ° 0 min 0,000 mm 0,0 UV-I 0 W/m² -0,6 °C 1,2 °C 0,0 km/h (0 Bft)
31.01.2018 05:16 1,2 °C 88 % 1021,9 hPa 0,0 mm 0,0 km/h (0 Bft) S-SW 206 ° 0 min 0,000 mm 0,0 UV-I 0 W/m² -0,6 °C 1,2 °C 0,0 km/h (0 Bft)
31.01.2018 05:17 1,2 °C 88 % 1021,9 hPa 0,0 mm 0,0 km/h (0 Bft) S-SW 206 ° 0 min 0,000 mm 0,0 UV-I 0 W/m² -0,6 °C 1,2 °C 0,0 km/h (0 Bft)
31.01.2018 05:18 1,2 °C 88 % 1021,9 hPa 0,0 mm 0,0 km/h (0 Bft) S-SW 206 ° 0 min 0,000 mm 0,0 UV-I 0 W/m² -0,6 °C 1,2 °C 0,0 km/h (0 Bft)
31.01.2018 05:19 1,2 °C 88 % 1021,9 hPa 0,0 mm 0,0 km/h (0 Bft) S-SW 206 ° 0 min 0,000 mm 0,0 UV-I 0 W/m² -0,6 °C 1,2 °C 0,0 km/h (0 Bft)
31.01.2018 05:20 1,2 °C 88 % 1021,9 hPa 0,0 mm 0,0 km/h (0 Bft) S-SW 206 ° 0 min 0,000 mm 0,0 UV-I 0 W/m² -0,6 °C 1,2 °C 0,0 km/h (0 Bft)
31.01.2018 05:21 1,2 °C 88 % 1021,9 hPa 0,0 mm 0,0 km/h (0 Bft) S-SW 206 ° 0 min 0,000 mm 0,0 UV-I 0 W/m² -0,6 °C 1,2 °C 0,0 km/h (0 Bft)
31.01.2018 05:22 1,2 °C 88 % 1021,8 hPa 0,0 mm 0,0 km/h (0 Bft) S-SW 206 ° 0 min 0,000 mm 0,0 UV-I 0 W/m² -0,6 °C 1,2 °C 0,0 km/h (0 Bft)
31.01.2018 05:23 1,2 °C 88 % 1021,8 hPa 0,0 mm 0,0 km/h (0 Bft) S-SW 206 ° 0 min 0,000 mm 0,0 UV-I 0 W/m² -0,6 °C 1,2 °C 0,0 km/h (0 Bft)
31.01.2018 05:24 1,2 °C 88 % 1021,8 hPa 0,0 mm 0,0 km/h (0 Bft) S-SW 206 ° 0 min 0,000 mm 0,0 UV-I 0 W/m² -0,6 °C 1,2 °C 0,0 km/h (0 Bft)
31.01.2018 05:25 1,2 °C 88 % 1021,8 hPa 0,0 mm 0,0 km/h (0 Bft) S-SW 206 ° 0 min 0,000 mm 0,0 UV-I 0 W/m² -0,6 °C 1,2 °C 0,0 km/h (0 Bft)
31.01.2018 05:26 1,2 °C 88 % 1021,8 hPa 0,0 mm 0,0 km/h (0 Bft) S-SW 206 ° 0 min 0,000 mm 0,0 UV-I 0 W/m² -0,6 °C 1,2 °C 0,0 km/h (0 Bft)
31.01.2018 05:27 1,2 °C 88 % 1021,7 hPa 0,0 mm 2,3 km/h (1 Bft) S-SW 206 ° 0 min 0,000 mm 0,0 UV-I 0 W/m² -0,6 °C 1,2 °C 4,8 km/h (1 Bft)
31.01.2018 05:28 1,2 °C 88 % 1021,7 hPa 0,0 mm 2,4 km/h (1 Bft) S-SW 206 ° 0 min 0,000 mm 0,0 UV-I 0 W/m² -0,6 °C 1,2 °C 3,2 km/h (1 Bft)
31.01.2018 05:29 1,2 °C 88 % 1021,8 hPa 0,0 mm 1,3 km/h (1 Bft) W-SW 240 ° 0 min 0,000 mm 0,0 UV-I 0 W/m² -0,6 °C 1,2 °C 3,2 km/h (1 Bft)
31.01.2018 05:30 1,1 °C 88 % 1021,8 hPa 0,0 mm 3,2 km/h (1 Bft) W-SW 244 ° 0 min 0,000 mm 0,0 UV-I 0 W/m² -0,7 °C 1,1 °C 4,8 km/h (1 Bft)
31.01.2018 05:31 1,2 °C 88 % 1021,8 hPa 0,0 mm 0,9 km/h (0 Bft) W-SW 244 ° 0 min 0,000 mm 0,0 UV-I 0 W/m² -0,6 °C 1,2 °C 3,2 km/h (1 Bft)
31.01.2018 05:32 1,1 °C 88 % 1021,7 hPa 0,0 mm 0,2 km/h (0 Bft) W-SW 243 ° 0 min 0,000 mm 0,0 UV-I 0 W/m² -0,7 °C 1,1 °C 1,6 km/h (1 Bft)
31.01.2018 05:33 1,1 °C 88 % 1021,7 hPa 0,0 mm 2,4 km/h (1 Bft) W-SW 243 ° 0 min 0,000 mm 0,0 UV-I 0 W/m² -0,7 °C 1,1 °C 3,2 km/h (1 Bft)
31.01.2018 05:34 1,1 °C 88 % 1021,8 hPa 0,0 mm 2,5 km/h (1 Bft) W-SW 243 ° 0 min 0,000 mm 0,0 UV-I 0 W/m² -0,7 °C 1,1 °C 3,2 km/h (1 Bft)
31.01.2018 05:35 1,1 °C 88 % 1021,7 hPa 0,0 mm 2,0 km/h (1 Bft) SW 217 ° 0 min 0,000 mm 0,0 UV-I 0 W/m² -0,7 °C 1,1 °C 3,2 km/h (1 Bft)
31.01.2018 05:36 1,1 °C 88 % 1021,7 hPa 0,0 mm 1,5 km/h (1 Bft) SW 217 ° 0 min 0,000 mm 0,0 UV-I 0 W/m² -0,7 °C 1,1 °C 3,2 km/h (1 Bft)
31.01.2018 05:37 1,1 °C 88 % 1021,7 hPa 0,0 mm 1,9 km/h (1 Bft) SW 217 ° 0 min 0,000 mm 0,0 UV-I 0 W/m² -0,7 °C 1,1 °C 3,2 km/h (1 Bft)
31.01.2018 05:38 1,1 °C 88 % 1021,6 hPa 0,0 mm 0,3 km/h (0 Bft) SW 217 ° 0 min 0,000 mm 0,0 UV-I 0 W/m² -0,7 °C 1,1 °C 1,6 km/h (1 Bft)
31.01.2018 05:39 1,1 °C 88 % 1021,7 hPa 0,0 mm 0,0 km/h (0 Bft) SW 217 ° 0 min 0,000 mm 0,0 UV-I 0 W/m² -0,7 °C 1,1 °C 0,0 km/h (0 Bft)
31.01.2018 05:40 1,1 °C 88 % 1021,7 hPa 0,0 mm 0,0 km/h (0 Bft) SW 217 ° 0 min 0,000 mm 0,0 UV-I 0 W/m² -0,7 °C 1,1 °C 0,0 km/h (0 Bft)
31.01.2018 05:41 1,1 °C 88 % 1021,7 hPa 0,0 mm 0,0 km/h (0 Bft) SW 217 ° 0 min 0,000 mm 0,0 UV-I 0 W/m² -0,7 °C 1,1 °C 0,0 km/h (0 Bft)
31.01.2018 05:42 1,1 °C 88 % 1021,7 hPa 0,0 mm 0,0 km/h (0 Bft) SW 217 ° 0 min 0,000 mm 0,0 UV-I 0 W/m² -0,7 °C 1,1 °C 0,0 km/h (0 Bft)
31.01.2018 05:43 1,1 °C 88 % 1021,6 hPa 0,0 mm 0,0 km/h (0 Bft) SW 217 ° 0 min 0,000 mm 0,0 UV-I 0 W/m² -0,7 °C 1,1 °C 0,0 km/h (0 Bft)
31.01.2018 05:44 1,1 °C 88 % 1021,6 hPa 0,0 mm 0,0 km/h (0 Bft) SW 217 ° 0 min 0,000 mm 0,0 UV-I 0 W/m² -0,7 °C 1,1 °C 0,0 km/h (0 Bft)
31.01.2018 05:45 1,1 °C 88 % 1021,6 hPa 0,0 mm 0,0 km/h (0 Bft) SW 217 ° 0 min 0,000 mm 0,0 UV-I 0 W/m² -0,7 °C 1,1 °C 0,0 km/h (0 Bft)
31.01.2018 05:46 1,1 °C 88 % 1021,6 hPa 0,0 mm 0,0 km/h (0 Bft) SW 217 ° 0 min 0,000 mm 0,0 UV-I 0 W/m² -0,7 °C 1,1 °C 0,0 km/h (0 Bft)
31.01.2018 05:47 1,1 °C 88 % 1021,6 hPa 0,0 mm 0,0 km/h (0 Bft) SW 217 ° 0 min 0,000 mm 0,0 UV-I 0 W/m² -0,7 °C 1,1 °C 0,0 km/h (0 Bft)
31.01.2018 05:48 1,1 °C 89 % 1021,6 hPa 0,0 mm 0,0 km/h (0 Bft) SW 217 ° 0 min 0,000 mm 0,0 UV-I 0 W/m² -0,5 °C 1,1 °C 0,0 km/h (0 Bft)
31.01.2018 05:49 1,1 °C 89 % 1021,6 hPa 0,0 mm 0,0 km/h (0 Bft) SW 217 ° 0 min 0,000 mm 0,0 UV-I 0 W/m² -0,5 °C 1,1 °C 0,0 km/h (0 Bft)
31.01.2018 05:50 1,1 °C 88 % 1021,6 hPa 0,0 mm 0,0 km/h (0 Bft) SW 217 ° 0 min 0,000 mm 0,0 UV-I 0 W/m² -0,7 °C 1,1 °C 0,0 km/h (0 Bft)
31.01.2018 05:51 1,1 °C 89 % 1021,6 hPa 0,0 mm 0,0 km/h (0 Bft) SW 217 ° 0 min 0,000 mm 0,0 UV-I 0 W/m² -0,5 °C 1,1 °C 0,0 km/h (0 Bft)
31.01.2018 05:52 1,1 °C 88 % 1021,6 hPa 0,0 mm 0,0 km/h (0 Bft) SW 217 ° 0 min 0,000 mm 0,0 UV-I 0 W/m² -0,7 °C 1,1 °C 0,0 km/h (0 Bft)
31.01.2018 05:53 1,1 °C 88 % 1021,6 hPa 0,0 mm 0,0 km/h (0 Bft) SW 217 ° 0 min 0,000 mm 0,0 UV-I 0 W/m² -0,7 °C 1,1 °C 0,0 km/h (0 Bft)
31.01.2018 05:54 1,1 °C 89 % 1021,6 hPa 0,0 mm 0,0 km/h (0 Bft) SW 217 ° 0 min 0,000 mm 0,0 UV-I 0 W/m² -0,5 °C 1,1 °C 0,0 km/h (0 Bft)
31.01.2018 05:55 1,1 °C 89 % 1021,6 hPa 0,0 mm 0,0 km/h (0 Bft) SW 217 ° 0 min 0,000 mm 0,0 UV-I 0 W/m² -0,5 °C 1,1 °C 0,0 km/h (0 Bft)
31.01.2018 05:56 1,0 °C 88 % 1021,6 hPa 0,0 mm 0,0 km/h (0 Bft) SW 217 ° 0 min 0,000 mm 0,0 UV-I 0 W/m² -0,8 °C 1,0 °C 0,0 km/h (0 Bft)
31.01.2018 05:57 1,0 °C 88 % 1021,5 hPa 0,0 mm 0,0 km/h (0 Bft) SW 217 ° 0 min 0,000 mm 0,0 UV-I 0 W/m² -0,8 °C 1,0 °C 0,0 km/h (0 Bft)
31.01.2018 05:58 1,0 °C 89 % 1021,5 hPa 0,0 mm 0,0 km/h (0 Bft) SW 217 ° 0 min 0,000 mm 0,0 UV-I 0 W/m² -0,6 °C 1,0 °C 0,0 km/h (0 Bft)
31.01.2018 05:59 1,0 °C 89 % 1021,5 hPa 0,0 mm 0,0 km/h (0 Bft) SW 217 ° 0 min 0,000 mm 0,0 UV-I 0 W/m² -0,6 °C 1,0 °C 0,0 km/h (0 Bft)
31.01.2018 06:00 1,0 °C 89 % 1021,5 hPa 0,0 mm 0,0 km/h (0 Bft) SW 217 ° 0 min 0,000 mm 0,0 UV-I 0 W/m² -0,6 °C 1,0 °C 0,0 km/h (0 Bft)
31.01.2018 06:01 1,0 °C 89 % 1021,5 hPa 0,0 mm 0,0 km/h (0 Bft) SW 217 ° 0 min 0,000 mm 0,0 UV-I 0 W/m² -0,6 °C 1,0 °C 0,0 km/h (0 Bft)
31.01.2018 06:02 1,0 °C 89 % 1021,5 hPa 0,0 mm 0,0 km/h (0 Bft) SW 217 ° 0 min 0,000 mm 0,0 UV-I 0 W/m² -0,6 °C 1,0 °C 0,0 km/h (0 Bft)
31.01.2018 06:03 1,0 °C 89 % 1021,5 hPa 0,0 mm 0,0 km/h (0 Bft) SW 217 ° 0 min 0,000 mm 0,0 UV-I 0 W/m² -0,6 °C 1,0 °C 0,0 km/h (0 Bft)
31.01.2018 06:04 1,0 °C 88 % 1021,4 hPa 0,0 mm 0,0 km/h (0 Bft) SW 217 ° 0 min 0,000 mm 0,0 UV-I 0 W/m² -0,8 °C 1,0 °C 0,0 km/h (0 Bft)
31.01.2018 06:05 1,0 °C 89 % 1021,4 hPa 0,0 mm 0,0 km/h (0 Bft) SW 217 ° 0 min 0,000 mm 0,0 UV-I 0 W/m² -0,6 °C 1,0 °C 0,0 km/h (0 Bft)
31.01.2018 06:06 1,0 °C 89 % 1021,4 hPa 0,0 mm 0,0 km/h (0 Bft) SW 217 ° 0 min 0,000 mm 0,0 UV-I 0 W/m² -0,6 °C 1,0 °C 0,0 km/h (0 Bft)
31.01.2018 06:07 1,0 °C 89 % 1021,4 hPa 0,0 mm 0,0 km/h (0 Bft) SW 217 ° 0 min 0,000 mm 0,0 UV-I 0 W/m² -0,6 °C 1,0 °C 0,0 km/h (0 Bft)
31.01.2018 06:08 1,0 °C 89 % 1021,4 hPa 0,0 mm 0,0 km/h (0 Bft) SW 217 ° 0 min 0,000 mm 0,0 UV-I 0 W/m² -0,6 °C 1,0 °C 0,0 km/h (0 Bft)
31.01.2018 06:09 1,0 °C 89 % 1021,4 hPa 0,0 mm 0,0 km/h (0 Bft) SW 217 ° 0 min 0,000 mm 0,0 UV-I 0 W/m² -0,6 °C 1,0 °C 0,0 km/h (0 Bft)
31.01.2018 06:10 1,0 °C 88 % 1021,4 hPa 0,0 mm 0,0 km/h (0 Bft) SW 217 ° 0 min 0,000 mm 0,0 UV-I 0 W/m² -0,8 °C 1,0 °C 0,0 km/h (0 Bft)
31.01.2018 06:11 0,9 °C 89 % 1021,4 hPa 0,0 mm 0,0 km/h (0 Bft) SW 217 ° 0 min 0,000 mm 0,0 UV-I 0 W/m² -0,7 °C 0,9 °C 0,0 km/h (0 Bft)
31.01.2018 06:12 1,0 °C 88 % 1021,3 hPa 0,0 mm 0,0 km/h (0 Bft) SW 217 ° 0 min 0,000 mm 0,0 UV-I 0 W/m² -0,8 °C 1,0 °C 0,0 km/h (0 Bft)
31.01.2018 06:13 1,0 °C 88 % 1021,4 hPa 0,0 mm 0,0 km/h (0 Bft) SW 217 ° 0 min 0,000 mm 0,0 UV-I 0 W/m² -0,8 °C 1,0 °C 0,0 km/h (0 Bft)
31.01.2018 06:14 1,0 °C 89 % 1021,4 hPa 0,0 mm 0,0 km/h (0 Bft) SW 217 ° 0 min 0,000 mm 0,0 UV-I 0 W/m² -0,6 °C 1,0 °C 0,0 km/h (0 Bft)
31.01.2018 06:15 0,9 °C 89 % 1021,4 hPa 0,0 mm 0,0 km/h (0 Bft) SW 217 ° 0 min 0,000 mm 0,0 UV-I 0 W/m² -0,7 °C 0,9 °C 0,0 km/h (0 Bft)
31.01.2018 06:16 0,9 °C 89 % 1021,4 hPa 0,0 mm 0,0 km/h (0 Bft) SW 217 ° 0 min 0,000 mm 0,0 UV-I 0 W/m² -0,7 °C 0,9 °C 0,0 km/h (0 Bft)
31.01.2018 06:17 0,9 °C 89 % 1021,4 hPa 0,0 mm 0,0 km/h (0 Bft) SW 217 ° 0 min 0,000 mm 0,0 UV-I 0 W/m² -0,7 °C 0,9 °C 0,0 km/h (0 Bft)
31.01.2018 06:18 0,9 °C 89 % 1021,4 hPa 0,0 mm 0,0 km/h (0 Bft) SW 217 ° 0 min 0,000 mm 0,0 UV-I 0 W/m² -0,7 °C 0,9 °C 0,0 km/h (0 Bft)
31.01.2018 06:19 0,9 °C 89 % 1021,4 hPa 0,0 mm 0,0 km/h (0 Bft) SW 217 ° 0 min 0,000 mm 0,0 UV-I 0 W/m² -0,7 °C 0,9 °C 0,0 km/h (0 Bft)
31.01.2018 06:20 0,9 °C 88 % 1021,3 hPa 0,0 mm 0,0 km/h (0 Bft) SW 217 ° 0 min 0,000 mm 0,0 UV-I 0 W/m² -0,9 °C 0,9 °C 0,0 km/h (0 Bft)
31.01.2018 06:21 0,9 °C 89 % 1021,4 hPa 0,0 mm 0,0 km/h (0 Bft) SW 217 ° 0 min 0,000 mm 0,0 UV-I 0 W/m² -0,7 °C 0,9 °C 0,0 km/h (0 Bft)
31.01.2018 06:22 0,9 °C 89 % 1021,4 hPa 0,0 mm 0,0 km/h (0 Bft) SW 217 ° 0 min 0,000 mm 0,0 UV-I 0 W/m² -0,7 °C 0,9 °C 0,0 km/h (0 Bft)
31.01.2018 06:23 0,9 °C 89 % 1021,3 hPa 0,0 mm 0,0 km/h (0 Bft) SW 217 ° 0 min 0,000 mm 0,0 UV-I 0 W/m² -0,7 °C 0,9 °C 0,0 km/h (0 Bft)
31.01.2018 06:24 0,9 °C 89 % 1021,3 hPa 0,0 mm 0,0 km/h (0 Bft) SW 217 ° 0 min 0,000 mm 0,0 UV-I 0 W/m² -0,7 °C 0,9 °C 0,0 km/h (0 Bft)
31.01.2018 06:25 0,9 °C 89 % 1021,3 hPa 0,0 mm 0,0 km/h (0 Bft) SW 217 ° 0 min 0,000 mm 0,0 UV-I 0 W/m² -0,7 °C 0,9 °C 0,0 km/h (0 Bft)
31.01.2018 06:26 0,9 °C 89 % 1021,3 hPa 0,0 mm 0,0 km/h (0 Bft) SW 217 ° 0 min 0,000 mm 0,0 UV-I 0 W/m² -0,7 °C 0,9 °C 0,0 km/h (0 Bft)
31.01.2018 06:27 0,9 °C 89 % 1021,3 hPa 0,0 mm 0,0 km/h (0 Bft) SW 217 ° 0 min 0,000 mm 0,0 UV-I 0 W/m² -0,7 °C 0,9 °C 0,0 km/h (0 Bft)
31.01.2018 06:28 0,9 °C 89 % 1021,2 hPa 0,0 mm 0,0 km/h (0 Bft) SW 217 ° 0 min 0,000 mm 0,0 UV-I 0 W/m² -0,7 °C 0,9 °C 0,0 km/h (0 Bft)
31.01.2018 06:29 0,9 °C 89 % 1021,2 hPa 0,0 mm 0,0 km/h (0 Bft) SW 217 ° 0 min 0,000 mm 0,0 UV-I 0 W/m² -0,7 °C 0,9 °C 0,0 km/h (0 Bft)
31.01.2018 06:30 0,9 °C 89 % 1021,3 hPa 0,0 mm 0,0 km/h (0 Bft) SW 217 ° 0 min 0,000 mm 0,0 UV-I 0 W/m² -0,7 °C 0,9 °C 0,0 km/h (0 Bft)
31.01.2018 06:31 0,9 °C 89 % 1021,3 hPa 0,0 mm 0,0 km/h (0 Bft) SW 217 ° 0 min 0,000 mm 0,0 UV-I 0 W/m² -0,7 °C 0,9 °C 0,0 km/h (0 Bft)
31.01.2018 06:32 0,9 °C 89 % 1021,3 hPa 0,0 mm 0,0 km/h (0 Bft) SW 217 ° 0 min 0,000 mm 0,0 UV-I 0 W/m² -0,7 °C 0,9 °C 0,0 km/h (0 Bft)
31.01.2018 06:33 0,9 °C 89 % 1021,3 hPa 0,0 mm 0,0 km/h (0 Bft) SW 217 ° 0 min 0,000 mm 0,0 UV-I 0 W/m² -0,7 °C 0,9 °C 0,0 km/h (0 Bft)
31.01.2018 06:34 0,9 °C 89 % 1021,2 hPa 0,0 mm 0,0 km/h (0 Bft) SW 217 ° 0 min 0,000 mm 0,0 UV-I 0 W/m² -0,7 °C 0,9 °C 0,0 km/h (0 Bft)
31.01.2018 06:35 0,9 °C 89 % 1021,2 hPa 0,0 mm 0,0 km/h (0 Bft) SW 217 ° 0 min 0,000 mm 0,0 UV-I 0 W/m² -0,7 °C 0,9 °C 0,0 km/h (0 Bft)
31.01.2018 06:36 0,9 °C 89 % 1021,2 hPa 0,0 mm 0,0 km/h (0 Bft) SW 217 ° 0 min 0,000 mm 0,0 UV-I 0 W/m² -0,7 °C 0,9 °C 0,0 km/h (0 Bft)
31.01.2018 06:37 0,9 °C 89 % 1021,2 hPa 0,0 mm 0,0 km/h (0 Bft) SW 217 ° 0 min 0,000 mm 0,0 UV-I 0 W/m² -0,7 °C 0,9 °C 0,0 km/h (0 Bft)
31.01.2018 06:38 0,9 °C 89 % 1021,2 hPa 0,0 mm 0,0 km/h (0 Bft) SW 217 ° 0 min 0,000 mm 0,0 UV-I 0 W/m² -0,7 °C 0,9 °C 0,0 km/h (0 Bft)
31.01.2018 06:39 0,9 °C 89 % 1021,2 hPa 0,0 mm 0,2 km/h (0 Bft) SW 217 ° 0 min 0,000 mm 0,0 UV-I 0 W/m² -0,7 °C 0,9 °C 1,6 km/h (1 Bft)
31.01.2018 06:40 0,9 °C 89 % 1021,2 hPa 0,0 mm 0,2 km/h (0 Bft) SW 217 ° 0 min 0,000 mm 0,0 UV-I 0 W/m² -0,7 °C 0,9 °C 1,6 km/h (1 Bft)
31.01.2018 06:41 0,9 °C 89 % 1021,2 hPa 0,0 mm 0,0 km/h (0 Bft) SW 217 ° 0 min 0,000 mm 0,0 UV-I 0 W/m² -0,7 °C 0,9 °C 0,0 km/h (0 Bft)
31.01.2018 06:42 0,9 °C 89 % 1021,2 hPa 0,0 mm 0,0 km/h (0 Bft) SW 217 ° 0 min 0,000 mm 0,0 UV-I 0 W/m² -0,7 °C 0,9 °C 0,0 km/h (0 Bft)
31.01.2018 06:43 0,9 °C 89 % 1021,1 hPa 0,0 mm 0,0 km/h (0 Bft) SW 217 ° 0 min 0,000 mm 0,0 UV-I 0 W/m² -0,7 °C 0,9 °C 0,0 km/h (0 Bft)
31.01.2018 06:44 0,9 °C 89 % 1021,1 hPa 0,0 mm 0,0 km/h (0 Bft) SW 217 ° 0 min 0,000 mm 0,0 UV-I 0 W/m² -0,7 °C 0,9 °C 0,0 km/h (0 Bft)
31.01.2018 06:45 0,9 °C 89 % 1021,2 hPa 0,0 mm 0,0 km/h (0 Bft) SW 217 ° 0 min 0,000 mm 0,0 UV-I 0 W/m² -0,7 °C 0,9 °C 0,0 km/h (0 Bft)
31.01.2018 06:46 0,9 °C 89 % 1021,2 hPa 0,0 mm 0,0 km/h (0 Bft) SW 217 ° 0 min 0,000 mm 0,0 UV-I 0 W/m² -0,7 °C 0,9 °C 0,0 km/h (0 Bft)
31.01.2018 06:47 0,9 °C 89 % 1021,2 hPa 0,0 mm 0,0 km/h (0 Bft) SW 217 ° 0 min 0,000 mm 0,0 UV-I 0 W/m² -0,7 °C 0,9 °C 0,0 km/h (0 Bft)
31.01.2018 06:48 0,9 °C 89 % 1021,1 hPa 0,0 mm 0,0 km/h (0 Bft) SW 217 ° 0 min 0,000 mm 0,0 UV-I 0 W/m² -0,7 °C 0,9 °C 0,0 km/h (0 Bft)
31.01.2018 06:49 0,9 °C 89 % 1021,1 hPa 0,0 mm 0,0 km/h (0 Bft) SW 217 ° 0 min 0,000 mm 0,0 UV-I 0 W/m² -0,7 °C 0,9 °C 0,0 km/h (0 Bft)
31.01.2018 06:50 0,9 °C 89 % 1021,1 hPa 0,0 mm 0,0 km/h (0 Bft) SW 217 ° 0 min 0,000 mm 0,0 UV-I 0 W/m² -0,7 °C 0,9 °C 0,0 km/h (0 Bft)
31.01.2018 06:51 0,9 °C 89 % 1021,1 hPa 0,0 mm 0,0 km/h (0 Bft) SW 217 ° 0 min 0,000 mm 0,0 UV-I 0 W/m² -0,7 °C 0,9 °C 0,0 km/h (0 Bft)
31.01.2018 06:52 0,8 °C 89 % 1021,1 hPa 0,0 mm 0,0 km/h (0 Bft) SW 217 ° 0 min 0,000 mm 0,0 UV-I 0 W/m² -0,8 °C 0,8 °C 0,0 km/h (0 Bft)
31.01.2018 06:53 0,9 °C 90 % 1021,1 hPa 0,0 mm 0,0 km/h (0 Bft) SW 217 ° 0 min 0,000 mm 0,0 UV-I 0 W/m² -0,6 °C 0,9 °C 0,0 km/h (0 Bft)
31.01.2018 06:54 0,9 °C 90 % 1021,1 hPa 0,0 mm 0,0 km/h (0 Bft) SW 217 ° 0 min 0,000 mm 0,0 UV-I 0 W/m² -0,6 °C 0,9 °C 0,0 km/h (0 Bft)
31.01.2018 06:55 0,9 °C 89 % 1021,1 hPa 0,0 mm 0,0 km/h (0 Bft) SW 217 ° 0 min 0,000 mm 0,0 UV-I 0 W/m² -0,7 °C 0,9 °C 0,0 km/h (0 Bft)
31.01.2018 06:56 0,9 °C 89 % 1021,0 hPa 0,0 mm 0,0 km/h (0 Bft) SW 217 ° 0 min 0,000 mm 0,0 UV-I 0 W/m² -0,7 °C 0,9 °C 0,0 km/h (0 Bft)
31.01.2018 06:57 0,9 °C 89 % 1021,0 hPa 0,0 mm 0,0 km/h (0 Bft) SW 217 ° 0 min 0,000 mm 0,0 UV-I 0 W/m² -0,7 °C 0,9 °C 0,0 km/h (0 Bft)
31.01.2018 06:58 0,8 °C 89 % 1021,0 hPa 0,0 mm 0,0 km/h (0 Bft) SW 217 ° 0 min 0,000 mm 0,0 UV-I 0 W/m² -0,8 °C 0,8 °C 0,0 km/h (0 Bft)
31.01.2018 06:59 0,8 °C 89 % 1021,0 hPa 0,0 mm 0,0 km/h (0 Bft) SW 217 ° 0 min 0,000 mm 0,0 UV-I 0 W/m² -0,8 °C 0,8 °C 0,0 km/h (0 Bft)
31.01.2018 07:00 0,9 °C 89 % 1021,0 hPa 0,0 mm 0,0 km/h (0 Bft) SW 217 ° 0 min 0,000 mm 0,0 UV-I 0 W/m² -0,7 °C 0,9 °C 0,0 km/h (0 Bft)
31.01.2018 07:01 0,8 °C 89 % 1021,0 hPa 0,0 mm 0,0 km/h (0 Bft) SW 217 ° 0 min 0,000 mm 0,0 UV-I 0 W/m² -0,8 °C 0,8 °C 0,0 km/h (0 Bft)
31.01.2018 07:02 0,9 °C 89 % 1021,0 hPa 0,0 mm 0,0 km/h (0 Bft) SW 217 ° 0 min 0,000 mm 0,0 UV-I 0 W/m² -0,7 °C 0,9 °C 0,0 km/h (0 Bft)
31.01.2018 07:03 0,9 °C 89 % 1021,0 hPa 0,0 mm 0,7 km/h (0 Bft) NW 310 ° 0 min 0,000 mm 0,0 UV-I 0 W/m² -0,7 °C 0,9 °C 3,2 km/h (1 Bft)
31.01.2018 07:04 0,8 °C 89 % 1021,0 hPa 0,0 mm 0,1 km/h (0 Bft) NW 310 ° 0 min 0,000 mm 0,0 UV-I 0 W/m² -0,8 °C 0,8 °C 1,6 km/h (1 Bft)
31.01.2018 07:05 0,9 °C 89 % 1021,0 hPa 0,0 mm 0,0 km/h (0 Bft) NW 310 ° 0 min 0,000 mm 0,0 UV-I 0 W/m² -0,7 °C 0,9 °C 0,0 km/h (0 Bft)
31.01.2018 07:06 0,9 °C 89 % 1021,0 hPa 0,0 mm 0,0 km/h (0 Bft) NW 310 ° 0 min 0,000 mm 0,0 UV-I 0 W/m² -0,7 °C 0,9 °C 0,0 km/h (0 Bft)
31.01.2018 07:07 0,9 °C 90 % 1021,0 hPa 0,0 mm 0,0 km/h (0 Bft) NW 310 ° 0 min 0,000 mm 0,0 UV-I 0 W/m² -0,6 °C 0,9 °C 0,0 km/h (0 Bft)
31.01.2018 07:08 0,8 °C 90 % 1021,0 hPa 0,0 mm 0,0 km/h (0 Bft) NW 310 ° 0 min 0,000 mm 0,0 UV-I 0 W/m² -0,6 °C 0,8 °C 0,0 km/h (0 Bft)
31.01.2018 07:09 0,8 °C 90 % 1021,0 hPa 0,0 mm 0,0 km/h (0 Bft) NW 310 ° 0 min 0,000 mm 0,0 UV-I 0 W/m² -0,6 °C 0,8 °C 0,0 km/h (0 Bft)
31.01.2018 07:10 0,9 °C 90 % 1021,0 hPa 0,0 mm 0,0 km/h (0 Bft) NW 310 ° 0 min 0,000 mm 0,0 UV-I 0 W/m² -0,6 °C 0,9 °C 0,0 km/h (0 Bft)
31.01.2018 07:11 0,9 °C 90 % 1020,9 hPa 0,0 mm 0,0 km/h (0 Bft) NW 310 ° 0 min 0,000 mm 0,0 UV-I 0 W/m² -0,6 °C 0,9 °C 0,0 km/h (0 Bft)
31.01.2018 07:12 0,8 °C 90 % 1021,0 hPa 0,0 mm 0,0 km/h (0 Bft) NW 310 ° 0 min 0,000 mm 0,0 UV-I 0 W/m² -0,6 °C 0,8 °C 0,0 km/h (0 Bft)
31.01.2018 07:13 0,9 °C 90 % 1020,9 hPa 0,0 mm 0,0 km/h (0 Bft) NW 310 ° 0 min 0,000 mm 0,0 UV-I 0 W/m² -0,6 °C 0,9 °C 0,0 km/h (0 Bft)
31.01.2018 07:14 0,9 °C 90 % 1020,9 hPa 0,0 mm 0,0 km/h (0 Bft) NW 310 ° 0 min 0,000 mm 0,0 UV-I 0 W/m² -0,6 °C 0,9 °C 0,0 km/h (0 Bft)
31.01.2018 07:15 0,8 °C 90 % 1020,9 hPa 0,0 mm 0,0 km/h (0 Bft) NW 310 ° 0 min 0,000 mm 0,0 UV-I 0 W/m² -0,6 °C 0,8 °C 0,0 km/h (0 Bft)
31.01.2018 07:16 0,8 °C 90 % 1020,8 hPa 0,0 mm 0,0 km/h (0 Bft) NW 310 ° 0 min 0,000 mm 0,0 UV-I 0 W/m² -0,6 °C 0,8 °C 0,0 km/h (0 Bft)
31.01.2018 07:17 0,9 °C 90 % 1020,9 hPa 0,0 mm 0,0 km/h (0 Bft) NW 310 ° 0 min 0,000 mm 0,0 UV-I 0 W/m² -0,6 °C 0,9 °C 0,0 km/h (0 Bft)
31.01.2018 07:18 0,9 °C 90 % 1020,9 hPa 0,0 mm 0,7 km/h (0 Bft) W-NW 292 ° 0 min 0,000 mm 0,0 UV-I 0 W/m² -0,6 °C 0,9 °C 3,2 km/h (1 Bft)
31.01.2018 07:19 0,9 °C 90 % 1020,9 hPa 0,0 mm 2,0 km/h (1 Bft) W-NW 285 ° 0 min 0,000 mm 0,0 UV-I 0 W/m² -0,6 °C 0,9 °C 3,2 km/h (1 Bft)
31.01.2018 07:20 0,8 °C 90 % 1020,8 hPa 0,0 mm 0,3 km/h (0 Bft) W 281 ° 0 min 0,000 mm 0,0 UV-I 0 W/m² -0,6 °C 0,8 °C 1,6 km/h (1 Bft)
31.01.2018 07:21 0,9 °C 90 % 1020,8 hPa 0,0 mm 1,0 km/h (0 Bft) W 281 ° 0 min 0,000 mm 0,0 UV-I 0 W/m² -0,6 °C 0,9 °C 3,2 km/h (1 Bft)
31.01.2018 07:22 0,9 °C 90 % 1020,7 hPa 0,0 mm 0,0 km/h (0 Bft) W 281 ° 0 min 0,000 mm 0,0 UV-I 0 W/m² -0,6 °C 0,9 °C 0,0 km/h (0 Bft)
31.01.2018 07:23 0,9 °C 90 % 1020,7 hPa 0,0 mm 1,0 km/h (0 Bft) W-NW 298 ° 0 min 0,000 mm 0,0 UV-I 0 W/m² -0,6 °C 0,9 °C 3,2 km/h (1 Bft)
31.01.2018 07:24 0,9 °C 90 % 1020,7 hPa 0,0 mm 2,5 km/h (1 Bft) W-NW 298 ° 0 min 0,000 mm 0,0 UV-I 0 W/m² -0,6 °C 0,9 °C 3,2 km/h (1 Bft)
31.01.2018 07:25 0,9 °C 90 % 1020,7 hPa 0,0 mm 0,4 km/h (0 Bft) W-NW 298 ° 0 min 0,000 mm 0,0 UV-I 0 W/m² -0,6 °C 0,9 °C 1,6 km/h (1 Bft)
31.01.2018 07:26 0,9 °C 90 % 1020,7 hPa 0,0 mm 0,0 km/h (0 Bft) W-NW 298 ° 0 min 0,000 mm 0,0 UV-I 0 W/m² -0,6 °C 0,9 °C 0,0 km/h (0 Bft)
31.01.2018 07:27 0,9 °C 90 % 1020,7 hPa 0,0 mm 0,0 km/h (0 Bft) W-NW 298 ° 0 min 0,000 mm 0,0 UV-I 0 W/m² -0,6 °C 0,9 °C 0,0 km/h (0 Bft)
31.01.2018 07:28 0,9 °C 90 % 1020,7 hPa 0,0 mm 0,0 km/h (0 Bft) W-NW 298 ° 0 min 0,000 mm 0,0 UV-I 0 W/m² -0,6 °C 0,9 °C 0,0 km/h (0 Bft)
31.01.2018 07:29 0,9 °C 90 % 1020,7 hPa 0,0 mm 0,2 km/h (0 Bft) W 264 ° 0 min 0,000 mm 0,0 UV-I 0 W/m² -0,6 °C 0,9 °C 1,6 km/h (1 Bft)
31.01.2018 07:30 0,9 °C 90 % 1020,6 hPa 0,0 mm 1,7 km/h (1 Bft) W 264 ° 0 min 0,000 mm 0,0 UV-I 0 W/m² -0,6 °C 0,9 °C 3,2 km/h (1 Bft)
31.01.2018 07:31 0,9 °C 90 % 1020,7 hPa 0,0 mm 0,1 km/h (0 Bft) W 264 ° 0 min 0,000 mm 0,0 UV-I 0 W/m² -0,6 °C 0,9 °C 1,6 km/h (1 Bft)
31.01.2018 07:32 0,9 °C 90 % 1020,6 hPa 0,0 mm 0,0 km/h (0 Bft) W 264 ° 0 min 0,000 mm 0,0 UV-I 0 W/m² -0,6 °C 0,9 °C 0,0 km/h (0 Bft)
31.01.2018 07:33 1,0 °C 89 % 1020,6 hPa 0,0 mm 0,2 km/h (0 Bft) W-SW 257 ° 0 min 0,000 mm 0,0 UV-I 0 W/m² -0,6 °C 1,0 °C 1,6 km/h (1 Bft)
31.01.2018 07:34 1,0 °C 89 % 1020,7 hPa 0,0 mm 0,7 km/h (0 Bft) NW 315 ° 0 min 0,000 mm 0,0 UV-I 0 W/m² -0,6 °C 1,0 °C 3,2 km/h (1 Bft)
31.01.2018 07:35 1,0 °C 89 % 1020,6 hPa 0,0 mm 0,0 km/h (0 Bft) NW 315 ° 0 min 0,000 mm 0,0 UV-I 0 W/m² -0,6 °C 1,0 °C 0,0 km/h (0 Bft)
31.01.2018 07:36 1,0 °C 90 % 1020,6 hPa 0,0 mm 1,0 km/h (0 Bft) W 270 ° 0 min 0,000 mm 0,0 UV-I 0 W/m² -0,5 °C 1,0 °C 4,8 km/h (1 Bft)
31.01.2018 07:37 1,0 °C 90 % 1020,6 hPa 0,0 mm 3,3 km/h (1 Bft) SW 231 ° 0 min 0,000 mm 0,0 UV-I 0 W/m² -0,5 °C 1,0 °C 4,8 km/h (1 Bft)
31.01.2018 07:38 1,0 °C 89 % 1020,6 hPa 0,0 mm 0,9 km/h (0 Bft) S-SW 203 ° 0 min 0,000 mm 0,0 UV-I 0 W/m² -0,6 °C 1,0 °C 3,2 km/h (1 Bft)
31.01.2018 07:39 1,0 °C 89 % 1020,6 hPa 0,0 mm 0,0 km/h (0 Bft) S-SW 203 ° 0 min 0,000 mm 0,0 UV-I 0 W/m² -0,6 °C 1,0 °C 0,0 km/h (0 Bft)
31.01.2018 07:40 1,0 °C 89 % 1020,6 hPa 0,0 mm 0,1 km/h (0 Bft) S-SW 203 ° 0 min 0,000 mm 0,0 UV-I 0 W/m² -0,6 °C 1,0 °C 1,6 km/h (1 Bft)
31.01.2018 07:41 1,0 °C 89 % 1020,6 hPa 0,0 mm 1,2 km/h (1 Bft) S-SW 202 ° 0 min 0,000 mm 0,0 UV-I 0 W/m² -0,6 °C 1,0 °C 3,2 km/h (1 Bft)
31.01.2018 07:42 1,0 °C 89 % 1020,6 hPa 0,0 mm 2,6 km/h (1 Bft) O-NO 74 ° 0 min 0,000 mm 0,0 UV-I 0 W/m² -0,6 °C 1,0 °C 4,8 km/h (1 Bft)
31.01.2018 07:43 1,0 °C 89 % 1020,6 hPa 0,0 mm 2,1 km/h (1 Bft) O 84 ° 0 min 0,000 mm 0,0 UV-I 0 W/m² -0,6 °C 1,0 °C 3,2 km/h (1 Bft)
31.01.2018 07:44 1,0 °C 89 % 1020,6 hPa 0,0 mm 0,0 km/h (0 Bft) O 84 ° 0 min 0,000 mm 0,0 UV-I 0 W/m² -0,6 °C 1,0 °C 0,0 km/h (0 Bft)
31.01.2018 07:45 1,0 °C 89 % 1020,6 hPa 0,0 mm 0,1 km/h (0 Bft) O 84 ° 0 min 0,000 mm 0,0 UV-I 0 W/m² -0,6 °C 1,0 °C 1,6 km/h (1 Bft)
31.01.2018 07:46 1,0 °C 88 % 1020,6 hPa 0,0 mm 0,6 km/h (0 Bft) O 84 ° 0 min 0,000 mm 0,0 UV-I 0 W/m² -0,8 °C 1,0 °C 3,2 km/h (1 Bft)
31.01.2018 07:47 1,1 °C 89 % 1020,6 hPa 0,0 mm 0,0 km/h (0 Bft) O 84 ° 0 min 0,000 mm 0,0 UV-I 0 W/m² -0,5 °C 1,1 °C 0,0 km/h (0 Bft)
31.01.2018 07:48 1,0 °C 88 % 1020,6 hPa 0,0 mm 0,0 km/h (0 Bft) O 84 ° 0 min 0,000 mm 0,0 UV-I 0 W/m² -0,8 °C 1,0 °C 0,0 km/h (0 Bft)
31.01.2018 07:49 1,0 °C 88 % 1020,6 hPa 0,0 mm 0,0 km/h (0 Bft) O 84 ° 0 min 0,000 mm 0,0 UV-I 0 W/m² -0,8 °C 1,0 °C 0,0 km/h (0 Bft)
31.01.2018 07:50 1,0 °C 88 % 1020,6 hPa 0,0 mm 1,9 km/h (1 Bft) O 84 ° 0 min 0,000 mm 0,0 UV-I 0 W/m² -0,8 °C 1,0 °C 3,2 km/h (1 Bft)
31.01.2018 07:51 1,0 °C 88 % 1020,5 hPa 0,0 mm 1,5 km/h (1 Bft) O 84 ° 0 min 0,000 mm 0,0 UV-I 5 W/m² -0,8 °C 1,0 °C 3,2 km/h (1 Bft)
31.01.2018 07:52 1,0 °C 88 % 1020,5 hPa 0,0 mm 2,1 km/h (1 Bft) O 84 ° 0 min 0,000 mm 0,0 UV-I 5 W/m² -0,8 °C 1,0 °C 3,2 km/h (1 Bft)
31.01.2018 07:53 1,0 °C 88 % 1020,5 hPa 0,0 mm 0,0 km/h (0 Bft) O 84 ° 0 min 0,000 mm 0,0 UV-I 5 W/m² -0,8 °C 1,0 °C 0,0 km/h (0 Bft)
31.01.2018 07:54 1,0 °C 88 % 1020,5 hPa 0,0 mm 0,0 km/h (0 Bft) O 84 ° 0 min 0,000 mm 0,0 UV-I 5 W/m² -0,8 °C 1,0 °C 0,0 km/h (0 Bft)
31.01.2018 07:55 1,0 °C 88 % 1020,5 hPa 0,0 mm 0,1 km/h (0 Bft) O 84 ° 0 min 0,000 mm 0,0 UV-I 5 W/m² -0,8 °C 1,0 °C 1,6 km/h (1 Bft)
31.01.2018 07:56 1,0 °C 88 % 1020,5 hPa 0,0 mm 0,1 km/h (0 Bft) O 84 ° 0 min 0,000 mm 0,0 UV-I 5 W/m² -0,8 °C 1,0 °C 1,6 km/h (1 Bft)
31.01.2018 07:57 1,0 °C 88 % 1020,5 hPa 0,0 mm 0,1 km/h (0 Bft) O 84 ° 0 min 0,000 mm 0,0 UV-I 5 W/m² -0,8 °C 1,0 °C 1,6 km/h (1 Bft)
31.01.2018 07:58 0,9 °C 88 % 1020,4 hPa 0,0 mm 0,0 km/h (0 Bft) O 84 ° 0 min 0,000 mm 0,0 UV-I 7 W/m² -0,9 °C 0,9 °C 0,0 km/h (0 Bft)
31.01.2018 07:59 1,0 °C 88 % 1020,5 hPa 0,0 mm 0,0 km/h (0 Bft) O 84 ° 0 min 0,000 mm 0,0 UV-I 7 W/m² -0,8 °C 1,0 °C 0,0 km/h (0 Bft)
31.01.2018 08:00 0,9 °C 88 % 1020,4 hPa 0,0 mm 0,0 km/h (0 Bft) O 84 ° 0 min 0,000 mm 0,0 UV-I 7 W/m² -0,9 °C 0,9 °C 0,0 km/h (0 Bft)
31.01.2018 08:01 0,9 °C 88 % 1020,5 hPa 0,0 mm 0,0 km/h (0 Bft) O 84 ° 0 min 0,000 mm 0,0 UV-I 7 W/m² -0,9 °C 0,9 °C 0,0 km/h (0 Bft)
31.01.2018 08:02 1,0 °C 88 % 1020,5 hPa 0,0 mm 2,6 km/h (1 Bft) W-SW 255 ° 0 min 0,000 mm 0,0 UV-I 9 W/m² -0,8 °C 1,0 °C 4,8 km/h (1 Bft)
31.01.2018 08:03 0,9 °C 87 % 1020,5 hPa 0,0 mm 0,0 km/h (0 Bft) W 280 ° 0 min 0,000 mm 0,0 UV-I 9 W/m² -1,0 °C 0,9 °C 0,0 km/h (0 Bft)
31.01.2018 08:04 0,9 °C 87 % 1020,5 hPa 0,0 mm 0,0 km/h (0 Bft) W 269 ° 0 min 0,000 mm 0,0 UV-I 11 W/m² -1,0 °C 0,9 °C 0,0 km/h (0 Bft)
31.01.2018 08:05 0,9 °C 87 % 1020,5 hPa 0,0 mm 0,5 km/h (0 Bft) W 269 ° 0 min 0,000 mm 0,0 UV-I 12 W/m² -1,0 °C 0,9 °C 3,2 km/h (1 Bft)
31.01.2018 08:06 0,9 °C 87 % 1020,4 hPa 0,0 mm 0,0 km/h (0 Bft) W 269 ° 0 min 0,000 mm 0,0 UV-I 14 W/m² -1,0 °C 0,9 °C 0,0 km/h (0 Bft)
31.01.2018 08:07 0,9 °C 87 % 1020,4 hPa 0,0 mm 0,0 km/h (0 Bft) W 269 ° 0 min 0,000 mm 0,0 UV-I 14 W/m² -1,0 °C 0,9 °C 0,0 km/h (0 Bft)
31.01.2018 08:08 0,9 °C 87 % 1020,4 hPa 0,0 mm 0,1 km/h (0 Bft) W 269 ° 0 min 0,000 mm 0,0 UV-I 14 W/m² -1,0 °C 0,9 °C 1,6 km/h (1 Bft)
31.01.2018 08:09 0,9 °C 87 % 1020,4 hPa 0,0 mm 0,0 km/h (0 Bft) W 269 ° 0 min 0,000 mm 0,0 UV-I 16 W/m² -1,0 °C 0,9 °C 0,0 km/h (0 Bft)
31.01.2018 08:10 0,9 °C 87 % 1020,4 hPa 0,0 mm 2,1 km/h (1 Bft) SW 227 ° 0 min 0,000 mm 0,0 UV-I 16 W/m² -1,0 °C 0,9 °C 3,2 km/h (1 Bft)
31.01.2018 08:11 0,9 °C 87 % 1020,4 hPa 0,0 mm 0,1 km/h (0 Bft) SW 227 ° 0 min 0,000 mm 0,0 UV-I 16 W/m² -1,0 °C 0,9 °C 1,6 km/h (1 Bft)
31.01.2018 08:12 0,8 °C 87 % 1020,4 hPa 0,0 mm 0,0 km/h (0 Bft) SW 227 ° 0 min 0,000 mm 0,0 UV-I 18 W/m² -1,1 °C 0,8 °C 0,0 km/h (0 Bft)
31.01.2018 08:13 0,8 °C 87 % 1020,3 hPa 0,0 mm 0,0 km/h (0 Bft) SW 227 ° 0 min 0,000 mm 0,0 UV-I 19 W/m² -1,1 °C 0,8 °C 0,0 km/h (0 Bft)
31.01.2018 08:14 0,8 °C 87 % 1020,3 hPa 0,0 mm 0,0 km/h (0 Bft) SW 227 ° 0 min 0,000 mm 0,0 UV-I 19 W/m² -1,1 °C 0,8 °C 0,0 km/h (0 Bft)
31.01.2018 08:15 0,8 °C 87 % 1020,3 hPa 0,0 mm 0,0 km/h (0 Bft) SW 227 ° 0 min 0,000 mm 0,0 UV-I 19 W/m² -1,1 °C 0,8 °C 0,0 km/h (0 Bft)
31.01.2018 08:16 0,8 °C 87 % 1020,3 hPa 0,0 mm 0,0 km/h (0 Bft) SW 227 ° 0 min 0,000 mm 0,0 UV-I 19 W/m² -1,1 °C 0,8 °C 0,0 km/h (0 Bft)
31.01.2018 08:17 0,8 °C 87 % 1020,3 hPa 0,0 mm 0,0 km/h (0 Bft) SW 227 ° 0 min 0,000 mm 0,0 UV-I 19 W/m² -1,1 °C 0,8 °C 0,0 km/h (0 Bft)
31.01.2018 08:18 0,8 °C 87 % 1020,3 hPa 0,0 mm 0,0 km/h (0 Bft) SW 227 ° 0 min 0,000 mm 0,0 UV-I 19 W/m² -1,1 °C 0,8 °C 0,0 km/h (0 Bft)
31.01.2018 08:19 0,8 °C 87 % 1020,2 hPa 0,0 mm 0,0 km/h (0 Bft) SW 227 ° 0 min 0,000 mm 0,0 UV-I 19 W/m² -1,1 °C 0,8 °C 0,0 km/h (0 Bft)
31.01.2018 08:20 0,8 °C 87 % 1020,1 hPa 0,0 mm 0,0 km/h (0 Bft) SW 235 ° 0 min 0,000 mm 0,0 UV-I 19 W/m² -1,1 °C 0,8 °C 0,0 km/h (0 Bft)
31.01.2018 08:21 0,8 °C 87 % 1020,1 hPa 0,0 mm 0,6 km/h (0 Bft) SW 221 ° 0 min 0,000 mm 0,0 UV-I 19 W/m² -1,1 °C 0,8 °C 1,6 km/h (1 Bft)
31.01.2018 08:22 0,8 °C 87 % 1020,1 hPa 0,0 mm 0,4 km/h (0 Bft) SW 221 ° 0 min 0,000 mm 0,0 UV-I 19 W/m² -1,1 °C 0,8 °C 1,6 km/h (1 Bft)
31.01.2018 08:23 0,8 °C 87 % 1020,1 hPa 0,0 mm 0,1 km/h (0 Bft) SW 221 ° 0 min 0,000 mm 0,0 UV-I 19 W/m² -1,1 °C 0,8 °C 1,6 km/h (1 Bft)
31.01.2018 08:24 0,8 °C 87 % 1020,0 hPa 0,0 mm 6,1 km/h (2 Bft) S-SO 161 ° 0 min 0,000 mm 0,0 UV-I 19 W/m² -1,1 °C -1,1 °C 14,5 km/h (3 Bft)
31.01.2018 08:25 0,8 °C 87 % 1020,0 hPa 0,0 mm 2,2 km/h (1 Bft) S-SO 163 ° 0 min 0,000 mm 0,0 UV-I 19 W/m² -1,1 °C 0,8 °C 6,4 km/h (2 Bft)
31.01.2018 08:26 0,8 °C 87 % 1020,0 hPa 0,0 mm 0,0 km/h (0 Bft) S-SO 163 ° 0 min 0,000 mm 0,0 UV-I 19 W/m² -1,1 °C 0,8 °C 0,0 km/h (0 Bft)
31.01.2018 08:27 0,8 °C 87 % 1020,0 hPa 0,0 mm 0,0 km/h (0 Bft) S-SO 163 ° 0 min 0,000 mm 0,0 UV-I 19 W/m² -1,1 °C 0,8 °C 0,0 km/h (0 Bft)
31.01.2018 08:28 0,8 °C 87 % 1020,0 hPa 0,0 mm 0,0 km/h (0 Bft) S-SO 163 ° 0 min 0,000 mm 0,0 UV-I 19 W/m² -1,1 °C 0,8 °C 0,0 km/h (0 Bft)
31.01.2018 08:29 0,8 °C 87 % 1020,0 hPa 0,0 mm 0,0 km/h (0 Bft) S-SO 163 ° 0 min 0,000 mm 0,0 UV-I 19 W/m² -1,1 °C 0,8 °C 0,0 km/h (0 Bft)
31.01.2018 08:30 0,8 °C 87 % 1019,9 hPa 0,0 mm 0,0 km/h (0 Bft) S-SO 149 ° 0 min 0,000 mm 0,0 UV-I 19 W/m² -1,1 °C 0,8 °C 0,0 km/h (0 Bft)
31.01.2018 08:31 0,8 °C 87 % 1020,0 hPa 0,0 mm 0,6 km/h (0 Bft) SO 132 ° 0 min 0,000 mm 0,0 UV-I 19 W/m² -1,1 °C 0,8 °C 3,2 km/h (1 Bft)
31.01.2018 08:32 0,8 °C 87 % 1019,9 hPa 0,0 mm 0,0 km/h (0 Bft) SO 132 ° 0 min 0,000 mm 0,0 UV-I 19 W/m² -1,1 °C 0,8 °C 0,0 km/h (0 Bft)
31.01.2018 08:33 0,8 °C 87 % 1019,9 hPa 0,0 mm 0,0 km/h (0 Bft) SO 132 ° 0 min 0,000 mm 0,0 UV-I 18 W/m² -1,1 °C 0,8 °C 0,0 km/h (0 Bft)
31.01.2018 08:34 0,8 °C 87 % 1019,9 hPa 0,0 mm 0,0 km/h (0 Bft) SO 132 ° 0 min 0,000 mm 0,0 UV-I 18 W/m² -1,1 °C 0,8 °C 0,0 km/h (0 Bft)
31.01.2018 08:35 0,7 °C 87 % 1019,9 hPa 0,0 mm 0,0 km/h (0 Bft) SO 132 ° 0 min 0,000 mm 0,0 UV-I 18 W/m² -1,2 °C 0,7 °C 0,0 km/h (0 Bft)
31.01.2018 08:36 0,7 °C 87 % 1019,9 hPa 0,0 mm 0,0 km/h (0 Bft) SO 132 ° 0 min 0,000 mm 0,0 UV-I 19 W/m² -1,2 °C 0,7 °C 0,0 km/h (0 Bft)
31.01.2018 08:37 0,7 °C 87 % 1019,9 hPa 0,0 mm 0,0 km/h (0 Bft) SO 132 ° 0 min 0,000 mm 0,0 UV-I 19 W/m² -1,2 °C 0,7 °C 0,0 km/h (0 Bft)
31.01.2018 08:38 0,7 °C 87 % 1019,9 hPa 0,0 mm 0,0 km/h (0 Bft) SO 132 ° 0 min 0,000 mm 0,0 UV-I 19 W/m² -1,2 °C 0,7 °C 0,0 km/h (0 Bft)
31.01.2018 08:39 0,7 °C 87 % 1019,9 hPa 0,0 mm 0,0 km/h (0 Bft) SO 132 ° 0 min 0,000 mm 0,0 UV-I 19 W/m² -1,2 °C 0,7 °C 0,0 km/h (0 Bft)
31.01.2018 08:40 0,7 °C 87 % 1019,9 hPa 0,0 mm 0,0 km/h (0 Bft) SO 132 ° 0 min 0,000 mm 0,0 UV-I 19 W/m² -1,2 °C 0,7 °C 0,0 km/h (0 Bft)
31.01.2018 08:41 0,7 °C 87 % 1019,9 hPa 0,0 mm 0,3 km/h (0 Bft) SO 132 ° 0 min 0,000 mm 0,0 UV-I 19 W/m² -1,2 °C 0,7 °C 1,6 km/h (1 Bft)
31.01.2018 08:42 0,7 °C 87 % 1019,9 hPa 0,0 mm 0,1 km/h (0 Bft) S-SO 147 ° 0 min 0,000 mm 0,0 UV-I 19 W/m² -1,2 °C 0,7 °C 1,6 km/h (1 Bft)
31.01.2018 08:43 0,7 °C 87 % 1019,9 hPa 0,0 mm 1,4 km/h (1 Bft) W-SW 251 ° 0 min 0,000 mm 0,0 UV-I 19 W/m² -1,2 °C 0,7 °C 4,8 km/h (1 Bft)
31.01.2018 08:44 0,7 °C 87 % 1019,9 hPa 0,0 mm 1,5 km/h (1 Bft) W 265 ° 0 min 0,000 mm 0,0 UV-I 19 W/m² -1,2 °C 0,7 °C 3,2 km/h (1 Bft)
31.01.2018 08:45 0,7 °C 87 % 1019,8 hPa 0,0 mm 0,3 km/h (0 Bft) W 265 ° 0 min 0,000 mm 0,0 UV-I 19 W/m² -1,2 °C 0,7 °C 1,6 km/h (1 Bft)
31.01.2018 08:46 0,7 °C 87 % 1019,8 hPa 0,0 mm 1,3 km/h (1 Bft) NW 313 ° 0 min 0,000 mm 0,0 UV-I 19 W/m² -1,2 °C 0,7 °C 4,8 km/h (1 Bft)
31.01.2018 08:47 0,7 °C 87 % 1019,8 hPa 0,0 mm 1,7 km/h (1 Bft) NW 313 ° 0 min 0,000 mm 0,0 UV-I 19 W/m² -1,2 °C 0,7 °C 3,2 km/h (1 Bft)
31.01.2018 08:48 0,7 °C 87 % 1019,8 hPa 0,0 mm 1,3 km/h (1 Bft) NW 313 ° 0 min 0,000 mm 0,0 UV-I 19 W/m² -1,2 °C 0,7 °C 3,2 km/h (1 Bft)
31.01.2018 08:49 0,7 °C 87 % 1019,7 hPa 0,0 mm 2,1 km/h (1 Bft) NW 313 ° 0 min 0,000 mm 0,0 UV-I 19 W/m² -1,2 °C 0,7 °C 3,2 km/h (1 Bft)
31.01.2018 08:50 0,7 °C 88 % 1019,7 hPa 0,0 mm 3,4 km/h (1 Bft) W-SW 240 ° 0 min 0,000 mm 0,0 UV-I 19 W/m² -1,1 °C 0,7 °C 6,4 km/h (2 Bft)
31.01.2018 08:51 0,7 °C 88 % 1019,7 hPa 0,0 mm 3,5 km/h (1 Bft) SW 215 ° 0 min 0,000 mm 0,0 UV-I 21 W/m² -1,1 °C 0,7 °C 6,4 km/h (2 Bft)
31.01.2018 08:52 0,7 °C 88 % 1019,7 hPa 0,0 mm 1,6 km/h (1 Bft) SW 220 ° 0 min 0,000 mm 0,0 UV-I 21 W/m² -1,1 °C 0,7 °C 3,2 km/h (1 Bft)
31.01.2018 08:53 0,7 °C 88 % 1019,7 hPa 0,0 mm 1,0 km/h (0 Bft) SW 220 ° 0 min 0,000 mm 0,0 UV-I 21 W/m² -1,1 °C 0,7 °C 3,2 km/h (1 Bft)
31.01.2018 08:54 0,7 °C 88 % 1019,6 hPa 0,0 mm 0,7 km/h (0 Bft) SW 220 ° 0 min 0,000 mm 0,0 UV-I 21 W/m² -1,1 °C 0,7 °C 3,2 km/h (1 Bft)
31.01.2018 08:55 0,7 °C 88 % 1019,7 hPa 0,0 mm 0,3 km/h (0 Bft) SW 220 ° 0 min 0,000 mm 0,0 UV-I 23 W/m² -1,1 °C 0,7 °C 1,6 km/h (1 Bft)
31.01.2018 08:56 0,7 °C 88 % 1019,6 hPa 0,0 mm 0,1 km/h (0 Bft) SW 220 ° 0 min 0,000 mm 0,0 UV-I 23 W/m² -1,1 °C 0,7 °C 1,6 km/h (1 Bft)
31.01.2018 08:57 0,7 °C 88 % 1019,6 hPa 0,0 mm 0,4 km/h (0 Bft) SW 220 ° 0 min 0,000 mm 0,0 UV-I 25 W/m² -1,1 °C 0,7 °C 3,2 km/h (1 Bft)
31.01.2018 08:58 0,8 °C 88 % 1019,6 hPa 0,0 mm 6,8 km/h (2 Bft) S-SW 210 ° 0 min 0,000 mm 0,0 UV-I 25 W/m² -1,0 °C -1,4 °C 8,0 km/h (2 Bft)
31.01.2018 08:59 0,8 °C 88 % 1019,6 hPa 0,0 mm 2,5 km/h (1 Bft) S-SW 212 ° 0 min 0,000 mm 0,0 UV-I 25 W/m² -1,0 °C 0,8 °C 6,4 km/h (2 Bft)
31.01.2018 09:00 0,8 °C 87 % 1019,5 hPa 0,0 mm 2,3 km/h (1 Bft) S-SW 211 ° 0 min 0,000 mm 0,0 UV-I 26 W/m² -1,1 °C 0,8 °C 3,2 km/h (1 Bft)
31.01.2018 09:01 0,8 °C 88 % 1019,5 hPa 0,0 mm 0,7 km/h (0 Bft) S-SW 210 ° 0 min 0,000 mm 0,0 UV-I 28 W/m² -1,0 °C 0,8 °C 3,2 km/h (1 Bft)
31.01.2018 09:02 0,8 °C 88 % 1019,4 hPa 0,0 mm 0,0 km/h (0 Bft) S-SW 210 ° 0 min 0,000 mm 0,0 UV-I 30 W/m² -1,0 °C 0,8 °C 0,0 km/h (0 Bft)
31.01.2018 09:03 0,8 °C 88 % 1019,4 hPa 0,0 mm 0,0 km/h (0 Bft) S-SW 210 ° 0 min 0,000 mm 0,0 UV-I 33 W/m² -1,0 °C 0,8 °C 0,0 km/h (0 Bft)
31.01.2018 09:04 0,9 °C 88 % 1019,3 hPa 0,0 mm 0,0 km/h (0 Bft) S-SW 210 ° 0 min 0,000 mm 0,0 UV-I 46 W/m² -0,9 °C 0,9 °C 0,0 km/h (0 Bft)
31.01.2018 09:05 0,9 °C 88 % 1019,3 hPa 0,0 mm 1,5 km/h (1 Bft) S-SW 210 ° 0 min 0,000 mm 0,0 UV-I 46 W/m² -0,9 °C 0,9 °C 3,2 km/h (1 Bft)
31.01.2018 09:06 0,9 °C 88 % 1019,3 hPa 0,0 mm 0,6 km/h (0 Bft) S-SW 212 ° 0 min 0,000 mm 0,5 UV-I 62 W/m² -0,9 °C 0,9 °C 3,2 km/h (1 Bft)
31.01.2018 09:07 0,9 °C 88 % 1019,3 hPa 0,0 mm 0,2 km/h (0 Bft) S-SW 212 ° 0 min 0,000 mm 0,5 UV-I 67 W/m² -0,9 °C 0,9 °C 1,6 km/h (1 Bft)
31.01.2018 09:08 0,9 °C 88 % 1019,3 hPa 0,0 mm 0,1 km/h (0 Bft) S-SW 212 ° 0 min 0,000 mm 0,5 UV-I 69 W/m² -0,9 °C 0,9 °C 1,6 km/h (1 Bft)
31.01.2018 09:09 0,9 °C 88 % 1019,3 hPa 0,0 mm 0,0 km/h (0 Bft) S-SW 212 ° 0 min 0,000 mm 0,5 UV-I 67 W/m² -0,9 °C 0,9 °C 0,0 km/h (0 Bft)
31.01.2018 09:10 0,9 °C 87 % 1019,3 hPa 0,0 mm 0,0 km/h (0 Bft) S-SW 212 ° 0 min 0,000 mm 0,5 UV-I 65 W/m² -1,0 °C 0,9 °C 0,0 km/h (0 Bft)
31.01.2018 09:11 0,9 °C 87 % 1019,3 hPa 0,0 mm 1,3 km/h (1 Bft) SW 230 ° 0 min 0,000 mm 0,5 UV-I 65 W/m² -1,0 °C 0,9 °C 3,2 km/h (1 Bft)
31.01.2018 09:12 0,9 °C 87 % 1019,2 hPa 0,0 mm 0,7 km/h (0 Bft) SW 230 ° 0 min 0,000 mm 0,5 UV-I 65 W/m² -1,0 °C 0,9 °C 1,6 km/h (1 Bft)
31.01.2018 09:13 1,0 °C 87 % 1019,2 hPa 0,0 mm 0,0 km/h (0 Bft) SW 230 ° 0 min 0,000 mm 0,5 UV-I 67 W/m² -0,9 °C 1,0 °C 0,0 km/h (0 Bft)
31.01.2018 09:14 1,0 °C 87 % 1019,3 hPa 0,0 mm 0,0 km/h (0 Bft) SW 230 ° 0 min 0,000 mm 0,5 UV-I 69 W/m² -0,9 °C 1,0 °C 0,0 km/h (0 Bft)
31.01.2018 09:15 1,0 °C 87 % 1019,3 hPa 0,0 mm 0,0 km/h (0 Bft) SW 230 ° 0 min 0,000 mm 0,5 UV-I 72 W/m² -0,9 °C 1,0 °C 0,0 km/h (0 Bft)
31.01.2018 09:16 1,1 °C 87 % 1019,2 hPa 0,0 mm 0,8 km/h (0 Bft) SW 232 ° 0 min 0,000 mm 0,5 UV-I 69 W/m² -0,8 °C 1,1 °C 3,2 km/h (1 Bft)
31.01.2018 09:17 1,1 °C 87 % 1019,3 hPa 0,0 mm 1,8 km/h (1 Bft) SW 232 ° 0 min 0,000 mm 0,5 UV-I 69 W/m² -0,8 °C 1,1 °C 3,2 km/h (1 Bft)
31.01.2018 09:18 1,1 °C 87 % 1019,3 hPa 0,0 mm 1,8 km/h (1 Bft) W-NW 299 ° 0 min 0,000 mm 0,5 UV-I 69 W/m² -0,8 °C 1,1 °C 6,4 km/h (2 Bft)
31.01.2018 09:19 1,1 °C 87 % 1019,2 hPa 0,0 mm 1,1 km/h (1 Bft) W-NW 299 ° 0 min 0,000 mm 0,5 UV-I 70 W/m² -0,8 °C 1,1 °C 4,8 km/h (1 Bft)
31.01.2018 09:20 1,1 °C 87 % 1019,2 hPa 0,0 mm 1,7 km/h (1 Bft) W-NW 299 ° 0 min 0,000 mm 0,6 UV-I 72 W/m² -0,8 °C 1,1 °C 3,2 km/h (1 Bft)
31.01.2018 09:21 1,2 °C 87 % 1019,2 hPa 0,0 mm 2,7 km/h (1 Bft) W-NW 299 ° 0 min 0,000 mm 0,6 UV-I 81 W/m² -0,7 °C 1,2 °C 3,2 km/h (1 Bft)
31.01.2018 09:22 1,4 °C 87 % 1019,2 hPa 0,0 mm 2,8 km/h (1 Bft) NW 323 ° 0 min 0,000 mm 0,6 UV-I 86 W/m² -0,5 °C 1,4 °C 4,8 km/h (1 Bft)
31.01.2018 09:23 1,6 °C 87 % 1019,2 hPa 0,0 mm 2,8 km/h (1 Bft) NW 323 ° 0 min 0,000 mm 0,6 UV-I 86 W/m² -0,3 °C 1,6 °C 4,8 km/h (1 Bft)
31.01.2018 09:24 1,8 °C 86 % 1019,2 hPa 0,0 mm 0,0 km/h (0 Bft) NW 323 ° 0 min 0,000 mm 0,6 UV-I 88 W/m² -0,3 °C 1,8 °C 0,0 km/h (0 Bft)
31.01.2018 09:25 1,9 °C 85 % 1019,2 hPa 0,0 mm 1,6 km/h (1 Bft) N 5 ° 0 min 0,000 mm 0,6 UV-I 88 W/m² -0,3 °C 1,9 °C 4,8 km/h (1 Bft)
31.01.2018 09:26 2,1 °C 84 % 1019,2 hPa 0,0 mm 0,8 km/h (0 Bft) N 5 ° 0 min 0,000 mm 0,6 UV-I 88 W/m² -0,3 °C 2,1 °C 3,2 km/h (1 Bft)
31.01.2018 09:27 2,1 °C 84 % 1019,2 hPa 0,0 mm 0,3 km/h (0 Bft) N 5 ° 0 min 0,000 mm 0,6 UV-I 88 W/m² -0,3 °C 2,1 °C 1,6 km/h (1 Bft)
31.01.2018 09:28 2,2 °C 84 % 1019,1 hPa 0,0 mm 0,0 km/h (0 Bft) N 5 ° 0 min 0,000 mm 0,6 UV-I 90 W/m² -0,2 °C 2,2 °C 0,0 km/h (0 Bft)
31.01.2018 09:29 2,3 °C 83 % 1019,1 hPa 0,0 mm 0,6 km/h (0 Bft) N 5 ° 0 min 0,000 mm 0,6 UV-I 93 W/m² -0,3 °C 2,3 °C 3,2 km/h (1 Bft)
31.01.2018 09:30 2,3 °C 83 % 1019,1 hPa 0,0 mm 0,3 km/h (0 Bft) N 5 ° 0 min 0,000 mm 0,7 UV-I 97 W/m² -0,3 °C 2,3 °C 1,6 km/h (1 Bft)
31.01.2018 09:31 2,4 °C 83 % 1019,2 hPa 0,0 mm 0,0 km/h (0 Bft) N 5 ° 0 min 0,000 mm 0,7 UV-I 100 W/m² -0,2 °C 2,4 °C 0,0 km/h (0 Bft)
31.01.2018 09:32 2,4 °C 83 % 1019,2 hPa 0,0 mm 0,8 km/h (0 Bft) W-SW 244 ° 0 min 0,000 mm 0,7 UV-I 102 W/m² -0,2 °C 2,4 °C 3,2 km/h (1 Bft)
31.01.2018 09:33 2,5 °C 82 % 1019,2 hPa 0,0 mm 0,1 km/h (0 Bft) W-SW 244 ° 0 min 0,000 mm 0,7 UV-I 102 W/m² -0,3 °C 2,5 °C 1,6 km/h (1 Bft)
31.01.2018 09:34 2,5 °C 83 % 1019,2 hPa 0,0 mm 1,2 km/h (1 Bft) W-SW 244 ° 0 min 0,000 mm 0,7 UV-I 100 W/m² -0,1 °C 2,5 °C 3,2 km/h (1 Bft)
31.01.2018 09:35 2,6 °C 82 % 1019,2 hPa 0,0 mm 0,5 km/h (0 Bft) W-SW 244 ° 0 min 0,000 mm 0,7 UV-I 97 W/m² -0,2 °C 2,6 °C 1,6 km/h (1 Bft)
31.01.2018 09:36 2,6 °C 82 % 1019,2 hPa 0,0 mm 2,1 km/h (1 Bft) W-SW 247 ° 0 min 0,000 mm 0,7 UV-I 91 W/m² -0,2 °C 2,6 °C 4,8 km/h (1 Bft)
31.01.2018 09:37 2,7 °C 82 % 1019,2 hPa 0,0 mm 2,6 km/h (1 Bft) W-SW 249 ° 0 min 0,000 mm 0,7 UV-I 88 W/m² -0,1 °C 2,7 °C 3,2 km/h (1 Bft)
31.01.2018 09:38 2,8 °C 81 % 1019,2 hPa 0,0 mm 5,2 km/h (1 Bft) S-SW 195 ° 0 min 0,000 mm 0,7 UV-I 84 W/m² -0,1 °C 1,5 °C 8,0 km/h (2 Bft)
31.01.2018 09:39 2,9 °C 81 % 1019,2 hPa 0,0 mm 1,8 km/h (1 Bft) SW 221 ° 0 min 0,000 mm 0,7 UV-I 76 W/m² -0,0 °C 2,9 °C 4,8 km/h (1 Bft)
31.01.2018 09:40 3,0 °C 81 % 1019,2 hPa 0,0 mm 4,1 km/h (1 Bft) W-SW 252 ° 0 min 0,000 mm 0,7 UV-I 70 W/m² 0,1 °C 3,0 °C 4,8 km/h (1 Bft)
31.01.2018 09:41 3,0 °C 81 % 1019,2 hPa 0,0 mm 3,0 km/h (1 Bft) W-SW 252 ° 0 min 0,000 mm 0,7 UV-I 70 W/m² 0,1 °C 3,0 °C 3,2 km/h (1 Bft)
31.01.2018 09:42 3,1 °C 80 % 1019,2 hPa 0,0 mm 2,9 km/h (1 Bft) W-SW 252 ° 0 min 0,000 mm 0,7 UV-I 62 W/m² -0,0 °C 3,1 °C 3,2 km/h (1 Bft)
31.01.2018 09:43 3,1 °C 80 % 1019,1 hPa 0,0 mm 2,4 km/h (1 Bft) W-SW 252 ° 0 min 0,000 mm 0,0 UV-I 54 W/m² -0,0 °C 3,1 °C 3,2 km/h (1 Bft)
31.01.2018 09:44 3,1 °C 79 % 1019,1 hPa 0,0 mm 4,0 km/h (1 Bft) SW 224 ° 0 min 0,000 mm 0,0 UV-I 49 W/m² -0,2 °C 3,1 °C 6,4 km/h (2 Bft)
31.01.2018 09:45 3,1 °C 79 % 1019,2 hPa 0,0 mm 1,2 km/h (1 Bft) SW 227 ° 0 min 0,000 mm 0,0 UV-I 39 W/m² -0,2 °C 3,1 °C 4,8 km/h (1 Bft)
31.01.2018 09:46 3,1 °C 79 % 1019,2 hPa 0,0 mm 0,1 km/h (0 Bft) SW 227 ° 0 min 0,000 mm 0,0 UV-I 35 W/m² -0,2 °C 3,1 °C 1,6 km/h (1 Bft)
31.01.2018 09:47 2,9 °C 80 % 1019,1 hPa 0,0 mm 0,0 km/h (0 Bft) SW 227 ° 0 min 0,000 mm 0,0 UV-I 33 W/m² -0,2 °C 2,9 °C 0,0 km/h (0 Bft)
31.01.2018 09:48 2,9 °C 81 % 1019,1 hPa 0,0 mm 0,0 km/h (0 Bft) SW 227 ° 0 min 0,000 mm 0,0 UV-I 33 W/m² -0,0 °C 2,9 °C 0,0 km/h (0 Bft)
31.01.2018 09:49 2,8 °C 81 % 1019,1 hPa 0,0 mm 0,4 km/h (0 Bft) SW 227 ° 0 min 0,000 mm 0,0 UV-I 32 W/m² -0,1 °C 2,8 °C 1,6 km/h (1 Bft)
31.01.2018 09:50 2,8 °C 81 % 1019,1 hPa 0,0 mm 0,1 km/h (0 Bft) W 261 ° 0 min 0,000 mm 0,0 UV-I 30 W/m² -0,1 °C 2,8 °C 1,6 km/h (1 Bft)
31.01.2018 09:51 2,8 °C 81 % 1019,1 hPa 0,0 mm 2,0 km/h (1 Bft) W 266 ° 0 min 0,000 mm 0,0 UV-I 30 W/m² -0,1 °C 2,8 °C 3,2 km/h (1 Bft)
31.01.2018 09:52 2,7 °C 81 % 1019,1 hPa 0,0 mm 0,0 km/h (0 Bft) W 266 ° 0 min 0,000 mm 0,0 UV-I 30 W/m² -0,2 °C 2,7 °C 0,0 km/h (0 Bft)
31.01.2018 09:53 2,7 °C 81 % 1019,1 hPa 0,0 mm 0,0 km/h (0 Bft) W 266 ° 0 min 0,000 mm 0,0 UV-I 30 W/m² -0,2 °C 2,7 °C 0,0 km/h (0 Bft)
31.01.2018 09:54 2,7 °C 80 % 1019,0 hPa 0,0 mm 0,0 km/h (0 Bft) W 266 ° 0 min 0,000 mm 0,0 UV-I 30 W/m² -0,4 °C 2,7 °C 0,0 km/h (0 Bft)
31.01.2018 09:55 2,7 °C 80 % 1019,0 hPa 0,0 mm 0,0 km/h (0 Bft) W 266 ° 0 min 0,000 mm 0,0 UV-I 28 W/m² -0,4 °C 2,7 °C 0,0 km/h (0 Bft)
31.01.2018 09:56 2,6 °C 81 % 1019,0 hPa 0,0 mm 0,0 km/h (0 Bft) W 266 ° 0 min 0,000 mm 0,0 UV-I 30 W/m² -0,3 °C 2,6 °C 0,0 km/h (0 Bft)
31.01.2018 09:57 2,6 °C 81 % 1019,0 hPa 0,0 mm 0,5 km/h (0 Bft) W 266 ° 0 min 0,000 mm 0,0 UV-I 28 W/m² -0,3 °C 2,6 °C 1,6 km/h (1 Bft)
31.01.2018 09:58 2,6 °C 81 % 1019,0 hPa 0,0 mm 0,0 km/h (0 Bft) W 266 ° 0 min 0,000 mm 0,0 UV-I 28 W/m² -0,3 °C 2,6 °C 0,0 km/h (0 Bft)
31.01.2018 09:59 2,6 °C 81 % 1019,0 hPa 0,0 mm 0,0 km/h (0 Bft) W 266 ° 0 min 0,000 mm 0,0 UV-I 28 W/m² -0,3 °C 2,6 °C 0,0 km/h (0 Bft)
31.01.2018 10:00 2,6 °C 81 % 1019,0 hPa 0,0 mm 0,0 km/h (0 Bft) W 266 ° 0 min 0,000 mm 0,0 UV-I 26 W/m² -0,3 °C 2,6 °C 0,0 km/h (0 Bft)
31.01.2018 10:01 2,6 °C 81 % 1018,9 hPa 0,0 mm 0,0 km/h (0 Bft) W 266 ° 0 min 0,025 mm 0,0 UV-I 30 W/m² -0,3 °C 2,6 °C 0,0 km/h (0 Bft)
31.01.2018 10:02 2,6 °C 81 % 1019,0 hPa 0,0 mm 0,0 km/h (0 Bft) W 266 ° 0 min 0,000 mm 0,0 UV-I 35 W/m² -0,3 °C 2,6 °C 0,0 km/h (0 Bft)
31.01.2018 10:03 2,6 °C 81 % 1019,0 hPa 0,0 mm 0,0 km/h (0 Bft) W 266 ° 0 min 0,000 mm 0,0 UV-I 40 W/m² -0,3 °C 2,6 °C 0,0 km/h (0 Bft)
31.01.2018 10:04 2,6 °C 81 % 1018,9 hPa 0,0 mm 0,0 km/h (0 Bft) W 266 ° 0 min 0,000 mm 0,0 UV-I 44 W/m² -0,3 °C 2,6 °C 0,0 km/h (0 Bft)
31.01.2018 10:05 2,6 °C 81 % 1019,0 hPa 0,0 mm 0,0 km/h (0 Bft) W 266 ° 0 min 0,000 mm 0,0 UV-I 49 W/m² -0,3 °C 2,6 °C 0,0 km/h (0 Bft)
31.01.2018 10:06 2,7 °C 81 % 1018,9 hPa 0,0 mm 0,0 km/h (0 Bft) W 266 ° 0 min 0,000 mm 0,8 UV-I 60 W/m² -0,2 °C 2,7 °C 0,0 km/h (0 Bft)
31.01.2018 10:07 2,8 °C 81 % 1018,9 hPa 0,0 mm 0,0 km/h (0 Bft) W 266 ° 0 min 0,000 mm 0,9 UV-I 74 W/m² -0,1 °C 2,8 °C 0,0 km/h (0 Bft)
31.01.2018 10:08 2,8 °C 81 % 1018,9 hPa 0,0 mm 0,0 km/h (0 Bft) W 266 ° 0 min 0,000 mm 0,9 UV-I 102 W/m² -0,1 °C 2,8 °C 0,0 km/h (0 Bft)
31.01.2018 10:09 2,8 °C 81 % 1018,9 hPa 0,0 mm 0,0 km/h (0 Bft) W 266 ° 0 min 0,000 mm 0,9 UV-I 113 W/m² -0,1 °C 2,8 °C 0,0 km/h (0 Bft)
31.01.2018 10:10 2,9 °C 81 % 1018,9 hPa 0,0 mm 0,6 km/h (0 Bft) W 266 ° 0 min 0,000 mm 0,9 UV-I 120 W/m² -0,0 °C 2,9 °C 1,6 km/h (1 Bft)
31.01.2018 10:11 2,9 °C 81 % 1018,9 hPa 0,0 mm 0,1 km/h (0 Bft) W 266 ° 0 min 0,000 mm 0,9 UV-I 125 W/m² -0,0 °C 2,9 °C 1,6 km/h (1 Bft)
31.01.2018 10:12 2,9 °C 81 % 1018,9 hPa 0,0 mm 0,0 km/h (0 Bft) W 266 ° 0 min 0,000 mm 0,9 UV-I 125 W/m² -0,0 °C 2,9 °C 0,0 km/h (0 Bft)
31.01.2018 10:13 3,0 °C 81 % 1018,8 hPa 0,0 mm 0,0 km/h (0 Bft) W 266 ° 0 min 0,000 mm 0,9 UV-I 128 W/m² 0,1 °C 3,0 °C 0,0 km/h (0 Bft)
31.01.2018 10:14 3,0 °C 81 % 1018,8 hPa 0,0 mm 0,0 km/h (0 Bft) W 266 ° 0 min 0,000 mm 0,9 UV-I 121 W/m² 0,1 °C 3,0 °C 0,0 km/h (0 Bft)
31.01.2018 10:15 3,1 °C 81 % 1018,8 hPa 0,0 mm 0,0 km/h (0 Bft) W 266 ° 0 min 0,000 mm 0,9 UV-I 118 W/m² 0,2 °C 3,1 °C 0,0 km/h (0 Bft)
31.01.2018 10:16 3,2 °C 80 % 1018,8 hPa 0,0 mm 0,0 km/h (0 Bft) W 266 ° 0 min 0,000 mm 0,9 UV-I 118 W/m² 0,1 °C 3,2 °C 0,0 km/h (0 Bft)
31.01.2018 10:17 3,3 °C 80 % 1018,8 hPa 0,0 mm 0,0 km/h (0 Bft) W 266 ° 0 min 0,000 mm 0,9 UV-I 118 W/m² 0,2 °C 3,3 °C 0,0 km/h (0 Bft)
31.01.2018 10:18 3,4 °C 79 % 1018,8 hPa 0,0 mm 0,0 km/h (0 Bft) W 266 ° 0 min 0,000 mm 0,9 UV-I 120 W/m² 0,1 °C 3,4 °C 0,0 km/h (0 Bft)
31.01.2018 10:19 3,4 °C 79 % 1018,8 hPa 0,0 mm 0,0 km/h (0 Bft) W 266 ° 0 min 0,000 mm 0,9 UV-I 120 W/m² 0,1 °C 3,4 °C 0,0 km/h (0 Bft)
31.01.2018 10:20 3,6 °C 79 % 1018,7 hPa 0,0 mm 0,0 km/h (0 Bft) W 266 ° 0 min 0,000 mm 0,9 UV-I 128 W/m² 0,3 °C 3,6 °C 0,0 km/h (0 Bft)
31.01.2018 10:21 3,6 °C 79 % 1018,7 hPa 0,0 mm 0,0 km/h (0 Bft) W 266 ° 0 min 0,000 mm 0,9 UV-I 132 W/m² 0,3 °C 3,6 °C 0,0 km/h (0 Bft)
31.01.2018 10:22 3,7 °C 78 % 1018,7 hPa 0,0 mm 0,0 km/h (0 Bft) W 266 ° 0 min 0,000 mm 0,9 UV-I 134 W/m² 0,2 °C 3,7 °C 0,0 km/h (0 Bft)
31.01.2018 10:23 3,7 °C 78 % 1018,6 hPa 0,0 mm 0,0 km/h (0 Bft) W 266 ° 0 min 0,000 mm 0,9 UV-I 135 W/m² 0,2 °C 3,7 °C 0,0 km/h (0 Bft)
31.01.2018 10:24 3,8 °C 77 % 1018,6 hPa 0,0 mm 1,3 km/h (1 Bft) S 171 ° 0 min 0,000 mm 0,9 UV-I 135 W/m² 0,1 °C 3,8 °C 3,2 km/h (1 Bft)
31.01.2018 10:25 3,8 °C 77 % 1018,6 hPa 0,0 mm 4,7 km/h (1 Bft) SO 129 ° 0 min 0,000 mm 0,9 UV-I 134 W/m² 0,1 °C 2,8 °C 8,0 km/h (2 Bft)
31.01.2018 10:26 3,9 °C 77 % 1018,5 hPa 0,0 mm 0,9 km/h (0 Bft) SO 129 ° 0 min 0,000 mm 0,9 UV-I 137 W/m² 0,2 °C 3,9 °C 4,8 km/h (1 Bft)
31.01.2018 10:27 4,0 °C 76 % 1018,5 hPa 0,0 mm 0,0 km/h (0 Bft) SO 129 ° 0 min 0,000 mm 0,9 UV-I 141 W/m² 0,2 °C 4,0 °C 0,0 km/h (0 Bft)
31.01.2018 10:28 4,1 °C 77 % 1018,5 hPa 0,0 mm 1,7 km/h (1 Bft) NW 325 ° 0 min 0,000 mm 0,9 UV-I 144 W/m² 0,4 °C 4,1 °C 4,8 km/h (1 Bft)
31.01.2018 10:29 4,2 °C 75 % 1018,5 hPa 0,0 mm 0,0 km/h (0 Bft) NW 325 ° 0 min 0,000 mm 0,9 UV-I 144 W/m² 0,2 °C 4,2 °C 0,0 km/h (0 Bft)
31.01.2018 10:30 4,2 °C 75 % 1018,5 hPa 0,0 mm 0,0 km/h (0 Bft) NW 325 ° 0 min 0,000 mm 0,9 UV-I 142 W/m² 0,2 °C 4,2 °C 0,0 km/h (0 Bft)
31.01.2018 10:31 4,2 °C 76 % 1018,5 hPa 0,0 mm 0,0 km/h (0 Bft) NW 325 ° 0 min 0,000 mm 0,9 UV-I 142 W/m² 0,4 °C 4,2 °C 0,0 km/h (0 Bft)
31.01.2018 10:32 4,2 °C 76 % 1018,5 hPa 0,0 mm 0,0 km/h (0 Bft) NW 325 ° 0 min 0,000 mm 0,9 UV-I 141 W/m² 0,4 °C 4,2 °C 0,0 km/h (0 Bft)
31.01.2018 10:33 4,2 °C 75 % 1018,5 hPa 0,0 mm 0,0 km/h (0 Bft) NW 325 ° 0 min 0,000 mm 0,9 UV-I 144 W/m² 0,2 °C 4,2 °C 0,0 km/h (0 Bft)
31.01.2018 10:34 4,3 °C 76 % 1018,4 hPa 0,0 mm 1,5 km/h (1 Bft) N-NW 346 ° 0 min 0,000 mm 0,9 UV-I 149 W/m² 0,5 °C 4,3 °C 3,2 km/h (1 Bft)
31.01.2018 10:35 4,3 °C 75 % 1018,4 hPa 0,0 mm 3,0 km/h (1 Bft) O-SO 103 ° 0 min 0,000 mm 0,9 UV-I 149 W/m² 0,3 °C 4,3 °C 4,8 km/h (1 Bft)
31.01.2018 10:36 4,3 °C 75 % 1018,3 hPa 0,0 mm 3,2 km/h (1 Bft) O-SO 111 ° 0 min 0,000 mm 0,9 UV-I 155 W/m² 0,3 °C 4,3 °C 4,8 km/h (1 Bft)
31.01.2018 10:37 4,3 °C 75 % 1018,4 hPa 0,0 mm 1,4 km/h (1 Bft) O-SO 111 ° 0 min 0,000 mm 0,9 UV-I 155 W/m² 0,3 °C 4,3 °C 4,8 km/h (1 Bft)
31.01.2018 10:38 4,3 °C 74 % 1018,3 hPa 0,0 mm 0,0 km/h (0 Bft) O-SO 111 ° 0 min 0,000 mm 0,9 UV-I 156 W/m² 0,1 °C 4,3 °C 0,0 km/h (0 Bft)
31.01.2018 10:39 4,3 °C 75 % 1018,3 hPa 0,0 mm 0,0 km/h (0 Bft) O-SO 111 ° 0 min 0,000 mm 0,9 UV-I 155 W/m² 0,3 °C 4,3 °C 0,0 km/h (0 Bft)
31.01.2018 10:40 4,4 °C 75 % 1018,3 hPa 0,0 mm 0,0 km/h (0 Bft) O-SO 111 ° 0 min 0,000 mm 0,9 UV-I 153 W/m² 0,4 °C 4,4 °C 0,0 km/h (0 Bft)
31.01.2018 10:41 4,4 °C 74 % 1018,2 hPa 0,0 mm 0,0 km/h (0 Bft) O-SO 111 ° 0 min 0,000 mm 0,9 UV-I 149 W/m² 0,2 °C 4,4 °C 0,0 km/h (0 Bft)
31.01.2018 10:42 4,4 °C 75 % 1018,1 hPa 0,0 mm 0,9 km/h (0 Bft) O-SO 111 ° 0 min 0,000 mm 0,9 UV-I 146 W/m² 0,4 °C 4,4 °C 1,6 km/h (1 Bft)
31.01.2018 10:43 4,4 °C 75 % 1018,1 hPa 0,0 mm 2,2 km/h (1 Bft) O-SO 110 ° 0 min 0,000 mm 0,9 UV-I 144 W/m² 0,4 °C 4,4 °C 3,2 km/h (1 Bft)
31.01.2018 10:44 4,4 °C 75 % 1018,1 hPa 0,0 mm 0,0 km/h (0 Bft) O-SO 110 ° 0 min 0,000 mm 0,9 UV-I 146 W/m² 0,4 °C 4,4 °C 0,0 km/h (0 Bft)
31.01.2018 10:45 4,5 °C 75 % 1018,1 hPa 0,0 mm 0,0 km/h (0 Bft) O-SO 110 ° 0 min 0,000 mm 1,0 UV-I 149 W/m² 0,5 °C 4,5 °C 0,0 km/h (0 Bft)
31.01.2018 10:46 4,5 °C 75 % 1018,1 hPa 0,0 mm 0,2 km/h (0 Bft) O-SO 110 ° 0 min 0,000 mm 1,0 UV-I 155 W/m² 0,5 °C 4,5 °C 1,6 km/h (1 Bft)
31.01.2018 10:47 4,6 °C 75 % 1018,1 hPa 0,0 mm 1,1 km/h (1 Bft) O-SO 110 ° 0 min 0,000 mm 1,0 UV-I 158 W/m² 0,6 °C 4,6 °C 3,2 km/h (1 Bft)
31.01.2018 10:48 4,6 °C 75 % 1018,1 hPa 0,0 mm 0,1 km/h (0 Bft) O-SO 110 ° 0 min 0,000 mm 1,0 UV-I 158 W/m² 0,6 °C 4,6 °C 1,6 km/h (1 Bft)
31.01.2018 10:49 4,6 °C 74 % 1018,1 hPa 0,0 mm 0,8 km/h (0 Bft) O-SO 110 ° 0 min 0,000 mm 1,0 UV-I 149 W/m² 0,4 °C 4,6 °C 3,2 km/h (1 Bft)
31.01.2018 10:50 4,7 °C 74 % 1018,1 hPa 0,0 mm 2,3 km/h (1 Bft) O-SO 109 ° 0 min 0,000 mm 1,0 UV-I 149 W/m² 0,5 °C 4,7 °C 3,2 km/h (1 Bft)
31.01.2018 10:51 4,7 °C 75 % 1018,1 hPa 0,0 mm 0,8 km/h (0 Bft) O-SO 109 ° 0 min 0,000 mm 1,1 UV-I 155 W/m² 0,7 °C 4,7 °C 3,2 km/h (1 Bft)
31.01.2018 10:52 4,7 °C 76 % 1018,1 hPa 0,0 mm 0,9 km/h (0 Bft) O-SO 109 ° 0 min 0,000 mm 1,1 UV-I 162 W/m² 0,8 °C 4,7 °C 3,2 km/h (1 Bft)
31.01.2018 10:53 4,7 °C 75 % 1018,1 hPa 0,0 mm 0,5 km/h (0 Bft) O-SO 109 ° 0 min 0,000 mm 1,1 UV-I 169 W/m² 0,7 °C 4,7 °C 3,2 km/h (1 Bft)
31.01.2018 10:54 4,8 °C 73 % 1018,2 hPa 0,0 mm 0,0 km/h (0 Bft) O-SO 109 ° 0 min 0,000 mm 1,1 UV-I 169 W/m² 0,4 °C 4,8 °C 0,0 km/h (0 Bft)
31.01.2018 10:55 4,8 °C 74 % 1018,2 hPa 0,0 mm 0,0 km/h (0 Bft) O-SO 109 ° 0 min 0,000 mm 1,1 UV-I 151 W/m² 0,6 °C 4,8 °C 0,0 km/h (0 Bft)
31.01.2018 10:56 4,8 °C 73 % 1018,1 hPa 0,0 mm 0,0 km/h (0 Bft) O-SO 109 ° 0 min 0,000 mm 1,1 UV-I 137 W/m² 0,4 °C 4,8 °C 0,0 km/h (0 Bft)
31.01.2018 10:57 4,8 °C 72 % 1018,1 hPa 0,0 mm 0,0 km/h (0 Bft) O-SO 109 ° 0 min 0,000 mm 1,0 UV-I 121 W/m² 0,2 °C 4,8 °C 0,0 km/h (0 Bft)
31.01.2018 10:58 4,8 °C 72 % 1018,2 hPa 0,0 mm 1,3 km/h (1 Bft) O-SO 109 ° 0 min 0,000 mm 1,0 UV-I 109 W/m² 0,2 °C 4,8 °C 3,2 km/h (1 Bft)
31.01.2018 10:59 4,8 °C 72 % 1018,2 hPa 0,0 mm 0,3 km/h (0 Bft) O-SO 109 ° 0 min 0,000 mm 1,0 UV-I 98 W/m² 0,2 °C 4,8 °C 1,6 km/h (1 Bft)
31.01.2018 11:00 4,8 °C 72 % 1018,1 hPa 0,0 mm 0,0 km/h (0 Bft) O-SO 109 ° 0 min 0,000 mm 1,0 UV-I 86 W/m² 0,2 °C 4,8 °C 0,0 km/h (0 Bft)
31.01.2018 11:01 4,8 °C 72 % 1018,0 hPa 0,0 mm 0,4 km/h (0 Bft) O-SO 109 ° 0 min 0,051 mm 1,0 UV-I 72 W/m² 0,2 °C 4,8 °C 3,2 km/h (1 Bft)
31.01.2018 11:02 4,8 °C 72 % 1018,0 hPa 0,0 mm 1,1 km/h (1 Bft) O-SO 109 ° 0 min 0,000 mm 1,0 UV-I 72 W/m² 0,2 °C 4,8 °C 3,2 km/h (1 Bft)
31.01.2018 11:03 4,7 °C 73 % 1018,0 hPa 0,0 mm 0,0 km/h (0 Bft) O-SO 109 ° 0 min 0,000 mm 1,1 UV-I 72 W/m² 0,3 °C 4,7 °C 0,0 km/h (0 Bft)
31.01.2018 11:04 4,7 °C 73 % 1018,0 hPa 0,0 mm 0,0 km/h (0 Bft) O-SO 109 ° 0 min 0,000 mm 1,1 UV-I 70 W/m² 0,3 °C 4,7 °C 0,0 km/h (0 Bft)
31.01.2018 11:05 4,6 °C 72 % 1018,0 hPa 0,0 mm 0,0 km/h (0 Bft) O-SO 109 ° 0 min 0,000 mm 1,1 UV-I 67 W/m² -0,0 °C 4,6 °C 0,0 km/h (0 Bft)
31.01.2018 11:06 4,6 °C 73 % 1017,9 hPa 0,0 mm 0,7 km/h (0 Bft) O-SO 109 ° 0 min 0,000 mm 1,1 UV-I 63 W/m² 0,2 °C 4,6 °C 1,6 km/h (1 Bft)
31.01.2018 11:07 4,6 °C 74 % 1017,9 hPa 0,0 mm 0,5 km/h (0 Bft) O-SO 109 ° 0 min 0,000 mm 1,1 UV-I 54 W/m² 0,4 °C 4,6 °C 1,6 km/h (1 Bft)
31.01.2018 11:08 4,4 °C 74 % 1017,8 hPa 0,0 mm 1,4 km/h (1 Bft) O-SO 109 ° 0 min 0,000 mm 0,0 UV-I 47 W/m² 0,2 °C 4,4 °C 1,6 km/h (1 Bft)
31.01.2018 11:09 4,3 °C 75 % 1017,7 hPa 0,0 mm 1,7 km/h (1 Bft) O-NO 63 ° 0 min 0,000 mm 0,0 UV-I 40 W/m² 0,3 °C 4,3 °C 3,2 km/h (1 Bft)
31.01.2018 11:10 4,2 °C 76 % 1017,7 hPa 0,0 mm 0,5 km/h (0 Bft) O-NO 63 ° 0 min 0,000 mm 0,0 UV-I 33 W/m² 0,4 °C 4,2 °C 1,6 km/h (1 Bft)
31.01.2018 11:11 4,2 °C 77 % 1017,7 hPa 0,0 mm 0,0 km/h (0 Bft) O-NO 63 ° 0 min 0,000 mm 0,0 UV-I 32 W/m² 0,5 °C 4,2 °C 0,0 km/h (0 Bft)
31.01.2018 11:12 4,1 °C 76 % 1017,7 hPa 0,0 mm 0,0 km/h (0 Bft) O-NO 63 ° 0 min 0,000 mm 0,0 UV-I 32 W/m² 0,3 °C 4,1 °C 0,0 km/h (0 Bft)
31.01.2018 11:13 4,0 °C 77 % 1017,6 hPa 0,0 mm 0,0 km/h (0 Bft) O-NO 63 ° 0 min 0,000 mm 0,0 UV-I 30 W/m² 0,3 °C 4,0 °C 0,0 km/h (0 Bft)
31.01.2018 11:14 3,9 °C 77 % 1017,6 hPa 0,0 mm 0,0 km/h (0 Bft) O-NO 63 ° 0 min 0,000 mm 0,0 UV-I 30 W/m² 0,2 °C 3,9 °C 0,0 km/h (0 Bft)
31.01.2018 11:15 3,8 °C 77 % 1017,5 hPa 0,0 mm 0,0 km/h (0 Bft) O-NO 63 ° 0 min 0,000 mm 0,0 UV-I 30 W/m² 0,1 °C 3,8 °C 0,0 km/h (0 Bft)
31.01.2018 11:16 3,7 °C 78 % 1017,5 hPa 0,0 mm 0,0 km/h (0 Bft) O-NO 63 ° 0 min 0,000 mm 0,0 UV-I 33 W/m² 0,2 °C 3,7 °C 0,0 km/h (0 Bft)
31.01.2018 11:17 3,7 °C 78 % 1017,5 hPa 0,0 mm 0,0 km/h (0 Bft) O-NO 63 ° 0 min 0,000 mm 0,0 UV-I 35 W/m² 0,2 °C 3,7 °C 0,0 km/h (0 Bft)
31.01.2018 11:18 3,7 °C 78 % 1017,4 hPa 0,0 mm 1,5 km/h (1 Bft) O-NO 63 ° 0 min 0,000 mm 0,0 UV-I 39 W/m² 0,2 °C 3,7 °C 3,2 km/h (1 Bft)
31.01.2018 11:19 3,7 °C 78 % 1017,4 hPa 0,0 mm 3,5 km/h (1 Bft) O-SO 111 ° 0 min 0,000 mm 0,0 UV-I 44 W/m² 0,2 °C 3,7 °C 6,4 km/h (2 Bft)
31.01.2018 11:20 3,7 °C 78 % 1017,4 hPa 0,0 mm 3,3 km/h (1 Bft) O 88 ° 0 min 0,000 mm 0,0 UV-I 53 W/m² 0,2 °C 3,7 °C 4,8 km/h (1 Bft)
31.01.2018 11:21 3,7 °C 79 % 1017,4 hPa 0,0 mm 0,6 km/h (0 Bft) O 88 ° 0 min 0,000 mm 1,2 UV-I 65 W/m² 0,4 °C 3,7 °C 1,6 km/h (1 Bft)
31.01.2018 11:22 3,8 °C 78 % 1017,4 hPa 0,0 mm 3,3 km/h (1 Bft) O-NO 67 ° 0 min 0,000 mm 1,2 UV-I 77 W/m² 0,3 °C 3,8 °C 4,8 km/h (1 Bft)
31.01.2018 11:23 3,9 °C 78 % 1017,3 hPa 0,0 mm 2,9 km/h (1 Bft) O-NO 65 ° 0 min 0,000 mm 1,3 UV-I 91 W/m² 0,4 °C 3,9 °C 4,8 km/h (1 Bft)
31.01.2018 11:24 3,9 °C 78 % 1017,3 hPa 0,0 mm 1,0 km/h (0 Bft) O-NO 65 ° 0 min 0,000 mm 1,3 UV-I 102 W/m² 0,4 °C 3,9 °C 3,2 km/h (1 Bft)
31.01.2018 11:25 4,1 °C 78 % 1017,3 hPa 0,0 mm 0,0 km/h (0 Bft) O-NO 65 ° 0 min 0,000 mm 1,2 UV-I 97 W/m² 0,6 °C 4,1 °C 0,0 km/h (0 Bft)
31.01.2018 11:26 4,2 °C 78 % 1017,3 hPa 0,0 mm 0,0 km/h (0 Bft) O-NO 65 ° 0 min 0,000 mm 1,2 UV-I 90 W/m² 0,7 °C 4,2 °C 0,0 km/h (0 Bft)
31.01.2018 11:27 4,2 °C 77 % 1017,3 hPa 0,0 mm 3,8 km/h (1 Bft) O-NO 64 ° 0 min 0,000 mm 1,2 UV-I 83 W/m² 0,5 °C 4,2 °C 6,4 km/h (2 Bft)
31.01.2018 11:28 4,2 °C 77 % 1017,2 hPa 0,0 mm 5,6 km/h (1 Bft) O 79 ° 0 min 0,000 mm 1,2 UV-I 72 W/m² 0,5 °C 2,9 °C 8,0 km/h (2 Bft)
31.01.2018 11:29 4,3 °C 77 % 1017,2 hPa 0,0 mm 6,2 km/h (2 Bft) O-NO 73 ° 0 min 0,000 mm 1,1 UV-I 72 W/m² 0,6 °C 2,9 °C 9,7 km/h (2 Bft)
31.01.2018 11:30 4,4 °C 76 % 1017,2 hPa 0,0 mm 6,0 km/h (2 Bft) NO 53 ° 0 min 0,000 mm 0,0 UV-I 42 W/m² 0,5 °C 3,0 °C 8,0 km/h (2 Bft)
31.01.2018 11:31 4,5 °C 76 % 1017,1 hPa 0,0 mm 4,2 km/h (1 Bft) NO 52 ° 0 min 0,000 mm 0,0 UV-I 37 W/m² 0,6 °C 4,5 °C 6,4 km/h (2 Bft)
31.01.2018 11:32 4,5 °C 77 % 1017,1 hPa 0,0 mm 3,6 km/h (1 Bft) O-NO 58 ° 0 min 0,000 mm 0,0 UV-I 39 W/m² 0,8 °C 4,5 °C 4,8 km/h (1 Bft)
31.01.2018 11:33 4,4 °C 77 % 1017,0 hPa 0,0 mm 1,6 km/h (1 Bft) O-NO 58 ° 0 min 0,000 mm 0,0 UV-I 44 W/m² 0,7 °C 4,4 °C 3,2 km/h (1 Bft)
31.01.2018 11:34 4,4 °C 77 % 1017,1 hPa 0,0 mm 0,6 km/h (0 Bft) O-NO 58 ° 0 min 0,000 mm 0,0 UV-I 44 W/m² 0,7 °C 4,4 °C 3,2 km/h (1 Bft)
31.01.2018 11:35 4,4 °C 77 % 1017,0 hPa 0,0 mm 2,3 km/h (1 Bft) O-NO 58 ° 0 min 0,000 mm 0,0 UV-I 40 W/m² 0,7 °C 4,4 °C 4,8 km/h (1 Bft)
31.01.2018 11:36 4,4 °C 76 % 1017,0 hPa 0,0 mm 1,0 km/h (0 Bft) O-NO 58 ° 0 min 0,000 mm 0,0 UV-I 33 W/m² 0,5 °C 4,4 °C 3,2 km/h (1 Bft)
31.01.2018 11:37 4,4 °C 76 % 1017,0 hPa 0,0 mm 3,2 km/h (1 Bft) O-NO 71 ° 0 min 0,000 mm 0,0 UV-I 30 W/m² 0,5 °C 4,4 °C 4,8 km/h (1 Bft)
31.01.2018 11:38 4,4 °C 77 % 1016,9 hPa 0,0 mm 5,1 km/h (1 Bft) O-NO 78 ° 0 min 0,000 mm 0,0 UV-I 28 W/m² 0,7 °C 3,4 °C 6,4 km/h (2 Bft)
31.01.2018 11:39 4,3 °C 77 % 1016,9 hPa 0,0 mm 3,5 km/h (1 Bft) O-NO 78 ° 0 min 0,000 mm 0,0 UV-I 28 W/m² 0,6 °C 4,3 °C 6,4 km/h (2 Bft)
31.01.2018 11:40 4,3 °C 78 % 1016,8 hPa 0,0 mm 5,1 km/h (1 Bft) O-NO 64 ° 0 min 0,000 mm 0,0 UV-I 26 W/m² 0,8 °C 3,2 °C 6,4 km/h (2 Bft)
31.01.2018 11:41 4,2 °C 79 % 1016,8 hPa 0,0 mm 3,7 km/h (1 Bft) NO 44 ° 0 min 0,000 mm 0,0 UV-I 26 W/m² 0,9 °C 4,2 °C 6,4 km/h (2 Bft)
31.01.2018 11:42 4,2 °C 78 % 1016,8 hPa 0,0 mm 1,8 km/h (1 Bft) NO 44 ° 0 min 0,000 mm 0,0 UV-I 26 W/m² 0,7 °C 4,2 °C 3,2 km/h (1 Bft)
31.01.2018 11:43 4,3 °C 77 % 1016,8 hPa 0,0 mm 0,4 km/h (0 Bft) NO 44 ° 0 min 0,000 mm 0,0 UV-I 26 W/m² 0,6 °C 4,3 °C 3,2 km/h (1 Bft)
31.01.2018 11:44 4,4 °C 77 % 1016,7 hPa 0,0 mm 0,0 km/h (0 Bft) NO 44 ° 0 min 0,000 mm 0,0 UV-I 26 W/m² 0,7 °C 4,4 °C 0,0 km/h (0 Bft)
31.01.2018 11:45 4,5 °C 76 % 1016,7 hPa 0,0 mm 0,0 km/h (0 Bft) NO 44 ° 0 min 0,000 mm 0,0 UV-I 26 W/m² 0,6 °C 4,5 °C 0,0 km/h (0 Bft)
31.01.2018 11:46 4,7 °C 76 % 1016,7 hPa 0,0 mm 0,0 km/h (0 Bft) NO 44 ° 0 min 0,000 mm 0,0 UV-I 26 W/m² 0,8 °C 4,7 °C 0,0 km/h (0 Bft)
31.01.2018 11:47 4,8 °C 74 % 1016,7 hPa 0,0 mm 1,8 km/h (1 Bft) NO 44 ° 0 min 0,000 mm 0,0 UV-I 26 W/m² 0,6 °C 4,8 °C 6,4 km/h (2 Bft)
31.01.2018 11:48 4,9 °C 74 % 1016,6 hPa 0,0 mm 4,0 km/h (1 Bft) NO 44 ° 0 min 0,000 mm 0,0 UV-I 26 W/m² 0,7 °C 4,9 °C 4,8 km/h (1 Bft)
31.01.2018 11:49 4,8 °C 75 % 1016,5 hPa 0,0 mm 4,2 km/h (1 Bft) O 81 ° 0 min 0,000 mm 0,0 UV-I 26 W/m² 0,8 °C 4,8 °C 6,4 km/h (2 Bft)
31.01.2018 11:50 4,8 °C 76 % 1016,5 hPa 0,0 mm 4,0 km/h (1 Bft) O 81 ° 0 min 0,000 mm 0,0 UV-I 26 W/m² 0,9 °C 4,8 °C 4,8 km/h (1 Bft)
31.01.2018 11:51 4,7 °C 76 % 1016,4 hPa 0,0 mm 3,6 km/h (1 Bft) O 81 ° 0 min 0,000 mm 0,0 UV-I 26 W/m² 0,8 °C 4,7 °C 4,8 km/h (1 Bft)
31.01.2018 11:52 4,6 °C 76 % 1016,4 hPa 0,0 mm 3,2 km/h (1 Bft) O-NO 59 ° 0 min 0,000 mm 0,0 UV-I 26 W/m² 0,7 °C 4,6 °C 4,8 km/h (1 Bft)
31.01.2018 11:53 4,7 °C 76 % 1016,4 hPa 0,0 mm 3,6 km/h (1 Bft) NO 55 ° 0 min 0,000 mm 0,0 UV-I 26 W/m² 0,8 °C 4,7 °C 4,8 km/h (1 Bft)
31.01.2018 11:54 4,7 °C 76 % 1016,3 hPa 0,0 mm 1,6 km/h (1 Bft) O-NO 59 ° 0 min 0,000 mm 0,0 UV-I 26 W/m² 0,8 °C 4,7 °C 3,2 km/h (1 Bft)
31.01.2018 11:55 4,8 °C 76 % 1016,3 hPa 0,0 mm 0,0 km/h (0 Bft) O-NO 59 ° 0 min 0,000 mm 0,0 UV-I 26 W/m² 0,9 °C 4,8 °C 0,0 km/h (0 Bft)
31.01.2018 11:56 4,9 °C 75 % 1016,3 hPa 0,0 mm 0,0 km/h (0 Bft) O-NO 59 ° 0 min 0,000 mm 0,0 UV-I 26 W/m² 0,8 °C 4,9 °C 0,0 km/h (0 Bft)
31.01.2018 11:57 4,9 °C 74 % 1016,3 hPa 0,0 mm 0,8 km/h (0 Bft) O-NO 59 ° 0 min 0,000 mm 0,0 UV-I 26 W/m² 0,7 °C 4,9 °C 3,2 km/h (1 Bft)
31.01.2018 11:58 5,0 °C 74 % 1016,3 hPa 0,0 mm 1,8 km/h (1 Bft) O-NO 59 ° 0 min 0,000 mm 0,0 UV-I 26 W/m² 0,8 °C 5,0 °C 3,2 km/h (1 Bft)
31.01.2018 11:59 5,1 °C 74 % 1016,2 hPa 0,0 mm 0,2 km/h (0 Bft) O-NO 59 ° 0 min 0,000 mm 0,0 UV-I 26 W/m² 0,9 °C 5,1 °C 1,6 km/h (1 Bft)
31.01.2018 12:00 5,1 °C 74 % 1016,2 hPa 0,0 mm 0,3 km/h (0 Bft) O-NO 59 ° 0 min 0,000 mm 0,0 UV-I 26 W/m² 0,9 °C 5,1 °C 1,6 km/h (1 Bft)
31.01.2018 12:01 5,1 °C 74 % 1016,2 hPa 0,0 mm 0,8 km/h (0 Bft) O-NO 59 ° 0 min 0,026 mm 0,0 UV-I 26 W/m² 0,9 °C 5,1 °C 3,2 km/h (1 Bft)
31.01.2018 12:02 5,1 °C 74 % 1016,1 hPa 0,0 mm 4,1 km/h (1 Bft) O-NO 59 ° 0 min 0,000 mm 0,0 UV-I 26 W/m² 0,9 °C 5,1 °C 6,4 km/h (2 Bft)
31.01.2018 12:03 5,1 °C 74 % 1016,1 hPa 0,0 mm 3,3 km/h (1 Bft) O-NO 59 ° 0 min 0,000 mm 0,0 UV-I 26 W/m² 0,9 °C 5,1 °C 6,4 km/h (2 Bft)
31.01.2018 12:04 5,1 °C 74 % 1016,1 hPa 0,0 mm 3,7 km/h (1 Bft) O-NO 63 ° 0 min 0,000 mm 0,0 UV-I 26 W/m² 0,9 °C 5,1 °C 6,4 km/h (2 Bft)
31.01.2018 12:05 5,0 °C 74 % 1016,1 hPa 0,0 mm 2,6 km/h (1 Bft) O-NO 63 ° 0 min 0,000 mm 0,0 UV-I 26 W/m² 0,8 °C 5,0 °C 4,8 km/h (1 Bft)
31.01.2018 12:06 5,0 °C 74 % 1016,1 hPa 0,0 mm 1,1 km/h (1 Bft) O-NO 63 ° 0 min 0,000 mm 0,0 UV-I 26 W/m² 0,8 °C 5,0 °C 3,2 km/h (1 Bft)
31.01.2018 12:07 5,1 °C 73 % 1016,0 hPa 0,0 mm 2,7 km/h (1 Bft) O-NO 63 ° 0 min 0,000 mm 0,0 UV-I 26 W/m² 0,7 °C 5,1 °C 4,8 km/h (1 Bft)
31.01.2018 12:08 5,1 °C 73 % 1015,9 hPa 0,0 mm 0,5 km/h (0 Bft) O-NO 63 ° 0 min 0,000 mm 0,0 UV-I 26 W/m² 0,7 °C 5,1 °C 1,6 km/h (1 Bft)
31.01.2018 12:09 5,2 °C 72 % 1015,9 hPa 0,0 mm 0,0 km/h (0 Bft) O-NO 63 ° 0 min 0,000 mm 0,0 UV-I 26 W/m² 0,6 °C 5,2 °C 0,0 km/h (0 Bft)
31.01.2018 12:10 5,3 °C 72 % 1016,0 hPa 0,0 mm 0,1 km/h (0 Bft) O-NO 63 ° 0 min 0,000 mm 0,0 UV-I 26 W/m² 0,7 °C 5,3 °C 1,6 km/h (1 Bft)
31.01.2018 12:11 5,4 °C 72 % 1015,9 hPa 0,0 mm 1,0 km/h (0 Bft) O-NO 63 ° 0 min 0,000 mm 0,0 UV-I 26 W/m² 0,8 °C 5,4 °C 3,2 km/h (1 Bft)
31.01.2018 12:12 5,5 °C 72 % 1015,9 hPa 0,0 mm 1,4 km/h (1 Bft) O-NO 63 ° 0 min 0,000 mm 0,0 UV-I 26 W/m² 0,9 °C 5,5 °C 3,2 km/h (1 Bft)
31.01.2018 12:13 5,6 °C 72 % 1015,8 hPa 0,0 mm 0,8 km/h (0 Bft) O-NO 63 ° 0 min 0,000 mm 0,0 UV-I 26 W/m² 1,0 °C 5,6 °C 3,2 km/h (1 Bft)
31.01.2018 12:14 5,6 °C 71 % 1015,7 hPa 0,0 mm 0,1 km/h (0 Bft) O-NO 63 ° 0 min 0,000 mm 0,0 UV-I 26 W/m² 0,8 °C 5,6 °C 1,6 km/h (1 Bft)
31.01.2018 12:15 5,7 °C 71 % 1015,7 hPa 0,0 mm 0,0 km/h (0 Bft) O-NO 63 ° 0 min 0,000 mm 0,0 UV-I 26 W/m² 0,9 °C 5,7 °C 0,0 km/h (0 Bft)
31.01.2018 12:16 5,7 °C 71 % 1015,8 hPa 0,0 mm 0,0 km/h (0 Bft) O-NO 63 ° 0 min 0,000 mm 0,0 UV-I 26 W/m² 0,9 °C 5,7 °C 0,0 km/h (0 Bft)
31.01.2018 12:17 5,8 °C 70 % 1015,7 hPa 0,0 mm 0,7 km/h (0 Bft) O-NO 63 ° 0 min 0,000 mm 0,0 UV-I 26 W/m² 0,8 °C 5,8 °C 3,2 km/h (1 Bft)
31.01.2018 12:18 5,8 °C 70 % 1015,6 hPa 0,0 mm 1,5 km/h (1 Bft) O-NO 63 ° 0 min 0,000 mm 0,0 UV-I 26 W/m² 0,8 °C 5,8 °C 3,2 km/h (1 Bft)
31.01.2018 12:19 5,8 °C 70 % 1015,6 hPa 0,0 mm 0,0 km/h (0 Bft) O-NO 63 ° 0 min 0,000 mm 0,0 UV-I 26 W/m² 0,8 °C 5,8 °C 0,0 km/h (0 Bft)
31.01.2018 12:20 5,8 °C 69 % 1015,6 hPa 0,0 mm 0,0 km/h (0 Bft) O-NO 63 ° 0 min 0,000 mm 0,0 UV-I 26 W/m² 0,6 °C 5,8 °C 0,0 km/h (0 Bft)
31.01.2018 12:21 5,9 °C 69 % 1015,5 hPa 0,0 mm 0,0 km/h (0 Bft) O-NO 63 ° 0 min 0,000 mm 0,0 UV-I 26 W/m² 0,7 °C 5,9 °C 0,0 km/h (0 Bft)
31.01.2018 12:22 5,9 °C 69 % 1015,5 hPa 0,0 mm 0,3 km/h (0 Bft) O-NO 63 ° 0 min 0,000 mm 0,0 UV-I 26 W/m² 0,7 °C 5,9 °C 1,6 km/h (1 Bft)
31.01.2018 12:23 5,8 °C 70 % 1015,5 hPa 0,0 mm 2,5 km/h (1 Bft) O-NO 62 ° 0 min 0,000 mm 0,0 UV-I 26 W/m² 0,8 °C 5,8 °C 4,8 km/h (1 Bft)
31.01.2018 12:24 5,8 °C 70 % 1015,4 hPa 0,0 mm 1,5 km/h (1 Bft) O-NO 62 ° 0 min 0,000 mm 0,0 UV-I 26 W/m² 0,8 °C 5,8 °C 3,2 km/h (1 Bft)
31.01.2018 12:25 5,8 °C 70 % 1015,4 hPa 0,0 mm 0,5 km/h (0 Bft) O-NO 62 ° 0 min 0,000 mm 0,0 UV-I 26 W/m² 0,8 °C 5,8 °C 1,6 km/h (1 Bft)
31.01.2018 12:26 5,8 °C 70 % 1015,4 hPa 0,0 mm 0,2 km/h (0 Bft) O-NO 62 ° 0 min 0,000 mm 0,0 UV-I 26 W/m² 0,8 °C 5,8 °C 1,6 km/h (1 Bft)
31.01.2018 12:27 5,8 °C 70 % 1015,3 hPa 0,0 mm 0,3 km/h (0 Bft) O-NO 62 ° 0 min 0,000 mm 0,0 UV-I 26 W/m² 0,8 °C 5,8 °C 1,6 km/h (1 Bft)
31.01.2018 12:28 5,8 °C 70 % 1015,3 hPa 0,0 mm 1,3 km/h (1 Bft) O-NO 62 ° 0 min 0,000 mm 0,0 UV-I 28 W/m² 0,8 °C 5,8 °C 3,2 km/h (1 Bft)
31.01.2018 12:29 5,8 °C 70 % 1015,3 hPa 0,0 mm 1,0 km/h (0 Bft) O-NO 63 ° 0 min 0,000 mm 0,0 UV-I 26 W/m² 0,8 °C 5,8 °C 1,6 km/h (1 Bft)
31.01.2018 12:30 5,8 °C 70 % 1015,2 hPa 0,0 mm 2,5 km/h (1 Bft) O-NO 62 ° 0 min 0,000 mm 0,0 UV-I 26 W/m² 0,8 °C 5,8 °C 3,2 km/h (1 Bft)
31.01.2018 12:31 5,9 °C 70 % 1015,2 hPa 0,0 mm 1,7 km/h (1 Bft) O-NO 63 ° 0 min 0,000 mm 0,0 UV-I 26 W/m² 0,9 °C 5,9 °C 3,2 km/h (1 Bft)
31.01.2018 12:32 5,9 °C 69 % 1015,2 hPa 0,0 mm 0,0 km/h (0 Bft) O-NO 63 ° 0 min 0,000 mm 0,0 UV-I 26 W/m² 0,7 °C 5,9 °C 0,0 km/h (0 Bft)
31.01.2018 12:33 6,0 °C 69 % 1015,2 hPa 0,0 mm 0,4 km/h (0 Bft) O-NO 62 ° 0 min 0,000 mm 0,0 UV-I 26 W/m² 0,8 °C 6,0 °C 1,6 km/h (1 Bft)
31.01.2018 12:34 6,1 °C 69 % 1015,2 hPa 0,0 mm 0,0 km/h (0 Bft) O-NO 62 ° 0 min 0,000 mm 0,0 UV-I 26 W/m² 0,8 °C 6,1 °C 0,0 km/h (0 Bft)
31.01.2018 12:35 6,1 °C 69 % 1015,2 hPa 0,0 mm 0,0 km/h (0 Bft) O-NO 62 ° 0 min 0,000 mm 0,0 UV-I 26 W/m² 0,8 °C 6,1 °C 0,0 km/h (0 Bft)
31.01.2018 12:36 6,1 °C 69 % 1015,1 hPa 0,0 mm 0,0 km/h (0 Bft) O-NO 63 ° 0 min 0,000 mm 0,0 UV-I 26 W/m² 0,8 °C 6,1 °C 0,0 km/h (0 Bft)
31.01.2018 12:37 6,1 °C 69 % 1015,1 hPa 0,0 mm 0,0 km/h (0 Bft) O-NO 63 ° 0 min 0,000 mm 0,0 UV-I 26 W/m² 0,8 °C 6,1 °C 0,0 km/h (0 Bft)
31.01.2018 12:38 6,1 °C 69 % 1015,0 hPa 0,0 mm 0,0 km/h (0 Bft) O-NO 62 ° 0 min 0,000 mm 0,0 UV-I 26 W/m² 0,8 °C 6,1 °C 0,0 km/h (0 Bft)
31.01.2018 12:39 6,1 °C 68 % 1015,0 hPa 0,0 mm 0,0 km/h (0 Bft) O-NO 63 ° 0 min 0,000 mm 0,0 UV-I 26 W/m² 0,6 °C 6,1 °C 0,0 km/h (0 Bft)
31.01.2018 12:40 6,2 °C 68 % 1015,0 hPa 0,0 mm 0,0 km/h (0 Bft) O-NO 62 ° 0 min 0,000 mm 0,0 UV-I 26 W/m² 0,7 °C 6,2 °C 0,0 km/h (0 Bft)
31.01.2018 12:41 6,2 °C 68 % 1015,0 hPa 0,0 mm 0,0 km/h (0 Bft) O-NO 63 ° 0 min 0,000 mm 0,0 UV-I 26 W/m² 0,7 °C 6,2 °C 0,0 km/h (0 Bft)
31.01.2018 12:42 6,3 °C 67 % 1014,9 hPa 0,0 mm 0,0 km/h (0 Bft) O-NO 62 ° 0 min 0,000 mm 0,0 UV-I 28 W/m² 0,6 °C 6,3 °C 0,0 km/h (0 Bft)
31.01.2018 12:43 6,4 °C 67 % 1014,9 hPa 0,0 mm 2,5 km/h (1 Bft) O-NO 62 ° 0 min 0,000 mm 0,0 UV-I 28 W/m² 0,7 °C 6,4 °C 4,8 km/h (1 Bft)
31.01.2018 12:44 6,4 °C 67 % 1014,9 hPa 0,0 mm 2,1 km/h (1 Bft) O-NO 62 ° 0 min 0,000 mm 0,0 UV-I 26 W/m² 0,7 °C 6,4 °C 4,8 km/h (1 Bft)
31.01.2018 12:45 6,4 °C 67 % 1014,8 hPa 0,0 mm 2,5 km/h (1 Bft) O-NO 61 ° 0 min 0,000 mm 0,0 UV-I 26 W/m² 0,7 °C 6,4 °C 4,8 km/h (1 Bft)
31.01.2018 12:46 6,4 °C 67 % 1014,7 hPa 0,0 mm 0,1 km/h (0 Bft) O-NO 61 ° 0 min 0,000 mm 0,0 UV-I 26 W/m² 0,7 °C 6,4 °C 1,6 km/h (1 Bft)
31.01.2018 12:47 6,4 °C 67 % 1014,7 hPa 0,0 mm 1,7 km/h (1 Bft) O-NO 61 ° 0 min 0,000 mm 0,0 UV-I 26 W/m² 0,7 °C 6,4 °C 3,2 km/h (1 Bft)
31.01.2018 12:48 6,4 °C 67 % 1014,6 hPa 0,0 mm 1,6 km/h (1 Bft) O-NO 61 ° 0 min 0,000 mm 0,0 UV-I 26 W/m² 0,7 °C 6,4 °C 3,2 km/h (1 Bft)
31.01.2018 12:49 6,4 °C 66 % 1014,6 hPa 0,0 mm 2,1 km/h (1 Bft) O-NO 57 ° 0 min 0,000 mm 0,0 UV-I 28 W/m² 0,5 °C 6,4 °C 4,8 km/h (1 Bft)
31.01.2018 12:50 6,6 °C 66 % 1014,6 hPa 0,0 mm 4,0 km/h (1 Bft) O-NO 57 ° 0 min 0,000 mm 0,0 UV-I 28 W/m² 0,7 °C 6,6 °C 4,8 km/h (1 Bft)
31.01.2018 12:51 6,6 °C 66 % 1014,6 hPa 0,0 mm 0,3 km/h (0 Bft) O-NO 57 ° 0 min 0,000 mm 0,0 UV-I 26 W/m² 0,7 °C 6,6 °C 1,6 km/h (1 Bft)
31.01.2018 12:52 6,6 °C 66 % 1014,5 hPa 0,0 mm 0,0 km/h (0 Bft) O-NO 57 ° 0 min 0,000 mm 0,0 UV-I 26 W/m² 0,7 °C 6,6 °C 0,0 km/h (0 Bft)
31.01.2018 12:53 6,6 °C 66 % 1014,5 hPa 0,0 mm 0,0 km/h (0 Bft) O-NO 57 ° 0 min 0,000 mm 0,0 UV-I 26 W/m² 0,7 °C 6,6 °C 0,0 km/h (0 Bft)
31.01.2018 12:54 6,6 °C 66 % 1014,5 hPa 0,0 mm 0,0 km/h (0 Bft) O-NO 57 ° 0 min 0,000 mm 0,0 UV-I 26 W/m² 0,7 °C 6,6 °C 0,0 km/h (0 Bft)
31.01.2018 12:55 6,6 °C 66 % 1014,5 hPa 0,0 mm 0,0 km/h (0 Bft) O-NO 57 ° 0 min 0,000 mm 0,0 UV-I 26 W/m² 0,7 °C 6,6 °C 0,0 km/h (0 Bft)
31.01.2018 12:56 6,6 °C 65 % 1014,4 hPa 0,0 mm 0,0 km/h (0 Bft) O-NO 57 ° 0 min 0,000 mm 0,0 UV-I 26 W/m² 0,5 °C 6,6 °C 0,0 km/h (0 Bft)
31.01.2018 12:57 6,6 °C 65 % 1014,4 hPa 0,0 mm 0,0 km/h (0 Bft) O-NO 57 ° 0 min 0,000 mm 0,0 UV-I 26 W/m² 0,5 °C 6,6 °C 0,0 km/h (0 Bft)
31.01.2018 12:58 6,6 °C 65 % 1014,4 hPa 0,0 mm 1,7 km/h (1 Bft) O-NO 57 ° 0 min 0,000 mm 0,0 UV-I 26 W/m² 0,5 °C 6,6 °C 3,2 km/h (1 Bft)
31.01.2018 12:59 6,6 °C 66 % 1014,4 hPa 0,0 mm 1,7 km/h (1 Bft) O-NO 57 ° 0 min 0,000 mm 0,0 UV-I 26 W/m² 0,7 °C 6,6 °C 3,2 km/h (1 Bft)
31.01.2018 13:00 6,5 °C 65 % 1014,4 hPa 0,0 mm 0,1 km/h (0 Bft) O-NO 57 ° 0 min 0,000 mm 0,0 UV-I 26 W/m² 0,4 °C 6,5 °C 1,6 km/h (1 Bft)
31.01.2018 13:01 6,6 °C 65 % 1014,4 hPa 0,0 mm 0,0 km/h (0 Bft) O-NO 57 ° 0 min 0,025 mm 0,0 UV-I 26 W/m² 0,5 °C 6,6 °C 0,0 km/h (0 Bft)
31.01.2018 13:02 6,6 °C 65 % 1014,3 hPa 0,0 mm 0,2 km/h (0 Bft) O-NO 57 ° 0 min 0,000 mm 0,0 UV-I 26 W/m² 0,5 °C 6,6 °C 1,6 km/h (1 Bft)
31.01.2018 13:03 6,7 °C 65 % 1014,3 hPa 0,0 mm 0,0 km/h (0 Bft) O-NO 57 ° 0 min 0,000 mm 0,0 UV-I 26 W/m² 0,6 °C 6,7 °C 0,0 km/h (0 Bft)
31.01.2018 13:04 6,7 °C 65 % 1014,3 hPa 0,0 mm 0,0 km/h (0 Bft) O-NO 57 ° 0 min 0,000 mm 0,0 UV-I 26 W/m² 0,6 °C 6,7 °C 0,0 km/h (0 Bft)
31.01.2018 13:05 6,7 °C 65 % 1014,3 hPa 0,0 mm 0,6 km/h (0 Bft) O-NO 57 ° 0 min 0,000 mm 0,0 UV-I 26 W/m² 0,6 °C 6,7 °C 4,8 km/h (1 Bft)
31.01.2018 13:06 6,8 °C 65 % 1014,2 hPa 0,0 mm 3,1 km/h (1 Bft) O-NO 57 ° 0 min 0,000 mm 0,0 UV-I 26 W/m² 0,7 °C 6,8 °C 4,8 km/h (1 Bft)
31.01.2018 13:07 6,7 °C 65 % 1014,2 hPa 0,0 mm 4,4 km/h (1 Bft) W 261 ° 0 min 0,000 mm 0,0 UV-I 26 W/m² 0,6 °C 6,7 °C 4,8 km/h (1 Bft)
31.01.2018 13:08 6,8 °C 65 % 1014,2 hPa 0,0 mm 2,0 km/h (1 Bft) W 261 ° 0 min 0,000 mm 0,0 UV-I 26 W/m² 0,7 °C 6,8 °C 4,8 km/h (1 Bft)
31.01.2018 13:09 6,8 °C 65 % 1014,2 hPa 0,0 mm 0,5 km/h (0 Bft) W 261 ° 0 min 0,000 mm 0,0 UV-I 26 W/m² 0,7 °C 6,8 °C 1,6 km/h (1 Bft)
31.01.2018 13:10 6,9 °C 65 % 1014,2 hPa 0,0 mm 0,0 km/h (0 Bft) W 261 ° 0 min 0,000 mm 0,0 UV-I 26 W/m² 0,8 °C 6,9 °C 0,0 km/h (0 Bft)
31.01.2018 13:11 6,9 °C 65 % 1014,1 hPa 0,0 mm 0,0 km/h (0 Bft) W 261 ° 0 min 0,000 mm 0,0 UV-I 26 W/m² 0,8 °C 6,9 °C 0,0 km/h (0 Bft)
31.01.2018 13:12 6,9 °C 65 % 1014,1 hPa 0,0 mm 1,5 km/h (1 Bft) NW 321 ° 0 min 0,000 mm 0,0 UV-I 26 W/m² 0,8 °C 6,9 °C 3,2 km/h (1 Bft)
31.01.2018 13:13 7,0 °C 66 % 1014,1 hPa 0,0 mm 4,6 km/h (1 Bft) W-NW 290 ° 0 min 0,000 mm 0,0 UV-I 26 W/m² 1,1 °C 6,5 °C 6,4 km/h (2 Bft)
31.01.2018 13:14 7,1 °C 66 % 1014,1 hPa 0,0 mm 5,6 km/h (1 Bft) N-NW 329 ° 0 min 0,000 mm 0,0 UV-I 26 W/m² 1,2 °C 6,3 °C 6,4 km/h (2 Bft)
31.01.2018 13:15 7,1 °C 67 % 1014,1 hPa 0,0 mm 4,2 km/h (1 Bft) W-NW 301 ° 0 min 0,000 mm 0,0 UV-I 26 W/m² 1,4 °C 7,1 °C 8,0 km/h (2 Bft)
31.01.2018 13:16 7,1 °C 67 % 1014,1 hPa 0,0 mm 4,4 km/h (1 Bft) NW 325 ° 0 min 0,000 mm 0,0 UV-I 26 W/m² 1,4 °C 7,1 °C 8,0 km/h (2 Bft)
31.01.2018 13:17 7,2 °C 67 % 1014,0 hPa 0,0 mm 3,5 km/h (1 Bft) NW 312 ° 0 min 0,000 mm 0,0 UV-I 26 W/m² 1,5 °C 7,2 °C 6,4 km/h (2 Bft)
31.01.2018 13:18 7,2 °C 67 % 1014,0 hPa 0,0 mm 1,4 km/h (1 Bft) N-NW 332 ° 0 min 0,000 mm 0,0 UV-I 28 W/m² 1,5 °C 7,2 °C 3,2 km/h (1 Bft)
31.01.2018 13:19 7,2 °C 66 % 1013,9 hPa 0,0 mm 3,0 km/h (1 Bft) NW 322 ° 0 min 0,000 mm 0,0 UV-I 26 W/m² 1,3 °C 7,2 °C 4,8 km/h (1 Bft)
31.01.2018 13:20 7,2 °C 67 % 1013,9 hPa 0,0 mm 3,5 km/h (1 Bft) NW 322 ° 0 min 0,000 mm 0,0 UV-I 26 W/m² 1,5 °C 7,2 °C 4,8 km/h (1 Bft)
31.01.2018 13:21 7,2 °C 67 % 1013,9 hPa 0,0 mm 5,0 km/h (1 Bft) N-NW 338 ° 0 min 0,000 mm 0,0 UV-I 26 W/m² 1,5 °C 6,6 °C 8,0 km/h (2 Bft)
31.01.2018 13:22 7,3 °C 67 % 1013,8 hPa 0,0 mm 3,4 km/h (1 Bft) N-NW 346 ° 0 min 0,000 mm 0,0 UV-I 26 W/m² 1,6 °C 7,3 °C 4,8 km/h (1 Bft)
31.01.2018 13:23 7,3 °C 67 % 1013,8 hPa 0,0 mm 3,6 km/h (1 Bft) W-NW 288 ° 0 min 0,000 mm 0,0 UV-I 26 W/m² 1,6 °C 7,3 °C 6,4 km/h (2 Bft)
31.01.2018 13:24 7,3 °C 66 % 1013,8 hPa 0,0 mm 3,9 km/h (1 Bft) W-NW 294 ° 0 min 0,000 mm 0,0 UV-I 26 W/m² 1,4 °C 7,3 °C 6,4 km/h (2 Bft)
31.01.2018 13:25 7,3 °C 66 % 1013,7 hPa 0,0 mm 1,5 km/h (1 Bft) W-NW 294 ° 0 min 0,000 mm 0,0 UV-I 26 W/m² 1,4 °C 7,3 °C 3,2 km/h (1 Bft)
31.01.2018 13:26 7,3 °C 65 % 1013,7 hPa 0,0 mm 1,1 km/h (1 Bft) W-NW 294 ° 0 min 0,000 mm 0,0 UV-I 28 W/m² 1,2 °C 7,3 °C 3,2 km/h (1 Bft)
31.01.2018 13:27 7,3 °C 65 % 1013,7 hPa 0,0 mm 0,3 km/h (0 Bft) W-NW 294 ° 0 min 0,000 mm 0,0 UV-I 28 W/m² 1,2 °C 7,3 °C 3,2 km/h (1 Bft)
31.01.2018 13:28 7,3 °C 65 % 1013,8 hPa 0,0 mm 3,2 km/h (1 Bft) W-NW 298 ° 0 min 0,000 mm 0,0 UV-I 32 W/m² 1,2 °C 7,3 °C 4,8 km/h (1 Bft)
31.01.2018 13:29 7,4 °C 65 % 1013,7 hPa 0,0 mm 1,9 km/h (1 Bft) N 355 ° 0 min 0,000 mm 0,0 UV-I 33 W/m² 1,3 °C 7,4 °C 3,2 km/h (1 Bft)
31.01.2018 13:30 7,4 °C 65 % 1013,7 hPa 0,0 mm 1,2 km/h (1 Bft) N 355 ° 0 min 0,000 mm 0,0 UV-I 35 W/m² 1,3 °C 7,4 °C 3,2 km/h (1 Bft)
31.01.2018 13:31 7,4 °C 66 % 1013,7 hPa 0,0 mm 4,6 km/h (1 Bft) W-NW 293 ° 0 min 0,000 mm 0,0 UV-I 35 W/m² 1,5 °C 7,0 °C 6,4 km/h (2 Bft)
31.01.2018 13:32 7,4 °C 66 % 1013,7 hPa 0,0 mm 3,7 km/h (1 Bft) W 280 ° 0 min 0,000 mm 0,0 UV-I 35 W/m² 1,5 °C 7,4 °C 9,7 km/h (2 Bft)
31.01.2018 13:33 7,5 °C 65 % 1013,7 hPa 0,0 mm 3,2 km/h (1 Bft) W-NW 295 ° 0 min 0,000 mm 0,0 UV-I 44 W/m² 1,4 °C 7,5 °C 6,4 km/h (2 Bft)
31.01.2018 13:34 7,6 °C 66 % 1013,7 hPa 0,0 mm 6,4 km/h (2 Bft) W 275 ° 0 min 0,000 mm 0,0 UV-I 46 W/m² 1,7 °C 6,6 °C 11,3 km/h (2 Bft)
31.01.2018 13:35 7,7 °C 64 % 1013,7 hPa 0,0 mm 5,0 km/h (1 Bft) W 277 ° 0 min 0,000 mm 0,0 UV-I 49 W/m² 1,3 °C 7,1 °C 6,4 km/h (2 Bft)
31.01.2018 13:36 7,7 °C 63 % 1013,6 hPa 0,0 mm 4,3 km/h (1 Bft) W 281 ° 0 min 0,000 mm 0,0 UV-I 54 W/m² 1,1 °C 7,7 °C 6,4 km/h (2 Bft)
31.01.2018 13:37 7,8 °C 63 % 1013,5 hPa 0,0 mm 0,5 km/h (0 Bft) W 281 ° 0 min 0,000 mm 1,2 UV-I 67 W/m² 1,2 °C 7,8 °C 3,2 km/h (1 Bft)
31.01.2018 13:38 7,9 °C 63 % 1013,5 hPa 0,0 mm 4,4 km/h (1 Bft) W-NW 284 ° 0 min 0,000 mm 1,2 UV-I 81 W/m² 1,3 °C 7,9 °C 6,4 km/h (2 Bft)
31.01.2018 13:39 8,0 °C 62 % 1013,5 hPa 0,0 mm 1,9 km/h (1 Bft) W-NW 284 ° 0 min 0,000 mm 1,2 UV-I 105 W/m² 1,2 °C 8,0 °C 4,8 km/h (1 Bft)
31.01.2018 13:40 8,1 °C 62 % 1013,4 hPa 0,0 mm 3,2 km/h (1 Bft) W-NW 292 ° 0 min 0,000 mm 1,2 UV-I 114 W/m² 1,3 °C 8,1 °C 4,8 km/h (1 Bft)
31.01.2018 13:41 8,2 °C 60 % 1013,3 hPa 0,0 mm 0,1 km/h (0 Bft) W-NW 292 ° 0 min 0,000 mm 1,2 UV-I 120 W/m² 0,9 °C 8,2 °C 1,6 km/h (1 Bft)
31.01.2018 13:42 8,3 °C 60 % 1013,3 hPa 0,0 mm 0,0 km/h (0 Bft) W-NW 292 ° 0 min 0,000 mm 1,2 UV-I 114 W/m² 1,0 °C 8,3 °C 0,0 km/h (0 Bft)
31.01.2018 13:43 8,3 °C 60 % 1013,3 hPa 0,0 mm 1,6 km/h (1 Bft) W-NW 292 ° 0 min 0,000 mm 1,2 UV-I 109 W/m² 1,0 °C 8,3 °C 4,8 km/h (1 Bft)
31.01.2018 13:44 8,4 °C 60 % 1013,3 hPa 0,0 mm 3,1 km/h (1 Bft) NW 312 ° 0 min 0,000 mm 1,2 UV-I 111 W/m² 1,1 °C 8,4 °C 4,8 km/h (1 Bft)
31.01.2018 13:45 8,5 °C 61 % 1013,3 hPa 0,0 mm 7,4 km/h (2 Bft) W-NW 298 ° 0 min 0,000 mm 1,2 UV-I 130 W/m² 1,4 °C 7,4 °C 11,3 km/h (2 Bft)
31.01.2018 13:46 8,6 °C 60 % 1013,3 hPa 0,0 mm 6,0 km/h (2 Bft) W-NW 286 ° 0 min 0,000 mm 1,2 UV-I 137 W/m² 1,3 °C 7,9 °C 8,0 km/h (2 Bft)
31.01.2018 13:47 8,6 °C 59 % 1013,3 hPa 0,0 mm 4,9 km/h (1 Bft) W-NW 286 ° 0 min 0,000 mm 1,2 UV-I 134 W/m² 1,0 °C 8,2 °C 6,4 km/h (2 Bft)
31.01.2018 13:48 8,6 °C 59 % 1013,3 hPa 0,0 mm 4,6 km/h (1 Bft) W-NW 295 ° 0 min 0,000 mm 1,2 UV-I 130 W/m² 1,0 °C 8,3 °C 8,0 km/h (2 Bft)
31.01.2018 13:49 8,6 °C 60 % 1013,3 hPa 0,0 mm 4,6 km/h (1 Bft) W-NW 292 ° 0 min 0,000 mm 1,2 UV-I 134 W/m² 1,3 °C 8,3 °C 8,0 km/h (2 Bft)
31.01.2018 13:50 8,6 °C 59 % 1013,3 hPa 0,0 mm 6,4 km/h (2 Bft) W 265 ° 0 min 0,000 mm 1,2 UV-I 148 W/m² 1,0 °C 7,8 °C 8,0 km/h (2 Bft)
31.01.2018 13:51 8,6 °C 59 % 1013,3 hPa 0,0 mm 4,2 km/h (1 Bft) W 279 ° 0 min 0,000 mm 1,3 UV-I 185 W/m² 1,0 °C 8,6 °C 9,7 km/h (2 Bft)
31.01.2018 13:52 8,7 °C 59 % 1013,3 hPa 0,0 mm 3,7 km/h (1 Bft) W-NW 293 ° 0 min 0,000 mm 1,3 UV-I 197 W/m² 1,1 °C 8,7 °C 6,4 km/h (2 Bft)
31.01.2018 13:53 8,6 °C 59 % 1013,3 hPa 0,0 mm 5,1 km/h (1 Bft) W-NW 291 ° 0 min 0,000 mm 1,6 UV-I 197 W/m² 1,0 °C 8,1 °C 11,3 km/h (2 Bft)
31.01.2018 13:54 8,6 °C 59 % 1013,3 hPa 0,0 mm 4,8 km/h (1 Bft) W-NW 289 ° 0 min 0,000 mm 1,5 UV-I 244 W/m² 1,0 °C 8,2 °C 6,4 km/h (2 Bft)
31.01.2018 13:55 8,6 °C 61 % 1013,3 hPa 0,0 mm 3,2 km/h (1 Bft) W-NW 285 ° 0 min 0,000 mm 1,3 UV-I 200 W/m² 1,5 °C 8,6 °C 6,4 km/h (2 Bft)
31.01.2018 13:56 8,6 °C 60 % 1013,2 hPa 0,0 mm 1,8 km/h (1 Bft) W 275 ° 0 min 0,000 mm 1,3 UV-I 183 W/m² 1,3 °C 8,6 °C 6,4 km/h (2 Bft)
31.01.2018 13:57 8,6 °C 60 % 1013,2 hPa 0,0 mm 5,8 km/h (2 Bft) W 264 ° 0 min 0,000 mm 1,3 UV-I 176 W/m² 1,3 °C 7,9 °C 6,4 km/h (2 Bft)
31.01.2018 13:58 8,6 °C 59 % 1013,2 hPa 0,0 mm 3,5 km/h (1 Bft) W 264 ° 0 min 0,000 mm 1,2 UV-I 176 W/m² 1,0 °C 8,6 °C 4,8 km/h (1 Bft)
31.01.2018 13:59 8,6 °C 62 % 1013,3 hPa 0,0 mm 6,1 km/h (2 Bft) W-NW 284 ° 0 min 0,000 mm 1,2 UV-I 181 W/m² 1,7 °C 7,8 °C 9,7 km/h (2 Bft)
31.01.2018 14:00 8,6 °C 61 % 1013,2 hPa 0,0 mm 4,6 km/h (1 Bft) W-NW 299 ° 0 min 0,000 mm 1,3 UV-I 186 W/m² 1,5 °C 8,3 °C 9,7 km/h (2 Bft)
31.01.2018 14:01 8,6 °C 61 % 1013,2 hPa 0,0 mm 0,9 km/h (0 Bft) W-NW 299 ° 0 min 0,051 mm 1,2 UV-I 188 W/m² 1,5 °C 8,6 °C 1,6 km/h (1 Bft)
31.01.2018 14:02 8,6 °C 61 % 1013,1 hPa 0,0 mm 1,1 km/h (1 Bft) W-NW 299 ° 0 min 0,000 mm 1,2 UV-I 188 W/m² 1,5 °C 8,6 °C 3,2 km/h (1 Bft)
31.01.2018 14:03 8,6 °C 61 % 1013,1 hPa 0,0 mm 1,9 km/h (1 Bft) W-NW 299 ° 0 min 0,000 mm 1,2 UV-I 185 W/m² 1,5 °C 8,6 °C 3,2 km/h (1 Bft)
31.01.2018 14:04 8,6 °C 61 % 1013,1 hPa 0,0 mm 0,9 km/h (0 Bft) W-NW 299 ° 0 min 0,000 mm 1,3 UV-I 193 W/m² 1,5 °C 8,6 °C 1,6 km/h (1 Bft)
31.01.2018 14:05 8,6 °C 61 % 1013,0 hPa 0,0 mm 1,0 km/h (0 Bft) W-NW 286 ° 0 min 0,000 mm 1,2 UV-I 171 W/m² 1,5 °C 8,6 °C 4,8 km/h (1 Bft)
31.01.2018 14:06 8,6 °C 60 % 1013,0 hPa 0,0 mm 1,8 km/h (1 Bft) W-NW 286 ° 0 min 0,000 mm 1,2 UV-I 167 W/m² 1,3 °C 8,6 °C 4,8 km/h (1 Bft)
31.01.2018 14:07 8,6 °C 61 % 1013,0 hPa 0,0 mm 0,5 km/h (0 Bft) W-NW 286 ° 0 min 0,000 mm 1,2 UV-I 162 W/m² 1,5 °C 8,6 °C 1,6 km/h (1 Bft)
31.01.2018 14:08 8,7 °C 61 % 1012,9 hPa 0,0 mm 1,3 km/h (1 Bft) W-NW 286 ° 0 min 0,000 mm 1,1 UV-I 142 W/m² 1,6 °C 8,7 °C 4,8 km/h (1 Bft)
31.01.2018 14:09 8,6 °C 61 % 1012,9 hPa 0,0 mm 3,6 km/h (1 Bft) W-NW 286 ° 0 min 0,000 mm 1,1 UV-I 137 W/m² 1,5 °C 8,6 °C 6,4 km/h (2 Bft)
31.01.2018 14:10 8,6 °C 60 % 1012,9 hPa 0,0 mm 4,5 km/h (1 Bft) W-NW 286 ° 0 min 0,000 mm 1,1 UV-I 134 W/m² 1,3 °C 8,6 °C 6,4 km/h (2 Bft)
31.01.2018 14:11 8,6 °C 61 % 1012,8 hPa 0,0 mm 4,3 km/h (1 Bft) W-NW 287 ° 0 min 0,000 mm 1,1 UV-I 151 W/m² 1,5 °C 8,6 °C 6,4 km/h (2 Bft)
31.01.2018 14:12 8,6 °C 60 % 1012,8 hPa 0,0 mm 5,5 km/h (1 Bft) W 259 ° 0 min 0,000 mm 1,4 UV-I 250 W/m² 1,3 °C 8,0 °C 6,4 km/h (2 Bft)
31.01.2018 14:13 8,5 °C 61 % 1012,8 hPa 0,0 mm 4,3 km/h (1 Bft) W 259 ° 0 min 0,000 mm 1,1 UV-I 250 W/m² 1,4 °C 8,5 °C 6,4 km/h (2 Bft)
31.01.2018 14:14 8,4 °C 61 % 1012,8 hPa 0,0 mm 3,0 km/h (1 Bft) W 259 ° 0 min 0,000 mm 1,1 UV-I 230 W/m² 1,3 °C 8,4 °C 4,8 km/h (1 Bft)
31.01.2018 14:15 8,4 °C 62 % 1012,8 hPa 0,0 mm 2,1 km/h (1 Bft) W 259 ° 0 min 0,000 mm 1,1 UV-I 230 W/m² 1,6 °C 8,4 °C 3,2 km/h (1 Bft)
31.01.2018 14:16 8,4 °C 61 % 1012,7 hPa 0,0 mm 0,3 km/h (0 Bft) W 259 ° 0 min 0,000 mm 1,5 UV-I 174 W/m² 1,3 °C 8,4 °C 1,6 km/h (1 Bft)
31.01.2018 14:17 8,4 °C 62 % 1012,8 hPa 0,0 mm 3,3 km/h (1 Bft) W 259 ° 0 min 0,000 mm 1,5 UV-I 139 W/m² 1,6 °C 8,4 °C 4,8 km/h (1 Bft)
31.01.2018 14:18 8,4 °C 62 % 1012,7 hPa 0,0 mm 2,0 km/h (1 Bft) W 259 ° 0 min 0,000 mm 1,1 UV-I 127 W/m² 1,6 °C 8,4 °C 4,8 km/h (1 Bft)
31.01.2018 14:19 8,4 °C 62 % 1012,7 hPa 0,0 mm 2,8 km/h (1 Bft) W 280 ° 0 min 0,000 mm 1,1 UV-I 153 W/m² 1,6 °C 8,4 °C 4,8 km/h (1 Bft)
31.01.2018 14:20 8,4 °C 62 % 1012,7 hPa 0,0 mm 5,4 km/h (1 Bft) W-SW 252 ° 0 min 0,000 mm 1,1 UV-I 134 W/m² 1,6 °C 7,8 °C 6,4 km/h (2 Bft)
31.01.2018 14:21 8,4 °C 62 % 1012,6 hPa 0,0 mm 3,4 km/h (1 Bft) W-SW 252 ° 0 min 0,000 mm 1,1 UV-I 139 W/m² 1,6 °C 8,4 °C 4,8 km/h (1 Bft)
31.01.2018 14:22 8,4 °C 61 % 1012,6 hPa 0,0 mm 3,2 km/h (1 Bft) W-SW 253 ° 0 min 0,000 mm 1,1 UV-I 146 W/m² 1,3 °C 8,4 °C 4,8 km/h (1 Bft)
31.01.2018 14:23 8,3 °C 62 % 1012,6 hPa 0,0 mm 3,1 km/h (1 Bft) W 259 ° 0 min 0,000 mm 1,1 UV-I 149 W/m² 1,5 °C 8,3 °C 4,8 km/h (1 Bft)
31.01.2018 14:24 8,3 °C 62 % 1012,5 hPa 0,0 mm 0,8 km/h (0 Bft) W 259 ° 0 min 0,000 mm 1,0 UV-I 139 W/m² 1,5 °C 8,3 °C 3,2 km/h (1 Bft)
31.01.2018 14:25 8,3 °C 63 % 1012,5 hPa 0,0 mm 2,4 km/h (1 Bft) W 259 ° 0 min 0,000 mm 1,0 UV-I 142 W/m² 1,7 °C 8,3 °C 4,8 km/h (1 Bft)
31.01.2018 14:26 8,3 °C 64 % 1012,5 hPa 0,0 mm 2,5 km/h (1 Bft) W 259 ° 0 min 0,000 mm 1,1 UV-I 137 W/m² 1,9 °C 8,3 °C 3,2 km/h (1 Bft)
31.01.2018 14:27 8,2 °C 62 % 1012,4 hPa 0,0 mm 0,1 km/h (0 Bft) W 259 ° 0 min 0,000 mm 1,0 UV-I 134 W/m² 1,4 °C 8,2 °C 1,6 km/h (1 Bft)
31.01.2018 14:28 8,2 °C 64 % 1012,4 hPa 0,0 mm 0,0 km/h (0 Bft) W 259 ° 0 min 0,000 mm 1,0 UV-I 135 W/m² 1,8 °C 8,2 °C 0,0 km/h (0 Bft)
31.01.2018 14:29 8,2 °C 65 % 1012,4 hPa 0,0 mm 0,0 km/h (0 Bft) W 259 ° 0 min 0,000 mm 1,0 UV-I 137 W/m² 2,0 °C 8,2 °C 0,0 km/h (0 Bft)
31.01.2018 14:30 8,1 °C 64 % 1012,3 hPa 0,0 mm 0,0 km/h (0 Bft) W 259 ° 0 min 0,000 mm 1,0 UV-I 130 W/m² 1,7 °C 8,1 °C 0,0 km/h (0 Bft)
31.01.2018 14:31 8,2 °C 63 % 1012,3 hPa 0,0 mm 0,0 km/h (0 Bft) W 259 ° 0 min 0,000 mm 1,0 UV-I 123 W/m² 1,6 °C 8,2 °C 0,0 km/h (0 Bft)
31.01.2018 14:32 8,2 °C 63 % 1012,3 hPa 0,0 mm 0,0 km/h (0 Bft) W 259 ° 0 min 0,000 mm 1,0 UV-I 111 W/m² 1,6 °C 8,2 °C 0,0 km/h (0 Bft)
31.01.2018 14:33 8,2 °C 63 % 1012,3 hPa 0,0 mm 0,3 km/h (0 Bft) W 259 ° 0 min 0,000 mm 1,0 UV-I 113 W/m² 1,6 °C 8,2 °C 1,6 km/h (1 Bft)
31.01.2018 14:34 8,2 °C 64 % 1012,2 hPa 0,0 mm 0,3 km/h (0 Bft) W 259 ° 0 min 0,000 mm 1,0 UV-I 118 W/m² 1,8 °C 8,2 °C 1,6 km/h (1 Bft)
31.01.2018 14:35 8,0 °C 65 % 1012,2 hPa 0,0 mm 0,0 km/h (0 Bft) W 259 ° 0 min 0,000 mm 1,0 UV-I 121 W/m² 1,8 °C 8,0 °C 0,0 km/h (0 Bft)
31.01.2018 14:36 8,0 °C 64 % 1012,1 hPa 0,0 mm 0,0 km/h (0 Bft) W 259 ° 0 min 0,000 mm 1,0 UV-I 125 W/m² 1,6 °C 8,0 °C 0,0 km/h (0 Bft)
31.01.2018 14:37 8,1 °C 65 % 1012,1 hPa 0,0 mm 0,5 km/h (0 Bft) W 259 ° 0 min 0,000 mm 1,0 UV-I 128 W/m² 1,9 °C 8,1 °C 1,6 km/h (1 Bft)
31.01.2018 14:38 7,9 °C 67 % 1012,1 hPa 0,0 mm 0,0 km/h (0 Bft) W 259 ° 0 min 0,000 mm 1,0 UV-I 162 W/m² 2,2 °C 7,9 °C 0,0 km/h (0 Bft)
31.01.2018 14:39 8,0 °C 64 % 1012,0 hPa 0,0 mm 0,0 km/h (0 Bft) W 259 ° 0 min 0,000 mm 1,0 UV-I 155 W/m² 1,6 °C 8,0 °C 0,0 km/h (0 Bft)
31.01.2018 14:40 8,1 °C 63 % 1012,0 hPa 0,0 mm 0,0 km/h (0 Bft) W 259 ° 0 min 0,000 mm 1,0 UV-I 149 W/m² 1,5 °C 8,1 °C 0,0 km/h (0 Bft)
31.01.2018 14:41 8,3 °C 61 % 1012,1 hPa 0,0 mm 0,0 km/h (0 Bft) W 259 ° 0 min 0,000 mm 1,0 UV-I 144 W/m² 1,2 °C 8,3 °C 0,0 km/h (0 Bft)
31.01.2018 14:42 8,3 °C 62 % 1012,0 hPa 0,0 mm 0,0 km/h (0 Bft) W 259 ° 0 min 0,000 mm 1,0 UV-I 155 W/m² 1,5 °C 8,3 °C 0,0 km/h (0 Bft)
31.01.2018 14:43 8,3 °C 62 % 1012,1 hPa 0,0 mm 0,0 km/h (0 Bft) W 259 ° 0 min 0,000 mm 1,0 UV-I 167 W/m² 1,5 °C 8,3 °C 0,0 km/h (0 Bft)
31.01.2018 14:44 8,3 °C 63 % 1012,1 hPa 0,0 mm 0,9 km/h (0 Bft) W 262 ° 0 min 0,000 mm 1,0 UV-I 146 W/m² 1,7 °C 8,3 °C 3,2 km/h (1 Bft)
31.01.2018 14:45 8,3 °C 62 % 1012,0 hPa 0,0 mm 2,5 km/h (1 Bft) NW 325 ° 0 min 0,000 mm 0,9 UV-I 130 W/m² 1,5 °C 8,3 °C 4,8 km/h (1 Bft)
31.01.2018 14:46 8,3 °C 64 % 1012,0 hPa 0,0 mm 0,3 km/h (0 Bft) NW 325 ° 0 min 0,000 mm 0,9 UV-I 121 W/m² 1,9 °C 8,3 °C 1,6 km/h (1 Bft)
31.01.2018 14:47 8,3 °C 61 % 1011,9 hPa 0,0 mm 0,1 km/h (0 Bft) NW 325 ° 0 min 0,000 mm 0,9 UV-I 116 W/m² 1,2 °C 8,3 °C 1,6 km/h (1 Bft)
31.01.2018 14:48 8,4 °C 61 % 1011,9 hPa 0,0 mm 0,0 km/h (0 Bft) NW 325 ° 0 min 0,000 mm 0,9 UV-I 128 W/m² 1,3 °C 8,4 °C 0,0 km/h (0 Bft)
31.01.2018 14:49 8,6 °C 60 % 1011,9 hPa 0,0 mm 0,8 km/h (0 Bft) W-NW 290 ° 0 min 0,000 mm 0,9 UV-I 132 W/m² 1,3 °C 8,6 °C 3,2 km/h (1 Bft)
31.01.2018 14:50 8,7 °C 59 % 1011,8 hPa 0,0 mm 2,1 km/h (1 Bft) W-NW 290 ° 0 min 0,000 mm 0,9 UV-I 144 W/m² 1,1 °C 8,7 °C 3,2 km/h (1 Bft)
31.01.2018 14:51 8,8 °C 60 % 1011,8 hPa 0,0 mm 1,5 km/h (1 Bft) W-NW 290 ° 0 min 0,000 mm 0,9 UV-I 132 W/m² 1,5 °C 8,8 °C 3,2 km/h (1 Bft)
31.01.2018 14:52 8,8 °C 60 % 1011,8 hPa 0,0 mm 1,9 km/h (1 Bft) W-NW 290 ° 0 min 0,000 mm 0,9 UV-I 134 W/m² 1,5 °C 8,8 °C 3,2 km/h (1 Bft)
31.01.2018 14:53 9,0 °C 58 % 1011,8 hPa 0,0 mm 3,1 km/h (1 Bft) W 259 ° 0 min 0,000 mm 0,9 UV-I 155 W/m² 1,2 °C 9,0 °C 4,8 km/h (1 Bft)
31.01.2018 14:54 9,1 °C 59 % 1011,6 hPa 0,0 mm 4,0 km/h (1 Bft) W 259 ° 0 min 0,000 mm 0,9 UV-I 148 W/m² 1,5 °C 9,1 °C 4,8 km/h (1 Bft)
31.01.2018 14:55 9,2 °C 57 % 1011,6 hPa 0,0 mm 1,2 km/h (1 Bft) W 259 ° 0 min 0,000 mm 0,9 UV-I 125 W/m² 1,1 °C 9,2 °C 3,2 km/h (1 Bft)
31.01.2018 14:56 9,2 °C 58 % 1011,6 hPa 0,0 mm 4,6 km/h (1 Bft) W 259 ° 0 min 0,000 mm 0,8 UV-I 132 W/m² 1,4 °C 9,0 °C 6,4 km/h (2 Bft)
31.01.2018 14:57 9,2 °C 58 % 1011,6 hPa 0,0 mm 8,5 km/h (2 Bft) W-NW 289 ° 0 min 0,000 mm 0,8 UV-I 123 W/m² 1,4 °C 8,0 °C 14,5 km/h (3 Bft)
31.01.2018 14:58 9,2 °C 58 % 1011,6 hPa 0,0 mm 11,7 km/h (2 Bft) W 274 ° 0 min 0,000 mm 0,8 UV-I 125 W/m² 1,4 °C 7,4 °C 16,1 km/h (3 Bft)
31.01.2018 14:59 9,2 °C 55 % 1011,5 hPa 0,0 mm 12,3 km/h (3 Bft) W 270 ° 0 min 0,000 mm 0,8 UV-I 116 W/m² 0,6 °C 7,3 °C 16,1 km/h (3 Bft)
31.01.2018 15:00 9,2 °C 56 % 1011,6 hPa 0,0 mm 6,8 km/h (2 Bft) W-SW 254 ° 0 min 0,076 mm 0,8 UV-I 113 W/m² 0,9 °C 8,3 °C 11,3 km/h (2 Bft)
31.01.2018 15:01 9,3 °C 57 % 1011,6 hPa 0,0 mm 4,9 km/h (1 Bft) W-NW 284 ° 0 min 0,000 mm 0,8 UV-I 105 W/m² 1,2 °C 9,0 °C 9,7 km/h (2 Bft)
31.01.2018 15:02 9,3 °C 57 % 1011,6 hPa 0,0 mm 7,1 km/h (2 Bft) NW 306 ° 0 min 0,000 mm 0,8 UV-I 105 W/m² 1,2 °C 8,4 °C 12,9 km/h (3 Bft)
31.01.2018 15:03 9,3 °C 57 % 1011,6 hPa 0,0 mm 2,8 km/h (1 Bft) W-NW 283 ° 0 min 0,000 mm 0,8 UV-I 105 W/m² 1,2 °C 9,3 °C 4,8 km/h (1 Bft)
31.01.2018 15:04 9,3 °C 58 % 1011,6 hPa 0,0 mm 4,8 km/h (1 Bft) W 280 ° 0 min 0,000 mm 0,8 UV-I 109 W/m² 1,5 °C 9,0 °C 6,4 km/h (2 Bft)
31.01.2018 15:05 9,2 °C 59 % 1011,6 hPa 0,0 mm 4,1 km/h (1 Bft) W 265 ° 0 min 0,000 mm 0,8 UV-I 114 W/m² 1,6 °C 9,2 °C 6,4 km/h (2 Bft)
31.01.2018 15:06 9,2 °C 58 % 1011,6 hPa 0,0 mm 5,2 km/h (1 Bft) W-SW 248 ° 0 min 0,000 mm 0,8 UV-I 118 W/m² 1,4 °C 8,8 °C 8,0 km/h (2 Bft)
31.01.2018 15:07 9,3 °C 56 % 1011,6 hPa 0,0 mm 4,7 km/h (1 Bft) W 279 ° 0 min 0,000 mm 0,8 UV-I 118 W/m² 1,0 °C 9,1 °C 8,0 km/h (2 Bft)
31.01.2018 15:08 9,3 °C 58 % 1011,6 hPa 0,0 mm 9,3 km/h (2 Bft) W 268 ° 0 min 0,000 mm 0,8 UV-I 135 W/m² 1,5 °C 7,9 °C 12,9 km/h (3 Bft)
31.01.2018 15:09 9,3 °C 57 % 1011,6 hPa 0,0 mm 9,7 km/h (2 Bft) SW 225 ° 0 min 0,000 mm 0,8 UV-I 118 W/m² 1,2 °C 7,8 °C 14,5 km/h (3 Bft)
31.01.2018 15:10 9,3 °C 55 % 1011,6 hPa 0,0 mm 6,7 km/h (2 Bft) W-SW 257 ° 0 min 0,000 mm 0,8 UV-I 120 W/m² 0,7 °C 8,5 °C 11,3 km/h (2 Bft)
31.01.2018 15:11 9,4 °C 53 % 1011,6 hPa 0,0 mm 5,5 km/h (1 Bft) W 264 ° 0 min 0,000 mm 0,8 UV-I 121 W/m² 0,3 °C 8,9 °C 9,7 km/h (2 Bft)
31.01.2018 15:12 9,4 °C 54 % 1011,6 hPa 0,0 mm 3,9 km/h (1 Bft) W 266 ° 0 min 0,000 mm 0,8 UV-I 125 W/m² 0,6 °C 9,4 °C 9,7 km/h (2 Bft)
31.01.2018 15:13 9,4 °C 55 % 1011,6 hPa 0,0 mm 7,6 km/h (2 Bft) W-SW 252 ° 0 min 0,000 mm 0,7 UV-I 125 W/m² 0,8 °C 8,4 °C 12,9 km/h (3 Bft)
31.01.2018 15:14 9,5 °C 54 % 1011,6 hPa 0,0 mm 8,4 km/h (2 Bft) NW 309 ° 0 min 0,000 mm 0,7 UV-I 125 W/m² 0,7 °C 8,3 °C 11,3 km/h (2 Bft)
31.01.2018 15:15 9,5 °C 54 % 1011,6 hPa 0,0 mm 7,6 km/h (2 Bft) SW 221 ° 0 min 0,000 mm 0,7 UV-I 139 W/m² 0,7 °C 8,5 °C 11,3 km/h (2 Bft)
31.01.2018 15:16 9,4 °C 54 % 1011,7 hPa 0,0 mm 8,5 km/h (2 Bft) W-SW 256 ° 0 min 0,000 mm 0,7 UV-I 130 W/m² 0,6 °C 8,2 °C 11,3 km/h (2 Bft)
31.01.2018 15:17 9,4 °C 55 % 1011,6 hPa 0,0 mm 6,8 km/h (2 Bft) W 270 ° 0 min 0,000 mm 0,7 UV-I 130 W/m² 0,8 °C 8,6 °C 9,7 km/h (2 Bft)
31.01.2018 15:18 9,4 °C 53 % 1011,6 hPa 0,0 mm 3,3 km/h (1 Bft) W-SW 251 ° 0 min 0,000 mm 0,7 UV-I 121 W/m² 0,3 °C 9,4 °C 8,0 km/h (2 Bft)
31.01.2018 15:19 9,4 °C 54 % 1011,5 hPa 0,0 mm 1,9 km/h (1 Bft) W-SW 252 ° 0 min 0,000 mm 0,7 UV-I 116 W/m² 0,6 °C 9,4 °C 4,8 km/h (1 Bft)
31.01.2018 15:20 9,4 °C 53 % 1011,5 hPa 0,0 mm 4,4 km/h (1 Bft) NW 309 ° 0 min 0,000 mm 0,7 UV-I 111 W/m² 0,3 °C 9,4 °C 6,4 km/h (2 Bft)
31.01.2018 15:21 9,4 °C 55 % 1011,5 hPa 0,0 mm 4,7 km/h (1 Bft) W-SW 253 ° 0 min 0,000 mm 0,7 UV-I 107 W/m² 0,8 °C 9,2 °C 8,0 km/h (2 Bft)
31.01.2018 15:22 9,3 °C 53 % 1011,5 hPa 0,0 mm 3,8 km/h (1 Bft) SW 221 ° 0 min 0,000 mm 0,7 UV-I 105 W/m² 0,2 °C 9,3 °C 9,7 km/h (2 Bft)
31.01.2018 15:23 9,4 °C 55 % 1011,5 hPa 0,0 mm 4,4 km/h (1 Bft) NW 312 ° 0 min 0,000 mm 0,7 UV-I 105 W/m² 0,8 °C 9,4 °C 8,0 km/h (2 Bft)
31.01.2018 15:24 9,4 °C 55 % 1011,5 hPa 0,0 mm 5,7 km/h (1 Bft) NW 304 ° 0 min 0,000 mm 0,7 UV-I 105 W/m² 0,8 °C 8,9 °C 12,9 km/h (3 Bft)
31.01.2018 15:25 9,3 °C 56 % 1011,5 hPa 0,0 mm 3,9 km/h (1 Bft) NW 305 ° 0 min 0,000 mm 0,7 UV-I 105 W/m² 1,0 °C 9,3 °C 8,0 km/h (2 Bft)
31.01.2018 15:26 9,2 °C 56 % 1011,5 hPa 0,0 mm 1,9 km/h (1 Bft) NW 305 ° 0 min 0,000 mm 0,7 UV-I 104 W/m² 0,9 °C 9,2 °C 3,2 km/h (1 Bft)
31.01.2018 15:27 9,2 °C 55 % 1011,6 hPa 0,0 mm 4,9 km/h (1 Bft) W-NW 284 ° 0 min 0,000 mm 0,7 UV-I 105 W/m² 0,6 °C 8,9 °C 9,7 km/h (2 Bft)
31.01.2018 15:28 9,2 °C 54 % 1011,6 hPa 0,0 mm 3,9 km/h (1 Bft) W 279 ° 0 min 0,000 mm 0,7 UV-I 105 W/m² 0,4 °C 9,2 °C 6,4 km/h (2 Bft)
31.01.2018 15:29 9,2 °C 57 % 1011,6 hPa 0,0 mm 2,1 km/h (1 Bft) W 279 ° 0 min 0,000 mm 0,7 UV-I 105 W/m² 1,1 °C 9,2 °C 3,2 km/h (1 Bft)
31.01.2018 15:30 9,2 °C 57 % 1011,6 hPa 0,0 mm 0,5 km/h (0 Bft) W 279 ° 0 min 0,000 mm 0,7 UV-I 104 W/m² 1,1 °C 9,2 °C 3,2 km/h (1 Bft)
31.01.2018 15:31 9,1 °C 58 % 1011,6 hPa 0,0 mm 2,3 km/h (1 Bft) NW 311 ° 0 min 0,000 mm 0,7 UV-I 105 W/m² 1,3 °C 9,1 °C 4,8 km/h (1 Bft)
31.01.2018 15:32 8,9 °C 57 % 1011,6 hPa 0,0 mm 3,9 km/h (1 Bft) W-NW 288 ° 0 min 0,000 mm 0,6 UV-I 107 W/m² 0,9 °C 8,9 °C 4,8 km/h (1 Bft)
31.01.2018 15:33 8,9 °C 58 % 1011,7 hPa 0,0 mm 2,5 km/h (1 Bft) W-NW 288 ° 0 min 0,000 mm 0,6 UV-I 107 W/m² 1,1 °C 8,9 °C 4,8 km/h (1 Bft)
31.01.2018 15:34 8,9 °C 58 % 1011,6 hPa 0,0 mm 0,7 km/h (0 Bft) W-NW 288 ° 0 min 0,000 mm 0,6 UV-I 107 W/m² 1,1 °C 8,9 °C 3,2 km/h (1 Bft)
31.01.2018 15:35 8,8 °C 58 % 1011,6 hPa 0,0 mm 2,3 km/h (1 Bft) W-NW 294 ° 0 min 0,000 mm 0,6 UV-I 109 W/m² 1,0 °C 8,8 °C 4,8 km/h (1 Bft)
31.01.2018 15:36 8,8 °C 59 % 1011,6 hPa 0,0 mm 3,4 km/h (1 Bft) W 267 ° 0 min 0,000 mm 0,6 UV-I 109 W/m² 1,2 °C 8,8 °C 4,8 km/h (1 Bft)
31.01.2018 15:37 8,9 °C 57 % 1011,6 hPa 0,0 mm 3,7 km/h (1 Bft) NW 311 ° 0 min 0,000 mm 0,6 UV-I 111 W/m² 0,9 °C 8,9 °C 6,4 km/h (2 Bft)
31.01.2018 15:38 8,9 °C 58 % 1011,6 hPa 0,0 mm 2,3 km/h (1 Bft) NW 311 ° 0 min 0,000 mm 0,6 UV-I 111 W/m² 1,1 °C 8,9 °C 4,8 km/h (1 Bft)
31.01.2018 15:39 9,0 °C 57 % 1011,5 hPa 0,0 mm 2,4 km/h (1 Bft) NW 311 ° 0 min 0,000 mm 0,6 UV-I 109 W/m² 0,9 °C 9,0 °C 3,2 km/h (1 Bft)
31.01.2018 15:40 9,0 °C 55 % 1011,5 hPa 0,0 mm 1,9 km/h (1 Bft) W-SW 242 ° 0 min 0,000 mm 0,6 UV-I 109 W/m² 0,5 °C 9,0 °C 3,2 km/h (1 Bft)
31.01.2018 15:41 9,1 °C 56 % 1011,5 hPa 0,0 mm 2,3 km/h (1 Bft) W-SW 242 ° 0 min 0,000 mm 0,6 UV-I 109 W/m² 0,8 °C 9,1 °C 4,8 km/h (1 Bft)
31.01.2018 15:42 9,1 °C 56 % 1011,4 hPa 0,0 mm 4,1 km/h (1 Bft) NW 311 ° 0 min 0,000 mm 0,6 UV-I 111 W/m² 0,8 °C 9,1 °C 6,4 km/h (2 Bft)
31.01.2018 15:43 9,1 °C 56 % 1011,4 hPa 0,0 mm 5,6 km/h (1 Bft) W-NW 298 ° 0 min 0,000 mm 0,5 UV-I 111 W/m² 0,8 °C 8,6 °C 8,0 km/h (2 Bft)
31.01.2018 15:44 9,1 °C 55 % 1011,3 hPa 0,0 mm 6,0 km/h (2 Bft) NW 309 ° 0 min 0,000 mm 0,5 UV-I 111 W/m² 0,5 °C 8,4 °C 8,0 km/h (2 Bft)
31.01.2018 15:45 9,1 °C 56 % 1011,4 hPa 0,0 mm 2,5 km/h (1 Bft) SW 231 ° 0 min 0,000 mm 0,5 UV-I 109 W/m² 0,8 °C 9,1 °C 3,2 km/h (1 Bft)
31.01.2018 15:46 9,1 °C 56 % 1011,4 hPa 0,0 mm 1,9 km/h (1 Bft) SW 227 ° 0 min 0,000 mm 0,5 UV-I 107 W/m² 0,8 °C 9,1 °C 4,8 km/h (1 Bft)
31.01.2018 15:47 9,1 °C 55 % 1011,3 hPa 0,0 mm 0,6 km/h (0 Bft) SW 227 ° 0 min 0,000 mm 0,5 UV-I 105 W/m² 0,5 °C 9,1 °C 1,6 km/h (1 Bft)
31.01.2018 15:48 9,1 °C 56 % 1011,3 hPa 0,0 mm 4,2 km/h (1 Bft) SW 236 ° 0 min 0,000 mm 0,5 UV-I 98 W/m² 0,8 °C 9,1 °C 9,7 km/h (2 Bft)
31.01.2018 15:49 9,1 °C 56 % 1011,3 hPa 0,0 mm 7,4 km/h (2 Bft) W 269 ° 0 min 0,000 mm 0,5 UV-I 95 W/m² 0,8 °C 8,1 °C 11,3 km/h (2 Bft)
31.01.2018 15:50 9,1 °C 56 % 1011,4 hPa 0,0 mm 2,7 km/h (1 Bft) W 269 ° 0 min 0,000 mm 0,5 UV-I 91 W/m² 0,8 °C 9,1 °C 4,8 km/h (1 Bft)
31.01.2018 15:51 9,1 °C 56 % 1011,4 hPa 0,0 mm 3,3 km/h (1 Bft) SW 227 ° 0 min 0,000 mm 0,0 UV-I 88 W/m² 0,8 °C 9,1 °C 4,8 km/h (1 Bft)
31.01.2018 15:52 9,1 °C 55 % 1011,3 hPa 0,0 mm 3,5 km/h (1 Bft) S-SW 205 ° 0 min 0,000 mm 0,0 UV-I 83 W/m² 0,5 °C 9,1 °C 8,0 km/h (2 Bft)
31.01.2018 15:53 9,1 °C 55 % 1011,3 hPa 0,0 mm 2,3 km/h (1 Bft) W-NW 296 ° 0 min 0,000 mm 0,0 UV-I 79 W/m² 0,5 °C 9,1 °C 3,2 km/h (1 Bft)
31.01.2018 15:54 9,1 °C 56 % 1011,3 hPa 0,0 mm 1,5 km/h (1 Bft) W-NW 293 ° 0 min 0,000 mm 0,0 UV-I 72 W/m² 0,8 °C 9,1 °C 3,2 km/h (1 Bft)
31.01.2018 15:55 9,0 °C 56 % 1011,3 hPa 0,0 mm 2,9 km/h (1 Bft) S-SW 213 ° 0 min 0,000 mm 0,0 UV-I 69 W/m² 0,7 °C 9,0 °C 6,4 km/h (2 Bft)
31.01.2018 15:56 9,0 °C 56 % 1011,3 hPa 0,0 mm 2,5 km/h (1 Bft) W 271 ° 0 min 0,000 mm 0,0 UV-I 67 W/m² 0,7 °C 9,0 °C 6,4 km/h (2 Bft)
31.01.2018 15:57 8,9 °C 55 % 1011,2 hPa 0,0 mm 3,1 km/h (1 Bft) W-SW 250 ° 0 min 0,000 mm 0,0 UV-I 65 W/m² 0,4 °C 8,9 °C 6,4 km/h (2 Bft)
31.01.2018 15:58 8,9 °C 57 % 1011,2 hPa 0,0 mm 3,9 km/h (1 Bft) W-SW 251 ° 0 min 0,000 mm 0,0 UV-I 63 W/m² 0,9 °C 8,9 °C 4,8 km/h (1 Bft)
31.01.2018 15:59 8,9 °C 58 % 1011,2 hPa 0,0 mm 5,1 km/h (1 Bft) W 262 ° 0 min 0,000 mm 0,0 UV-I 60 W/m² 1,1 °C 8,5 °C 9,7 km/h (2 Bft)
31.01.2018 16:00 8,8 °C 58 % 1011,2 hPa 0,0 mm 6,1 km/h (2 Bft) W-SW 250 ° 0 min 0,000 mm 0,0 UV-I 53 W/m² 1,0 °C 8,1 °C 11,3 km/h (2 Bft)
31.01.2018 16:01 8,7 °C 57 % 1011,2 hPa 0,0 mm 3,4 km/h (1 Bft) SW 234 ° 0 min 0,076 mm 0,0 UV-I 49 W/m² 0,7 °C 8,7 °C 6,4 km/h (2 Bft)
31.01.2018 16:02 8,7 °C 55 % 1011,2 hPa 0,0 mm 3,2 km/h (1 Bft) W-SW 250 ° 0 min 0,000 mm 0,0 UV-I 47 W/m² 0,2 °C 8,7 °C 4,8 km/h (1 Bft)
31.01.2018 16:03 8,7 °C 57 % 1011,1 hPa 0,0 mm 3,1 km/h (1 Bft) W-SW 252 ° 0 min 0,000 mm 0,0 UV-I 44 W/m² 0,7 °C 8,7 °C 4,8 km/h (1 Bft)
31.01.2018 16:04 8,7 °C 56 % 1011,1 hPa 0,0 mm 3,2 km/h (1 Bft) W-SW 252 ° 0 min 0,000 mm 0,0 UV-I 44 W/m² 0,4 °C 8,7 °C 6,4 km/h (2 Bft)
31.01.2018 16:05 8,7 °C 56 % 1011,0 hPa 0,0 mm 1,7 km/h (1 Bft) W-SW 253 ° 0 min 0,000 mm 0,0 UV-I 42 W/m² 0,4 °C 8,7 °C 4,8 km/h (1 Bft)
31.01.2018 16:06 8,7 °C 57 % 1011,1 hPa 0,0 mm 6,7 km/h (2 Bft) W-SW 249 ° 0 min 0,000 mm 0,0 UV-I 42 W/m² 0,7 °C 7,8 °C 9,7 km/h (2 Bft)
31.01.2018 16:07 8,7 °C 57 % 1011,0 hPa 0,0 mm 2,3 km/h (1 Bft) W-SW 249 ° 0 min 0,000 mm 0,0 UV-I 40 W/m² 0,7 °C 8,7 °C 4,8 km/h (1 Bft)
31.01.2018 16:08 8,6 °C 57 % 1011,0 hPa 0,0 mm 3,3 km/h (1 Bft) W-SW 246 ° 0 min 0,000 mm 0,0 UV-I 40 W/m² 0,6 °C 8,6 °C 4,8 km/h (1 Bft)
31.01.2018 16:09 8,6 °C 59 % 1011,0 hPa 0,0 mm 5,4 km/h (1 Bft) W 265 ° 0 min 0,000 mm 0,0 UV-I 40 W/m² 1,0 °C 8,0 °C 9,7 km/h (2 Bft)
31.01.2018 16:10 8,6 °C 57 % 1011,0 hPa 0,0 mm 4,4 km/h (1 Bft) S-SW 207 ° 0 min 0,000 mm 0,0 UV-I 39 W/m² 0,6 °C 8,6 °C 9,7 km/h (2 Bft)
31.01.2018 16:11 8,5 °C 57 % 1011,0 hPa 0,0 mm 1,5 km/h (1 Bft) W-SW 251 ° 0 min 0,000 mm 0,0 UV-I 39 W/m² 0,5 °C 8,5 °C 4,8 km/h (1 Bft)
31.01.2018 16:12 8,4 °C 57 % 1011,0 hPa 0,0 mm 3,1 km/h (1 Bft) SW 234 ° 0 min 0,000 mm 0,0 UV-I 39 W/m² 0,4 °C 8,4 °C 4,8 km/h (1 Bft)
31.01.2018 16:13 8,5 °C 57 % 1011,0 hPa 0,0 mm 1,8 km/h (1 Bft) W 262 ° 0 min 0,000 mm 0,0 UV-I 39 W/m² 0,5 °C 8,5 °C 4,8 km/h (1 Bft)
31.01.2018 16:14 8,4 °C 57 % 1011,0 hPa 0,0 mm 4,0 km/h (1 Bft) W 264 ° 0 min 0,000 mm 0,0 UV-I 39 W/m² 0,4 °C 8,4 °C 6,4 km/h (2 Bft)
31.01.2018 16:15 8,4 °C 58 % 1011,0 hPa 0,0 mm 5,5 km/h (1 Bft) W-SW 250 ° 0 min 0,000 mm 0,0 UV-I 39 W/m² 0,6 °C 7,8 °C 12,9 km/h (3 Bft)
31.01.2018 16:16 8,4 °C 59 % 1010,9 hPa 0,0 mm 6,4 km/h (2 Bft) W-SW 251 ° 0 min 0,000 mm 0,0 UV-I 39 W/m² 0,9 °C 7,5 °C 12,9 km/h (3 Bft)
31.01.2018 16:17 8,4 °C 58 % 1010,9 hPa 0,0 mm 5,0 km/h (1 Bft) W 281 ° 0 min 0,000 mm 0,0 UV-I 39 W/m² 0,6 °C 7,9 °C 8,0 km/h (2 Bft)
31.01.2018 16:18 8,3 °C 58 % 1010,9 hPa 0,0 mm 4,1 km/h (1 Bft) W-NW 297 ° 0 min 0,000 mm 0,0 UV-I 37 W/m² 0,5 °C 8,3 °C 9,7 km/h (2 Bft)
31.01.2018 16:19 8,3 °C 58 % 1010,8 hPa 0,0 mm 4,1 km/h (1 Bft) SW 226 ° 0 min 0,000 mm 0,0 UV-I 35 W/m² 0,5 °C 8,3 °C 8,0 km/h (2 Bft)
31.01.2018 16:20 8,3 °C 57 % 1010,8 hPa 0,0 mm 3,6 km/h (1 Bft) W 263 ° 0 min 0,000 mm 0,0 UV-I 35 W/m² 0,3 °C 8,3 °C 9,7 km/h (2 Bft)
31.01.2018 16:21 8,3 °C 57 % 1010,9 hPa 0,0 mm 5,2 km/h (1 Bft) W-SW 246 ° 0 min 0,000 mm 0,0 UV-I 35 W/m² 0,3 °C 7,8 °C 11,3 km/h (2 Bft)
31.01.2018 16:22 8,3 °C 59 % 1010,8 hPa 0,0 mm 6,3 km/h (2 Bft) W-SW 255 ° 0 min 0,000 mm 0,0 UV-I 35 W/m² 0,8 °C 7,4 °C 9,7 km/h (2 Bft)
31.01.2018 16:23 8,2 °C 59 % 1010,8 hPa 0,0 mm 4,8 km/h (1 Bft) SW 225 ° 0 min 0,000 mm 0,0 UV-I 33 W/m² 0,7 °C 7,8 °C 6,4 km/h (2 Bft)
31.01.2018 16:24 8,3 °C 57 % 1010,8 hPa 0,0 mm 6,4 km/h (2 Bft) W-SW 247 ° 0 min 0,000 mm 0,0 UV-I 33 W/m² 0,3 °C 7,4 °C 11,3 km/h (2 Bft)
31.01.2018 16:25 8,3 °C 57 % 1010,7 hPa 0,0 mm 2,7 km/h (1 Bft) W-SW 242 ° 0 min 0,000 mm 0,0 UV-I 33 W/m² 0,3 °C 8,3 °C 4,8 km/h (1 Bft)
31.01.2018 16:26 8,3 °C 57 % 1010,7 hPa 0,0 mm 3,8 km/h (1 Bft) SW 229 ° 0 min 0,000 mm 0,0 UV-I 35 W/m² 0,3 °C 8,3 °C 8,0 km/h (2 Bft)
31.01.2018 16:27 8,3 °C 58 % 1010,7 hPa 0,0 mm 2,5 km/h (1 Bft) W-SW 257 ° 0 min 0,000 mm 0,0 UV-I 37 W/m² 0,5 °C 8,3 °C 4,8 km/h (1 Bft)
31.01.2018 16:28 8,3 °C 57 % 1010,7 hPa 0,0 mm 0,0 km/h (0 Bft) W-SW 257 ° 0 min 0,000 mm 0,0 UV-I 39 W/m² 0,3 °C 8,3 °C 0,0 km/h (0 Bft)
31.01.2018 16:29 8,3 °C 58 % 1010,6 hPa 0,0 mm 0,0 km/h (0 Bft) W-SW 257 ° 0 min 0,000 mm 0,0 UV-I 39 W/m² 0,5 °C 8,3 °C 0,0 km/h (0 Bft)
31.01.2018 16:30 8,2 °C 58 % 1010,6 hPa 0,0 mm 0,9 km/h (0 Bft) W-SW 257 ° 0 min 0,000 mm 0,0 UV-I 37 W/m² 0,4 °C 8,2 °C 1,6 km/h (1 Bft)
31.01.2018 16:31 8,2 °C 58 % 1010,5 hPa 0,0 mm 1,8 km/h (1 Bft) W-SW 257 ° 0 min 0,000 mm 0,0 UV-I 37 W/m² 0,4 °C 8,2 °C 3,2 km/h (1 Bft)
31.01.2018 16:32 8,2 °C 58 % 1010,4 hPa 0,0 mm 1,9 km/h (1 Bft) SW 229 ° 0 min 0,000 mm 0,0 UV-I 35 W/m² 0,4 °C 8,2 °C 3,2 km/h (1 Bft)
31.01.2018 16:33 8,2 °C 57 % 1010,4 hPa 0,0 mm 4,7 km/h (1 Bft) W-SW 246 ° 0 min 0,000 mm 0,0 UV-I 33 W/m² 0,2 °C 7,8 °C 8,0 km/h (2 Bft)
31.01.2018 16:34 8,3 °C 58 % 1010,4 hPa 0,0 mm 4,5 km/h (1 Bft) S-SW 195 ° 0 min 0,000 mm 0,0 UV-I 33 W/m² 0,5 °C 8,3 °C 6,4 km/h (2 Bft)
31.01.2018 16:35 8,2 °C 58 % 1010,4 hPa 0,0 mm 1,8 km/h (1 Bft) S-SW 195 ° 0 min 0,000 mm 0,0 UV-I 32 W/m² 0,4 °C 8,2 °C 4,8 km/h (1 Bft)
31.01.2018 16:36 8,3 °C 58 % 1010,3 hPa 0,0 mm 2,5 km/h (1 Bft) S-SW 195 ° 0 min 0,000 mm 0,0 UV-I 32 W/m² 0,5 °C 8,3 °C 4,8 km/h (1 Bft)
31.01.2018 16:37 8,2 °C 58 % 1010,3 hPa 0,0 mm 5,6 km/h (1 Bft) S-SW 210 ° 0 min 0,000 mm 0,0 UV-I 30 W/m² 0,4 °C 7,5 °C 8,0 km/h (2 Bft)
31.01.2018 16:38 8,2 °C 58 % 1010,3 hPa 0,0 mm 3,7 km/h (1 Bft) S-SW 208 ° 0 min 0,000 mm 0,0 UV-I 30 W/m² 0,4 °C 8,2 °C 6,4 km/h (2 Bft)
31.01.2018 16:39 8,2 °C 57 % 1010,2 hPa 0,0 mm 4,2 km/h (1 Bft) S-SW 205 ° 0 min 0,000 mm 0,0 UV-I 28 W/m² 0,2 °C 8,2 °C 6,4 km/h (2 Bft)
31.01.2018 16:40 8,2 °C 59 % 1010,2 hPa 0,0 mm 3,8 km/h (1 Bft) S 189 ° 0 min 0,000 mm 0,0 UV-I 28 W/m² 0,7 °C 8,2 °C 9,7 km/h (2 Bft)
31.01.2018 16:41 8,2 °C 57 % 1010,2 hPa 0,0 mm 3,9 km/h (1 Bft) S 191 ° 0 min 0,000 mm 0,0 UV-I 26 W/m² 0,2 °C 8,2 °C 8,0 km/h (2 Bft)
31.01.2018 16:42 8,2 °C 58 % 1010,2 hPa 0,0 mm 3,8 km/h (1 Bft) S-SW 201 ° 0 min 0,000 mm 0,0 UV-I 26 W/m² 0,4 °C 8,2 °C 6,4 km/h (2 Bft)
31.01.2018 16:43 8,1 °C 58 % 1010,2 hPa 0,0 mm 2,5 km/h (1 Bft) W-SW 240 ° 0 min 0,000 mm 0,0 UV-I 25 W/m² 0,3 °C 8,1 °C 4,8 km/h (1 Bft)
31.01.2018 16:44 8,1 °C 58 % 1010,2 hPa 0,0 mm 4,2 km/h (1 Bft) S-SW 202 ° 0 min 0,000 mm 0,0 UV-I 25 W/m² 0,3 °C 8,1 °C 8,0 km/h (2 Bft)
31.01.2018 16:45 8,1 °C 58 % 1010,2 hPa 0,0 mm 4,1 km/h (1 Bft) SW 234 ° 0 min 0,000 mm 0,0 UV-I 23 W/m² 0,3 °C 8,1 °C 6,4 km/h (2 Bft)
31.01.2018 16:46 8,1 °C 58 % 1010,1 hPa 0,0 mm 4,2 km/h (1 Bft) S-SW 207 ° 0 min 0,000 mm 0,0 UV-I 21 W/m² 0,3 °C 8,1 °C 6,4 km/h (2 Bft)
31.01.2018 16:47 8,1 °C 59 % 1010,1 hPa 0,0 mm 3,2 km/h (1 Bft) S-SW 207 ° 0 min 0,000 mm 0,0 UV-I 19 W/m² 0,6 °C 8,1 °C 6,4 km/h (2 Bft)
31.01.2018 16:48 8,1 °C 58 % 1010,0 hPa 0,0 mm 5,9 km/h (2 Bft) SW 227 ° 0 min 0,000 mm 0,0 UV-I 19 W/m² 0,3 °C 7,3 °C 8,0 km/h (2 Bft)
31.01.2018 16:49 8,1 °C 57 % 1010,0 hPa 0,0 mm 4,3 km/h (1 Bft) S-SW 211 ° 0 min 0,000 mm 0,0 UV-I 18 W/m² 0,1 °C 8,1 °C 6,4 km/h (2 Bft)
31.01.2018 16:50 8,1 °C 57 % 1010,0 hPa 0,0 mm 3,9 km/h (1 Bft) S-SW 198 ° 0 min 0,000 mm 0,0 UV-I 18 W/m² 0,1 °C 8,1 °C 8,0 km/h (2 Bft)
31.01.2018 16:51 8,1 °C 58 % 1010,0 hPa 0,0 mm 6,0 km/h (2 Bft) S 186 ° 0 min 0,000 mm 0,0 UV-I 18 W/m² 0,3 °C 7,3 °C 8,0 km/h (2 Bft)
31.01.2018 16:52 8,0 °C 59 % 1009,9 hPa 0,0 mm 4,4 km/h (1 Bft) S 182 ° 0 min 0,000 mm 0,0 UV-I 16 W/m² 0,5 °C 8,0 °C 6,4 km/h (2 Bft)
31.01.2018 16:53 7,9 °C 58 % 1009,9 hPa 0,0 mm 3,0 km/h (1 Bft) S 187 ° 0 min 0,000 mm 0,0 UV-I 16 W/m² 0,2 °C 7,9 °C 4,8 km/h (1 Bft)
31.01.2018 16:54 7,9 °C 59 % 1009,9 hPa 0,0 mm 2,9 km/h (1 Bft) S 186 ° 0 min 0,000 mm 0,0 UV-I 16 W/m² 0,4 °C 7,9 °C 4,8 km/h (1 Bft)
31.01.2018 16:55 7,9 °C 59 % 1010,0 hPa 0,0 mm 3,0 km/h (1 Bft) W-SW 243 ° 0 min 0,000 mm 0,0 UV-I 14 W/m² 0,4 °C 7,9 °C 4,8 km/h (1 Bft)
31.01.2018 16:56 7,9 °C 59 % 1009,9 hPa 0,0 mm 3,2 km/h (1 Bft) SW 221 ° 0 min 0,000 mm 0,0 UV-I 12 W/m² 0,4 °C 7,9 °C 4,8 km/h (1 Bft)
31.01.2018 16:57 7,9 °C 59 % 1010,0 hPa 0,0 mm 1,8 km/h (1 Bft) SW 231 ° 0 min 0,000 mm 0,0 UV-I 12 W/m² 0,4 °C 7,9 °C 4,8 km/h (1 Bft)
31.01.2018 16:58 7,8 °C 59 % 1009,9 hPa 0,0 mm 0,3 km/h (0 Bft) SW 231 ° 0 min 0,000 mm 0,0 UV-I 11 W/m² 0,3 °C 7,8 °C 3,2 km/h (1 Bft)
31.01.2018 16:59 7,8 °C 59 % 1009,9 hPa 0,0 mm 0,1 km/h (0 Bft) SW 231 ° 0 min 0,000 mm 0,0 UV-I 11 W/m² 0,3 °C 7,8 °C 1,6 km/h (1 Bft)
31.01.2018 17:00 7,8 °C 59 % 1010,0 hPa 0,0 mm 2,5 km/h (1 Bft) SW 231 ° 0 min 0,000 mm 0,0 UV-I 11 W/m² 0,3 °C 7,8 °C 3,2 km/h (1 Bft)
31.01.2018 17:01 7,8 °C 60 % 1009,9 hPa 0,0 mm 1,3 km/h (1 Bft) SW 231 ° 0 min 0,026 mm 0,0 UV-I 11 W/m² 0,5 °C 7,8 °C 3,2 km/h (1 Bft)
31.01.2018 17:02 7,8 °C 59 % 1009,8 hPa 0,0 mm 2,2 km/h (1 Bft) SW 231 ° 0 min 0,000 mm 0,0 UV-I 9 W/m² 0,3 °C 7,8 °C 3,2 km/h (1 Bft)
31.01.2018 17:03 7,8 °C 59 % 1009,8 hPa 0,0 mm 1,8 km/h (1 Bft) SW 231 ° 0 min 0,000 mm 0,0 UV-I 7 W/m² 0,3 °C 7,8 °C 3,2 km/h (1 Bft)
31.01.2018 17:04 7,8 °C 59 % 1009,7 hPa 0,0 mm 1,6 km/h (1 Bft) SW 231 ° 0 min 0,000 mm 0,0 UV-I 7 W/m² 0,3 °C 7,8 °C 3,2 km/h (1 Bft)
31.01.2018 17:05 7,8 °C 59 % 1009,7 hPa 0,0 mm 2,2 km/h (1 Bft) SW 231 ° 0 min 0,000 mm 0,0 UV-I 7 W/m² 0,3 °C 7,8 °C 3,2 km/h (1 Bft)
31.01.2018 17:06 7,8 °C 59 % 1009,7 hPa 0,0 mm 1,7 km/h (1 Bft) SW 231 ° 0 min 0,000 mm 0,0 UV-I 7 W/m² 0,3 °C 7,8 °C 3,2 km/h (1 Bft)
31.01.2018 17:07 7,8 °C 58 % 1009,7 hPa 0,0 mm 2,0 km/h (1 Bft) SW 231 ° 0 min 0,000 mm 0,0 UV-I 9 W/m² 0,1 °C 7,8 °C 3,2 km/h (1 Bft)
31.01.2018 17:08 7,8 °C 58 % 1009,7 hPa 0,0 mm 2,2 km/h (1 Bft) SW 231 ° 0 min 0,000 mm 0,0 UV-I 7 W/m² 0,1 °C 7,8 °C 3,2 km/h (1 Bft)
31.01.2018 17:09 7,8 °C 58 % 1009,7 hPa 0,0 mm 2,8 km/h (1 Bft) SW 231 ° 0 min 0,000 mm 0,0 UV-I 7 W/m² 0,1 °C 7,8 °C 4,8 km/h (1 Bft)
31.01.2018 17:10 7,8 °C 58 % 1009,7 hPa 0,0 mm 3,0 km/h (1 Bft) SW 232 ° 0 min 0,000 mm 0,0 UV-I 7 W/m² 0,1 °C 7,8 °C 4,8 km/h (1 Bft)
31.01.2018 17:11 7,8 °C 58 % 1009,7 hPa 0,0 mm 3,0 km/h (1 Bft) SW 215 ° 0 min 0,000 mm 0,0 UV-I 5 W/m² 0,1 °C 7,8 °C 4,8 km/h (1 Bft)
31.01.2018 17:12 7,8 °C 58 % 1009,6 hPa 0,0 mm 3,8 km/h (1 Bft) S-SW 195 ° 0 min 0,000 mm 0,0 UV-I 5 W/m² 0,1 °C 7,8 °C 4,8 km/h (1 Bft)
31.01.2018 17:13 7,8 °C 58 % 1009,6 hPa 0,0 mm 3,0 km/h (1 Bft) S-SW 195 ° 0 min 0,000 mm 0,0 UV-I 5 W/m² 0,1 °C 7,8 °C 4,8 km/h (1 Bft)
31.01.2018 17:14 7,7 °C 58 % 1009,6 hPa 0,0 mm 4,8 km/h (1 Bft) W-SW 258 ° 0 min 0,000 mm 0,0 UV-I 0 W/m² -0,0 °C 7,2 °C 6,4 km/h (2 Bft)
31.01.2018 17:15 7,7 °C 58 % 1009,7 hPa 0,0 mm 3,7 km/h (1 Bft) S-SW 205 ° 0 min 0,000 mm 0,0 UV-I 0 W/m² -0,0 °C 7,7 °C 4,8 km/h (1 Bft)
31.01.2018 17:16 7,7 °C 58 % 1009,7 hPa 0,0 mm 2,5 km/h (1 Bft) S-SW 201 ° 0 min 0,000 mm 0,0 UV-I 0 W/m² -0,0 °C 7,7 °C 4,8 km/h (1 Bft)
31.01.2018 17:17 7,7 °C 58 % 1009,7 hPa 0,0 mm 2,9 km/h (1 Bft) S-SW 201 ° 0 min 0,000 mm 0,0 UV-I 0 W/m² -0,0 °C 7,7 °C 3,2 km/h (1 Bft)
31.01.2018 17:18 7,7 °C 58 % 1009,7 hPa 0,0 mm 1,5 km/h (1 Bft) S-SW 201 ° 0 min 0,000 mm 0,0 UV-I 0 W/m² -0,0 °C 7,7 °C 3,2 km/h (1 Bft)
31.01.2018 17:19 7,7 °C 58 % 1009,7 hPa 0,0 mm 1,2 km/h (1 Bft) S-SW 201 ° 0 min 0,000 mm 0,0 UV-I 0 W/m² -0,0 °C 7,7 °C 3,2 km/h (1 Bft)
31.01.2018 17:20 7,7 °C 58 % 1009,7 hPa 0,0 mm 2,6 km/h (1 Bft) W 261 ° 0 min 0,000 mm 0,0 UV-I 5 W/m² -0,0 °C 7,7 °C 6,4 km/h (2 Bft)
31.01.2018 17:21 7,6 °C 59 % 1009,7 hPa 0,0 mm 2,8 km/h (1 Bft) W 261 ° 0 min 0,000 mm 0,0 UV-I 5 W/m² 0,1 °C 7,6 °C 4,8 km/h (1 Bft)
31.01.2018 17:22 7,6 °C 59 % 1009,7 hPa 0,0 mm 1,5 km/h (1 Bft) W 261 ° 0 min 0,000 mm 0,0 UV-I 0 W/m² 0,1 °C 7,6 °C 3,2 km/h (1 Bft)
31.01.2018 17:23 7,6 °C 58 % 1009,7 hPa 0,0 mm 1,5 km/h (1 Bft) W 261 ° 0 min 0,000 mm 0,0 UV-I 0 W/m² -0,1 °C 7,6 °C 3,2 km/h (1 Bft)
31.01.2018 17:24 7,6 °C 58 % 1009,7 hPa 0,0 mm 3,8 km/h (1 Bft) S-SW 192 ° 0 min 0,000 mm 0,0 UV-I 0 W/m² -0,1 °C 7,6 °C 6,4 km/h (2 Bft)
31.01.2018 17:25 7,6 °C 58 % 1009,7 hPa 0,0 mm 4,2 km/h (1 Bft) S-SW 204 ° 0 min 0,000 mm 0,0 UV-I 0 W/m² -0,1 °C 7,6 °C 6,4 km/h (2 Bft)
31.01.2018 17:26 7,6 °C 58 % 1009,6 hPa 0,0 mm 3,9 km/h (1 Bft) S-SW 205 ° 0 min 0,000 mm 0,0 UV-I 0 W/m² -0,1 °C 7,6 °C 6,4 km/h (2 Bft)
31.01.2018 17:27 7,5 °C 58 % 1009,5 hPa 0,0 mm 5,4 km/h (1 Bft) S-SW 205 ° 0 min 0,000 mm 0,0 UV-I 0 W/m² -0,2 °C 6,8 °C 8,0 km/h (2 Bft)
31.01.2018 17:28 7,4 °C 58 % 1009,5 hPa 0,0 mm 4,8 km/h (1 Bft) S-SW 212 ° 0 min 0,000 mm 0,0 UV-I 0 W/m² -0,3 °C 6,9 °C 8,0 km/h (2 Bft)
31.01.2018 17:29 7,4 °C 58 % 1009,5 hPa 0,0 mm 5,6 km/h (1 Bft) S-SW 202 ° 0 min 0,000 mm 0,0 UV-I 0 W/m² -0,3 °C 6,6 °C 8,0 km/h (2 Bft)
31.01.2018 17:30 7,4 °C 58 % 1009,5 hPa 0,0 mm 7,6 km/h (2 Bft) S-SW 197 ° 0 min 0,000 mm 0,0 UV-I 0 W/m² -0,3 °C 6,0 °C 9,7 km/h (2 Bft)
31.01.2018 17:31 7,4 °C 58 % 1009,5 hPa 0,0 mm 4,2 km/h (1 Bft) S-SW 196 ° 0 min 0,000 mm 0,0 UV-I 0 W/m² -0,3 °C 7,4 °C 8,0 km/h (2 Bft)
31.01.2018 17:32 7,4 °C 60 % 1009,4 hPa 0,0 mm 4,1 km/h (1 Bft) S-SW 204 ° 0 min 0,000 mm 0,0 UV-I 0 W/m² 0,2 °C 7,4 °C 6,4 km/h (2 Bft)
31.01.2018 17:33 7,4 °C 59 % 1009,4 hPa 0,0 mm 3,4 km/h (1 Bft) S-SW 211 ° 0 min 0,000 mm 0,0 UV-I 0 W/m² -0,1 °C 7,4 °C 6,4 km/h (2 Bft)
31.01.2018 17:34 7,4 °C 59 % 1009,4 hPa 0,0 mm 4,5 km/h (1 Bft) S 179 ° 0 min 0,000 mm 0,0 UV-I 0 W/m² -0,1 °C 7,4 °C 8,0 km/h (2 Bft)
31.01.2018 17:35 7,3 °C 59 % 1009,4 hPa 0,0 mm 5,0 km/h (1 Bft) S-SW 207 ° 0 min 0,000 mm 0,0 UV-I 0 W/m² -0,2 °C 6,7 °C 6,4 km/h (2 Bft)
31.01.2018 17:36 7,3 °C 59 % 1009,5 hPa 0,0 mm 3,6 km/h (1 Bft) S-SW 196 ° 0 min 0,000 mm 0,0 UV-I 0 W/m² -0,2 °C 7,3 °C 6,4 km/h (2 Bft)
31.01.2018 17:37 7,3 °C 59 % 1009,5 hPa 0,0 mm 4,0 km/h (1 Bft) SW 232 ° 0 min 0,000 mm 0,0 UV-I 0 W/m² -0,2 °C 7,3 °C 4,8 km/h (1 Bft)
31.01.2018 17:38 7,3 °C 59 % 1009,4 hPa 0,0 mm 3,8 km/h (1 Bft) S-SW 206 ° 0 min 0,000 mm 0,0 UV-I 0 W/m² -0,2 °C 7,3 °C 4,8 km/h (1 Bft)
31.01.2018 17:39 7,3 °C 59 % 1009,4 hPa 0,0 mm 4,3 km/h (1 Bft) S-SW 205 ° 0 min 0,000 mm 0,0 UV-I 0 W/m² -0,2 °C 7,3 °C 6,4 km/h (2 Bft)
31.01.2018 17:40 7,3 °C 59 % 1009,4 hPa 0,0 mm 3,8 km/h (1 Bft) S-SW 193 ° 0 min 0,000 mm 0,0 UV-I 0 W/m² -0,2 °C 7,3 °C 8,0 km/h (2 Bft)
31.01.2018 17:41 7,3 °C 59 % 1009,4 hPa 0,0 mm 6,0 km/h (2 Bft) S-SW 199 ° 0 min 0,000 mm 0,0 UV-I 0 W/m² -0,2 °C 6,4 °C 8,0 km/h (2 Bft)
31.01.2018 17:42 7,2 °C 59 % 1009,4 hPa 0,0 mm 4,6 km/h (1 Bft) S-SW 213 ° 0 min 0,000 mm 0,0 UV-I 0 W/m² -0,3 °C 6,7 °C 8,0 km/h (2 Bft)
31.01.2018 17:43 7,2 °C 60 % 1009,4 hPa 0,0 mm 3,2 km/h (1 Bft) S-SW 202 ° 0 min 0,000 mm 0,0 UV-I 0 W/m² -0,0 °C 7,2 °C 4,8 km/h (1 Bft)
31.01.2018 17:44 7,2 °C 60 % 1009,4 hPa 0,0 mm 1,0 km/h (0 Bft) S-SW 202 ° 0 min 0,000 mm 0,0 UV-I 0 W/m² -0,0 °C 7,2 °C 1,6 km/h (1 Bft)
31.01.2018 17:45 7,2 °C 60 % 1009,4 hPa 0,0 mm 5,1 km/h (1 Bft) S-SW 202 ° 0 min 0,000 mm 0,0 UV-I 0 W/m² -0,0 °C 6,5 °C 6,4 km/h (2 Bft)
31.01.2018 17:46 7,2 °C 59 % 1009,3 hPa 0,0 mm 6,4 km/h (2 Bft) S-SW 205 ° 0 min 0,000 mm 0,0 UV-I 0 W/m² -0,3 °C 6,1 °C 9,7 km/h (2 Bft)
31.01.2018 17:47 7,2 °C 60 % 1009,3 hPa 0,0 mm 4,0 km/h (1 Bft) S-SW 200 ° 0 min 0,000 mm 0,0 UV-I 0 W/m² -0,0 °C 7,2 °C 6,4 km/h (2 Bft)
31.01.2018 17:48 7,1 °C 60 % 1009,2 hPa 0,0 mm 4,7 km/h (1 Bft) S-SW 205 ° 0 min 0,000 mm 0,0 UV-I 0 W/m² -0,1 °C 6,6 °C 6,4 km/h (2 Bft)
31.01.2018 17:49 7,1 °C 60 % 1009,3 hPa 0,0 mm 3,7 km/h (1 Bft) S-SW 202 ° 0 min 0,000 mm 0,0 UV-I 0 W/m² -0,1 °C 7,1 °C 6,4 km/h (2 Bft)
31.01.2018 17:50 7,1 °C 61 % 1009,2 hPa 0,0 mm 3,2 km/h (1 Bft) S-SW 200 ° 0 min 0,000 mm 0,0 UV-I 0 W/m² 0,1 °C 7,1 °C 4,8 km/h (1 Bft)
31.01.2018 17:51 7,1 °C 61 % 1009,2 hPa 0,0 mm 1,9 km/h (1 Bft) S-SW 200 ° 0 min 0,000 mm 0,0 UV-I 0 W/m² 0,1 °C 7,1 °C 3,2 km/h (1 Bft)
31.01.2018 17:52 7,0 °C 62 % 1009,2 hPa 0,0 mm 3,1 km/h (1 Bft) S-SW 200 ° 0 min 0,000 mm 0,0 UV-I 0 W/m² 0,2 °C 7,0 °C 6,4 km/h (2 Bft)
31.01.2018 17:53 7,0 °C 63 % 1009,2 hPa 0,0 mm 2,8 km/h (1 Bft) S-SW 200 ° 0 min 0,000 mm 0,0 UV-I 0 W/m² 0,4 °C 7,0 °C 4,8 km/h (1 Bft)
31.01.2018 17:54 6,9 °C 62 % 1009,1 hPa 0,0 mm 2,0 km/h (1 Bft) S-SW 200 ° 0 min 0,000 mm 0,0 UV-I 0 W/m² 0,1 °C 6,9 °C 3,2 km/h (1 Bft)
31.01.2018 17:55 6,9 °C 62 % 1009,1 hPa 0,0 mm 3,0 km/h (1 Bft) S-SW 200 ° 0 min 0,000 mm 0,0 UV-I 0 W/m² 0,1 °C 6,9 °C 4,8 km/h (1 Bft)
31.01.2018 17:56 6,9 °C 62 % 1009,1 hPa 0,0 mm 2,5 km/h (1 Bft) S-SW 200 ° 0 min 0,000 mm 0,0 UV-I 0 W/m² 0,1 °C 6,9 °C 3,2 km/h (1 Bft)
31.01.2018 17:57 6,9 °C 62 % 1009,1 hPa 0,0 mm 1,1 km/h (1 Bft) S-SW 200 ° 0 min 0,000 mm 0,0 UV-I 0 W/m² 0,1 °C 6,9 °C 3,2 km/h (1 Bft)
31.01.2018 17:58 6,8 °C 62 % 1009,1 hPa 0,0 mm 1,8 km/h (1 Bft) S-SW 200 ° 0 min 0,000 mm 0,0 UV-I 0 W/m² 0,0 °C 6,8 °C 3,2 km/h (1 Bft)
31.01.2018 17:59 6,8 °C 63 % 1009,1 hPa 0,0 mm 0,5 km/h (0 Bft) S-SW 200 ° 0 min 0,000 mm 0,0 UV-I 0 W/m² 0,3 °C 6,8 °C 1,6 km/h (1 Bft)
31.01.2018 18:00 6,8 °C 63 % 1009,0 hPa 0,0 mm 1,2 km/h (1 Bft) S-SW 200 ° 0 min 0,000 mm 0,0 UV-I 0 W/m² 0,3 °C 6,8 °C 3,2 km/h (1 Bft)
31.01.2018 18:01 6,8 °C 63 % 1009,1 hPa 0,0 mm 0,3 km/h (0 Bft) S-SW 200 ° 0 min 0,025 mm 0,0 UV-I 0 W/m² 0,3 °C 6,8 °C 1,6 km/h (1 Bft)
31.01.2018 18:02 6,7 °C 63 % 1009,0 hPa 0,0 mm 0,0 km/h (0 Bft) S-SW 200 ° 0 min 0,000 mm 0,0 UV-I 0 W/m² 0,2 °C 6,7 °C 0,0 km/h (0 Bft)
31.01.2018 18:03 6,7 °C 63 % 1009,0 hPa 0,0 mm 0,0 km/h (0 Bft) S-SW 200 ° 0 min 0,000 mm 0,0 UV-I 0 W/m² 0,2 °C 6,7 °C 0,0 km/h (0 Bft)
31.01.2018 18:04 6,7 °C 64 % 1009,0 hPa 0,0 mm 0,2 km/h (0 Bft) S-SW 200 ° 0 min 0,000 mm 0,0 UV-I 0 W/m² 0,4 °C 6,7 °C 1,6 km/h (1 Bft)
31.01.2018 18:05 6,7 °C 63 % 1008,9 hPa 0,0 mm 1,5 km/h (1 Bft) W-SW 252 ° 0 min 0,000 mm 0,0 UV-I 0 W/m² 0,2 °C 6,7 °C 6,4 km/h (2 Bft)
31.01.2018 18:06 6,6 °C 63 % 1009,0 hPa 0,0 mm 3,3 km/h (1 Bft) W-SW 245 ° 0 min 0,000 mm 0,0 UV-I 0 W/m² 0,1 °C 6,6 °C 6,4 km/h (2 Bft)
31.01.2018 18:07 6,6 °C 64 % 1009,0 hPa 0,0 mm 1,5 km/h (1 Bft) W-SW 245 ° 0 min 0,000 mm 0,0 UV-I 0 W/m² 0,3 °C 6,6 °C 3,2 km/h (1 Bft)
31.01.2018 18:08 6,6 °C 64 % 1009,0 hPa 0,0 mm 3,3 km/h (1 Bft) S 185 ° 0 min 0,000 mm 0,0 UV-I 0 W/m² 0,3 °C 6,6 °C 4,8 km/h (1 Bft)
31.01.2018 18:09 6,5 °C 65 % 1008,9 hPa 0,0 mm 2,1 km/h (1 Bft) S 185 ° 0 min 0,000 mm 0,0 UV-I 0 W/m² 0,4 °C 6,5 °C 3,2 km/h (1 Bft)
31.01.2018 18:10 6,4 °C 65 % 1008,9 hPa 0,0 mm 0,1 km/h (0 Bft) S 185 ° 0 min 0,000 mm 0,0 UV-I 0 W/m² 0,3 °C 6,4 °C 1,6 km/h (1 Bft)
31.01.2018 18:11 6,4 °C 65 % 1008,8 hPa 0,0 mm 0,0 km/h (0 Bft) S 185 ° 0 min 0,000 mm 0,0 UV-I 0 W/m² 0,3 °C 6,4 °C 0,0 km/h (0 Bft)
31.01.2018 18:12 6,4 °C 65 % 1008,8 hPa 0,0 mm 0,0 km/h (0 Bft) S 185 ° 0 min 0,000 mm 0,0 UV-I 0 W/m² 0,3 °C 6,4 °C 0,0 km/h (0 Bft)
31.01.2018 18:13 6,3 °C 65 % 1008,8 hPa 0,0 mm 0,0 km/h (0 Bft) S 185 ° 0 min 0,000 mm 0,0 UV-I 0 W/m² 0,2 °C 6,3 °C 0,0 km/h (0 Bft)
31.01.2018 18:14 6,3 °C 65 % 1008,7 hPa 0,0 mm 1,3 km/h (1 Bft) S 185 ° 0 min 0,000 mm 0,0 UV-I 0 W/m² 0,2 °C 6,3 °C 1,6 km/h (1 Bft)
31.01.2018 18:15 6,3 °C 65 % 1008,6 hPa 0,0 mm 0,6 km/h (0 Bft) S 185 ° 0 min 0,000 mm 0,0 UV-I 0 W/m² 0,2 °C 6,3 °C 1,6 km/h (1 Bft)
31.01.2018 18:16 6,3 °C 66 % 1008,6 hPa 0,0 mm 0,0 km/h (0 Bft) S 185 ° 0 min 0,000 mm 0,0 UV-I 0 W/m² 0,4 °C 6,3 °C 0,0 km/h (0 Bft)
31.01.2018 18:17 6,2 °C 66 % 1008,6 hPa 0,0 mm 0,0 km/h (0 Bft) S 185 ° 0 min 0,000 mm 0,0 UV-I 0 W/m² 0,3 °C 6,2 °C 0,0 km/h (0 Bft)
31.01.2018 18:18 6,2 °C 66 % 1008,6 hPa 0,0 mm 0,0 km/h (0 Bft) S 185 ° 0 min 0,000 mm 0,0 UV-I 0 W/m² 0,3 °C 6,2 °C 0,0 km/h (0 Bft)
31.01.2018 18:19 6,2 °C 66 % 1008,5 hPa 0,0 mm 0,0 km/h (0 Bft) S 185 ° 0 min 0,000 mm 0,0 UV-I 0 W/m² 0,3 °C 6,2 °C 0,0 km/h (0 Bft)
31.01.2018 18:20 6,2 °C 66 % 1008,5 hPa 0,0 mm 0,0 km/h (0 Bft) S 185 ° 0 min 0,000 mm 0,0 UV-I 0 W/m² 0,3 °C 6,2 °C 0,0 km/h (0 Bft)
31.01.2018 18:21 6,2 °C 66 % 1008,4 hPa 0,0 mm 0,0 km/h (0 Bft) S 185 ° 0 min 0,000 mm 0,0 UV-I 0 W/m² 0,3 °C 6,2 °C 0,0 km/h (0 Bft)
31.01.2018 18:22 6,1 °C 66 % 1008,4 hPa 0,0 mm 0,0 km/h (0 Bft) S 185 ° 0 min 0,000 mm 0,0 UV-I 0 W/m² 0,2 °C 6,1 °C 0,0 km/h (0 Bft)
31.01.2018 18:23 6,1 °C 66 % 1008,3 hPa 0,0 mm 0,7 km/h (0 Bft) S 185 ° 0 min 0,000 mm 0,0 UV-I 0 W/m² 0,2 °C 6,1 °C 1,6 km/h (1 Bft)
31.01.2018 18:24 6,1 °C 67 % 1008,4 hPa 0,0 mm 0,4 km/h (0 Bft) S 185 ° 0 min 0,000 mm 0,0 UV-I 0 W/m² 0,4 °C 6,1 °C 1,6 km/h (1 Bft)
31.01.2018 18:25 6,1 °C 67 % 1008,3 hPa 0,0 mm 0,0 km/h (0 Bft) S 185 ° 0 min 0,000 mm 0,0 UV-I 0 W/m² 0,4 °C 6,1 °C 0,0 km/h (0 Bft)
31.01.2018 18:26 6,0 °C 67 % 1008,3 hPa 0,0 mm 0,0 km/h (0 Bft) S 185 ° 0 min 0,000 mm 0,0 UV-I 0 W/m² 0,3 °C 6,0 °C 0,0 km/h (0 Bft)
31.01.2018 18:27 5,9 °C 68 % 1008,2 hPa 0,0 mm 1,1 km/h (1 Bft) S 177 ° 0 min 0,000 mm 0,0 UV-I 0 W/m² 0,5 °C 5,9 °C 3,2 km/h (1 Bft)
31.01.2018 18:28 5,9 °C 68 % 1008,2 hPa 0,0 mm 1,6 km/h (1 Bft) W 262 ° 0 min 0,000 mm 0,0 UV-I 0 W/m² 0,5 °C 5,9 °C 4,8 km/h (1 Bft)
31.01.2018 18:29 5,9 °C 68 % 1008,3 hPa 0,0 mm 6,5 km/h (2 Bft) S-SW 204 ° 0 min 0,000 mm 0,0 UV-I 0 W/m² 0,5 °C 4,6 °C 9,7 km/h (2 Bft)
31.01.2018 18:30 5,8 °C 67 % 1008,3 hPa 0,0 mm 3,0 km/h (1 Bft) SW 233 ° 0 min 0,000 mm 0,0 UV-I 0 W/m² 0,2 °C 5,8 °C 8,0 km/h (2 Bft)
31.01.2018 18:31 5,8 °C 68 % 1008,2 hPa 0,0 mm 0,5 km/h (0 Bft) SW 233 ° 0 min 0,000 mm 0,0 UV-I 0 W/m² 0,4 °C 5,8 °C 1,6 km/h (1 Bft)
31.01.2018 18:32 5,8 °C 69 % 1008,1 hPa 0,0 mm 0,5 km/h (0 Bft) SW 233 ° 0 min 0,000 mm 0,0 UV-I 0 W/m² 0,6 °C 5,8 °C 3,2 km/h (1 Bft)
31.01.2018 18:33 5,8 °C 69 % 1008,1 hPa 0,0 mm 0,0 km/h (0 Bft) SW 233 ° 0 min 0,000 mm 0,0 UV-I 0 W/m² 0,6 °C 5,8 °C 0,0 km/h (0 Bft)
31.01.2018 18:34 5,8 °C 70 % 1008,1 hPa 0,0 mm 0,1 km/h (0 Bft) W-SW 242 ° 0 min 0,000 mm 0,0 UV-I 0 W/m² 0,8 °C 5,8 °C 3,2 km/h (1 Bft)
31.01.2018 18:35 5,8 °C 68 % 1008,1 hPa 0,0 mm 5,7 km/h (1 Bft) W 267 ° 0 min 0,000 mm 0,0 UV-I 0 W/m² 0,4 °C 4,7 °C 8,0 km/h (2 Bft)
31.01.2018 18:36 5,8 °C 68 % 1008,1 hPa 0,0 mm 3,8 km/h (1 Bft) W-NW 283 ° 0 min 0,000 mm 0,0 UV-I 0 W/m² 0,4 °C 5,8 °C 4,8 km/h (1 Bft)
31.01.2018 18:37 5,8 °C 68 % 1008,1 hPa 0,0 mm 2,5 km/h (1 Bft) W 272 ° 0 min 0,000 mm 0,0 UV-I 0 W/m² 0,4 °C 5,8 °C 4,8 km/h (1 Bft)
31.01.2018 18:38 5,8 °C 69 % 1008,1 hPa 0,0 mm 4,3 km/h (1 Bft) W-SW 244 ° 0 min 0,000 mm 0,0 UV-I 0 W/m² 0,6 °C 5,8 °C 4,8 km/h (1 Bft)
31.01.2018 18:39 5,8 °C 68 % 1008,1 hPa 0,0 mm 3,7 km/h (1 Bft) W-SW 243 ° 0 min 0,000 mm 0,0 UV-I 0 W/m² 0,4 °C 5,8 °C 6,4 km/h (2 Bft)
31.01.2018 18:40 5,8 °C 68 % 1008,0 hPa 0,0 mm 4,4 km/h (1 Bft) O 82 ° 0 min 0,000 mm 0,0 UV-I 0 W/m² 0,4 °C 5,8 °C 6,4 km/h (2 Bft)
31.01.2018 18:41 5,8 °C 70 % 1008,0 hPa 0,0 mm 2,8 km/h (1 Bft) O 82 ° 0 min 0,000 mm 0,0 UV-I 0 W/m² 0,8 °C 5,8 °C 6,4 km/h (2 Bft)
31.01.2018 18:42 5,8 °C 70 % 1008,0 hPa 0,0 mm 0,7 km/h (0 Bft) O 82 ° 0 min 0,000 mm 0,0 UV-I 0 W/m² 0,8 °C 5,8 °C 3,2 km/h (1 Bft)
31.01.2018 18:43 5,8 °C 70 % 1008,1 hPa 0,0 mm 4,8 km/h (1 Bft) SW 219 ° 0 min 0,000 mm 0,0 UV-I 0 W/m² 0,8 °C 5,1 °C 8,0 km/h (2 Bft)
31.01.2018 18:44 5,8 °C 68 % 1008,1 hPa 0,0 mm 3,4 km/h (1 Bft) W-SW 257 ° 0 min 0,000 mm 0,0 UV-I 0 W/m² 0,4 °C 5,8 °C 4,8 km/h (1 Bft)
31.01.2018 18:45 5,8 °C 68 % 1008,0 hPa 0,0 mm 4,4 km/h (1 Bft) O 85 ° 0 min 0,000 mm 0,0 UV-I 0 W/m² 0,4 °C 5,8 °C 8,0 km/h (2 Bft)
31.01.2018 18:46 5,8 °C 69 % 1007,9 hPa 0,0 mm 5,1 km/h (1 Bft) O-SO 106 ° 0 min 0,000 mm 0,0 UV-I 0 W/m² 0,6 °C 5,0 °C 6,4 km/h (2 Bft)
31.01.2018 18:47 5,8 °C 70 % 1007,8 hPa 0,0 mm 2,8 km/h (1 Bft) O-SO 105 ° 0 min 0,000 mm 0,0 UV-I 0 W/m² 0,8 °C 5,8 °C 4,8 km/h (1 Bft)
31.01.2018 18:48 5,8 °C 70 % 1007,8 hPa 0,0 mm 5,8 km/h (2 Bft) O-NO 75 ° 0 min 0,000 mm 0,0 UV-I 0 W/m² 0,8 °C 4,7 °C 9,7 km/h (2 Bft)
31.01.2018 18:49 5,8 °C 70 % 1007,6 hPa 0,0 mm 6,8 km/h (2 Bft) S 179 ° 0 min 0,000 mm 0,0 UV-I 0 W/m² 0,8 °C 4,4 °C 12,9 km/h (3 Bft)
31.01.2018 18:50 5,8 °C 70 % 1007,7 hPa 0,0 mm 2,9 km/h (1 Bft) NW 304 ° 0 min 0,000 mm 0,0 UV-I 0 W/m² 0,8 °C 5,8 °C 4,8 km/h (1 Bft)
31.01.2018 18:51 5,8 °C 69 % 1007,8 hPa 0,0 mm 2,4 km/h (1 Bft) W 275 ° 0 min 0,000 mm 0,0 UV-I 0 W/m² 0,6 °C 5,8 °C 3,2 km/h (1 Bft)
31.01.2018 18:52 5,8 °C 69 % 1007,7 hPa 0,0 mm 0,1 km/h (0 Bft) W 275 ° 0 min 0,000 mm 0,0 UV-I 0 W/m² 0,6 °C 5,8 °C 1,6 km/h (1 Bft)
31.01.2018 18:53 5,8 °C 70 % 1007,6 hPa 0,0 mm 2,4 km/h (1 Bft) O 89 ° 0 min 0,000 mm 0,0 UV-I 0 W/m² 0,8 °C 5,8 °C 6,4 km/h (2 Bft)
31.01.2018 18:54 5,8 °C 70 % 1007,6 hPa 0,0 mm 0,8 km/h (0 Bft) O 89 ° 0 min 0,000 mm 0,0 UV-I 0 W/m² 0,8 °C 5,8 °C 3,2 km/h (1 Bft)
31.01.2018 18:55 5,8 °C 70 % 1007,5 hPa 0,0 mm 0,5 km/h (0 Bft) O-NO 69 ° 0 min 0,000 mm 0,0 UV-I 0 W/m² 0,8 °C 5,8 °C 1,6 km/h (1 Bft)
31.01.2018 18:56 5,8 °C 70 % 1007,6 hPa 0,0 mm 0,5 km/h (0 Bft) O-NO 69 ° 0 min 0,000 mm 0,0 UV-I 0 W/m² 0,8 °C 5,8 °C 1,6 km/h (1 Bft)
31.01.2018 18:57 5,8 °C 70 % 1007,6 hPa 0,0 mm 0,1 km/h (0 Bft) O-NO 69 ° 0 min 0,000 mm 0,0 UV-I 0 W/m² 0,8 °C 5,8 °C 1,6 km/h (1 Bft)
31.01.2018 18:58 5,8 °C 70 % 1007,5 hPa 0,0 mm 0,2 km/h (0 Bft) O-NO 69 ° 0 min 0,000 mm 0,0 UV-I 0 W/m² 0,8 °C 5,8 °C 1,6 km/h (1 Bft)
31.01.2018 18:59 5,8 °C 69 % 1007,5 hPa 0,0 mm 1,7 km/h (1 Bft) O-SO 117 ° 0 min 0,000 mm 0,0 UV-I 0 W/m² 0,6 °C 5,8 °C 4,8 km/h (1 Bft)
31.01.2018 19:00 5,8 °C 69 % 1007,5 hPa 0,0 mm 0,0 km/h (0 Bft) O-SO 117 ° 0 min 0,000 mm 0,0 UV-I 0 W/m² 0,6 °C 5,8 °C 0,0 km/h (0 Bft)
31.01.2018 19:01 5,8 °C 69 % 1007,5 hPa 0,0 mm 1,4 km/h (1 Bft) S-SO 154 ° 0 min 0,025 mm 0,0 UV-I 0 W/m² 0,6 °C 5,8 °C 3,2 km/h (1 Bft)
31.01.2018 19:02 5,8 °C 69 % 1007,6 hPa 0,0 mm 1,9 km/h (1 Bft) S-SO 154 ° 0 min 0,000 mm 0,0 UV-I 0 W/m² 0,6 °C 5,8 °C 3,2 km/h (1 Bft)
31.01.2018 19:03 5,8 °C 69 % 1007,6 hPa 0,0 mm 0,4 km/h (0 Bft) S-SO 163 ° 0 min 0,000 mm 0,0 UV-I 0 W/m² 0,6 °C 5,8 °C 3,2 km/h (1 Bft)
31.01.2018 19:04 5,7 °C 69 % 1007,6 hPa 0,0 mm 0,8 km/h (0 Bft) S-SO 163 ° 0 min 0,000 mm 0,0 UV-I 0 W/m² 0,5 °C 5,7 °C 3,2 km/h (1 Bft)
31.01.2018 19:05 5,7 °C 70 % 1007,6 hPa 0,0 mm 0,0 km/h (0 Bft) S-SO 163 ° 0 min 0,000 mm 0,0 UV-I 0 W/m² 0,7 °C 5,7 °C 0,0 km/h (0 Bft)
31.01.2018 19:06 5,7 °C 70 % 1007,6 hPa 0,0 mm 0,0 km/h (0 Bft) S-SO 163 ° 0 min 0,000 mm 0,0 UV-I 0 W/m² 0,7 °C 5,7 °C 0,0 km/h (0 Bft)
31.01.2018 19:07 5,7 °C 70 % 1007,7 hPa 0,0 mm 2,5 km/h (1 Bft) S-SW 193 ° 0 min 0,000 mm 0,0 UV-I 0 W/m² 0,7 °C 5,7 °C 8,0 km/h (2 Bft)
31.01.2018 19:08 5,7 °C 68 % 1007,7 hPa 0,0 mm 6,3 km/h (2 Bft) S-SW 194 ° 0 min 0,000 mm 0,0 UV-I 0 W/m² 0,3 °C 4,4 °C 8,0 km/h (2 Bft)
31.01.2018 19:09 5,7 °C 67 % 1007,7 hPa 0,0 mm 1,8 km/h (1 Bft) S-SW 193 ° 0 min 0,000 mm 0,0 UV-I 0 W/m² 0,1 °C 5,7 °C 6,4 km/h (2 Bft)
31.01.2018 19:10 5,7 °C 67 % 1007,7 hPa 0,0 mm 0,1 km/h (0 Bft) S-SW 193 ° 0 min 0,000 mm 0,0 UV-I 0 W/m² 0,1 °C 5,7 °C 1,6 km/h (1 Bft)
31.01.2018 19:11 5,8 °C 67 % 1007,7 hPa 0,0 mm 0,6 km/h (0 Bft) SW 226 ° 0 min 0,000 mm 0,0 UV-I 0 W/m² 0,2 °C 5,8 °C 4,8 km/h (1 Bft)
31.01.2018 19:12 5,7 °C 67 % 1007,7 hPa 0,0 mm 6,4 km/h (2 Bft) W 259 ° 0 min 0,000 mm 0,0 UV-I 0 W/m² 0,1 °C 4,4 °C 11,3 km/h (2 Bft)
31.01.2018 19:13 5,8 °C 67 % 1007,6 hPa 0,0 mm 5,6 km/h (1 Bft) S-SW 203 ° 0 min 0,000 mm 0,0 UV-I 0 W/m² 0,2 °C 4,8 °C 8,0 km/h (2 Bft)
31.01.2018 19:14 5,8 °C 67 % 1007,6 hPa 0,0 mm 2,7 km/h (1 Bft) S-SW 204 ° 0 min 0,000 mm 0,0 UV-I 0 W/m² 0,2 °C 5,8 °C 4,8 km/h (1 Bft)
31.01.2018 19:15 5,8 °C 68 % 1007,5 hPa 0,0 mm 1,4 km/h (1 Bft) S-SW 204 ° 0 min 0,000 mm 0,0 UV-I 0 W/m² 0,4 °C 5,8 °C 3,2 km/h (1 Bft)
31.01.2018 19:16 5,8 °C 67 % 1007,5 hPa 0,0 mm 2,6 km/h (1 Bft) S-SW 205 ° 0 min 0,000 mm 0,0 UV-I 0 W/m² 0,2 °C 5,8 °C 3,2 km/h (1 Bft)
31.01.2018 19:17 5,9 °C 66 % 1007,5 hPa 0,0 mm 3,8 km/h (1 Bft) S-SW 205 ° 0 min 0,000 mm 0,0 UV-I 0 W/m² 0,0 °C 5,9 °C 8,0 km/h (2 Bft)
31.01.2018 19:18 5,9 °C 66 % 1007,5 hPa 0,0 mm 7,4 km/h (2 Bft) S-SW 201 ° 0 min 0,000 mm 0,0 UV-I 0 W/m² 0,0 °C 4,3 °C 9,7 km/h (2 Bft)
31.01.2018 19:19 5,9 °C 66 % 1007,5 hPa 0,0 mm 2,5 km/h (1 Bft) S-SW 201 ° 0 min 0,000 mm 0,0 UV-I 0 W/m² 0,0 °C 5,9 °C 3,2 km/h (1 Bft)
31.01.2018 19:20 5,9 °C 67 % 1007,4 hPa 0,0 mm 1,0 km/h (0 Bft) S-SW 201 ° 0 min 0,000 mm 0,0 UV-I 0 W/m² 0,3 °C 5,9 °C 1,6 km/h (1 Bft)
31.01.2018 19:21 5,9 °C 67 % 1007,4 hPa 0,0 mm 0,3 km/h (0 Bft) S-SW 201 ° 0 min 0,000 mm 0,0 UV-I 0 W/m² 0,3 °C 5,9 °C 1,6 km/h (1 Bft)
31.01.2018 19:22 5,9 °C 68 % 1007,4 hPa 0,0 mm 0,0 km/h (0 Bft) S-SW 201 ° 0 min 0,000 mm 0,0 UV-I 0 W/m² 0,5 °C 5,9 °C 0,0 km/h (0 Bft)
31.01.2018 19:23 5,9 °C 68 % 1007,3 hPa 0,0 mm 0,0 km/h (0 Bft) S-SW 201 ° 0 min 0,000 mm 0,0 UV-I 0 W/m² 0,5 °C 5,9 °C 0,0 km/h (0 Bft)
31.01.2018 19:24 5,9 °C 68 % 1007,3 hPa 0,0 mm 0,0 km/h (0 Bft) S-SW 201 ° 0 min 0,000 mm 0,0 UV-I 0 W/m² 0,5 °C 5,9 °C 0,0 km/h (0 Bft)
31.01.2018 19:25 5,9 °C 68 % 1007,3 hPa 0,0 mm 0,5 km/h (0 Bft) S-SW 201 ° 0 min 0,000 mm 0,0 UV-I 0 W/m² 0,5 °C 5,9 °C 1,6 km/h (1 Bft)
31.01.2018 19:26 5,9 °C 68 % 1007,3 hPa 0,0 mm 0,5 km/h (0 Bft) S-SW 201 ° 0 min 0,000 mm 0,0 UV-I 0 W/m² 0,5 °C 5,9 °C 1,6 km/h (1 Bft)
31.01.2018 19:27 5,9 °C 68 % 1007,2 hPa 0,0 mm 2,4 km/h (1 Bft) W-SW 240 ° 0 min 0,000 mm 0,0 UV-I 0 W/m² 0,5 °C 5,9 °C 3,2 km/h (1 Bft)
31.01.2018 19:28 5,9 °C 68 % 1007,3 hPa 0,0 mm 0,6 km/h (0 Bft) W-SW 240 ° 0 min 0,000 mm 0,0 UV-I 0 W/m² 0,5 °C 5,9 °C 3,2 km/h (1 Bft)
31.01.2018 19:29 5,9 °C 68 % 1007,2 hPa 0,0 mm 1,5 km/h (1 Bft) W-SW 240 ° 0 min 0,000 mm 0,0 UV-I 0 W/m² 0,5 °C 5,9 °C 3,2 km/h (1 Bft)
31.01.2018 19:30 5,9 °C 69 % 1007,2 hPa 0,0 mm 0,3 km/h (0 Bft) W-SW 240 ° 0 min 0,000 mm 0,0 UV-I 0 W/m² 0,7 °C 5,9 °C 1,6 km/h (1 Bft)
31.01.2018 19:31 5,9 °C 68 % 1007,2 hPa 0,0 mm 0,1 km/h (0 Bft) W-SW 240 ° 0 min 0,000 mm 0,0 UV-I 0 W/m² 0,5 °C 5,9 °C 1,6 km/h (1 Bft)
31.01.2018 19:32 5,9 °C 67 % 1007,2 hPa 0,0 mm 0,0 km/h (0 Bft) W-SW 240 ° 0 min 0,000 mm 0,0 UV-I 0 W/m² 0,3 °C 5,9 °C 0,0 km/h (0 Bft)
31.01.2018 19:33 5,8 °C 67 % 1007,1 hPa 0,0 mm 0,0 km/h (0 Bft) W-SW 240 ° 0 min 0,000 mm 0,0 UV-I 0 W/m² 0,2 °C 5,8 °C 0,0 km/h (0 Bft)
31.01.2018 19:34 5,8 °C 67 % 1007,1 hPa 0,0 mm 0,0 km/h (0 Bft) W-SW 240 ° 0 min 0,000 mm 0,0 UV-I 0 W/m² 0,2 °C 5,8 °C 0,0 km/h (0 Bft)
31.01.2018 19:35 5,8 °C 68 % 1007,0 hPa 0,0 mm 0,0 km/h (0 Bft) W-SW 240 ° 0 min 0,000 mm 0,0 UV-I 0 W/m² 0,4 °C 5,8 °C 0,0 km/h (0 Bft)
31.01.2018 19:36 5,8 °C 68 % 1007,1 hPa 0,0 mm 0,0 km/h (0 Bft) W-SW 240 ° 0 min 0,000 mm 0,0 UV-I 0 W/m² 0,4 °C 5,8 °C 0,0 km/h (0 Bft)
31.01.2018 19:37 5,8 °C 67 % 1007,0 hPa 0,0 mm 0,0 km/h (0 Bft) W-SW 240 ° 0 min 0,000 mm 0,0 UV-I 0 W/m² 0,2 °C 5,8 °C 0,0 km/h (0 Bft)
31.01.2018 19:38 5,8 °C 67 % 1007,0 hPa 0,0 mm 0,5 km/h (0 Bft) W-SW 240 ° 0 min 0,000 mm 0,0 UV-I 0 W/m² 0,2 °C 5,8 °C 1,6 km/h (1 Bft)
31.01.2018 19:39 5,8 °C 68 % 1007,0 hPa 0,0 mm 0,4 km/h (0 Bft) W-SW 240 ° 0 min 0,000 mm 0,0 UV-I 0 W/m² 0,4 °C 5,8 °C 1,6 km/h (1 Bft)
31.01.2018 19:40 5,8 °C 67 % 1007,0 hPa 0,0 mm 0,9 km/h (0 Bft) W-SW 240 ° 0 min 0,000 mm 0,0 UV-I 0 W/m² 0,2 °C 5,8 °C 3,2 km/h (1 Bft)
31.01.2018 19:41 5,8 °C 67 % 1006,9 hPa 0,0 mm 3,1 km/h (1 Bft) S-SO 150 ° 0 min 0,000 mm 0,0 UV-I 0 W/m² 0,2 °C 5,8 °C 8,0 km/h (2 Bft)
31.01.2018 19:42 5,8 °C 67 % 1006,9 hPa 0,0 mm 4,4 km/h (1 Bft) S 182 ° 0 min 0,000 mm 0,0 UV-I 0 W/m² 0,2 °C 5,8 °C 6,4 km/h (2 Bft)
31.01.2018 19:43 5,8 °C 66 % 1006,9 hPa 0,0 mm 2,3 km/h (1 Bft) S 186 ° 0 min 0,000 mm 0,0 UV-I 0 W/m² -0,0 °C 5,8 °C 8,0 km/h (2 Bft)
31.01.2018 19:44 5,8 °C 68 % 1006,9 hPa 0,0 mm 3,2 km/h (1 Bft) S 188 ° 0 min 0,000 mm 0,0 UV-I 0 W/m² 0,4 °C 5,8 °C 6,4 km/h (2 Bft)
31.01.2018 19:45 5,8 °C 68 % 1007,0 hPa 0,0 mm 3,6 km/h (1 Bft) S 181 ° 0 min 0,000 mm 0,0 UV-I 0 W/m² 0,4 °C 5,8 °C 4,8 km/h (1 Bft)
31.01.2018 19:46 5,8 °C 66 % 1006,9 hPa 0,0 mm 1,2 km/h (1 Bft) S-SW 211 ° 0 min 0,000 mm 0,0 UV-I 0 W/m² -0,0 °C 5,8 °C 4,8 km/h (1 Bft)
31.01.2018 19:47 5,8 °C 67 % 1006,9 hPa 0,0 mm 4,9 km/h (1 Bft) S-SW 207 ° 0 min 0,000 mm 0,0 UV-I 0 W/m² 0,2 °C 5,0 °C 6,4 km/h (2 Bft)
31.01.2018 19:48 5,8 °C 67 % 1006,9 hPa 0,0 mm 0,8 km/h (0 Bft) S-SW 207 ° 0 min 0,000 mm 0,0 UV-I 0 W/m² 0,2 °C 5,8 °C 3,2 km/h (1 Bft)
31.01.2018 19:49 5,8 °C 67 % 1006,9 hPa 0,0 mm 0,7 km/h (0 Bft) S-SW 207 ° 0 min 0,000 mm 0,0 UV-I 0 W/m² 0,2 °C 5,8 °C 4,8 km/h (1 Bft)
31.01.2018 19:50 5,8 °C 67 % 1006,9 hPa 0,0 mm 6,0 km/h (2 Bft) S-SW 206 ° 0 min 0,000 mm 0,0 UV-I 0 W/m² 0,2 °C 4,6 °C 8,0 km/h (2 Bft)
31.01.2018 19:51 5,8 °C 68 % 1006,9 hPa 0,0 mm 7,0 km/h (2 Bft) S 180 ° 0 min 0,000 mm 0,0 UV-I 0 W/m² 0,4 °C 4,3 °C 9,7 km/h (2 Bft)
31.01.2018 19:52 5,9 °C 68 % 1006,8 hPa 0,0 mm 4,3 km/h (1 Bft) S 174 ° 0 min 0,000 mm 0,0 UV-I 0 W/m² 0,5 °C 5,9 °C 8,0 km/h (2 Bft)
31.01.2018 19:53 5,9 °C 68 % 1006,8 hPa 0,0 mm 3,0 km/h (1 Bft) S 173 ° 0 min 0,000 mm 0,0 UV-I 0 W/m² 0,5 °C 5,9 °C 8,0 km/h (2 Bft)
31.01.2018 19:54 5,8 °C 66 % 1006,8 hPa 0,0 mm 5,0 km/h (1 Bft) W 275 ° 0 min 0,000 mm 0,0 UV-I 0 W/m² -0,0 °C 5,0 °C 9,7 km/h (2 Bft)
31.01.2018 19:55 5,9 °C 66 % 1006,8 hPa 0,0 mm 8,4 km/h (2 Bft) S-SW 203 ° 0 min 0,000 mm 0,0 UV-I 0 W/m² 0,0 °C 4,1 °C 12,9 km/h (3 Bft)
31.01.2018 19:56 5,9 °C 67 % 1006,8 hPa 0,0 mm 11,1 km/h (2 Bft) S-SW 192 ° 0 min 0,000 mm 0,0 UV-I 0 W/m² 0,3 °C 3,5 °C 14,5 km/h (3 Bft)
31.01.2018 19:57 5,9 °C 67 % 1006,7 hPa 0,0 mm 6,0 km/h (2 Bft) S 173 ° 0 min 0,000 mm 0,0 UV-I 0 W/m² 0,3 °C 4,8 °C 11,3 km/h (2 Bft)
31.01.2018 19:58 5,9 °C 67 % 1006,7 hPa 0,0 mm 2,7 km/h (1 Bft) S 173 ° 0 min 0,000 mm 0,0 UV-I 0 W/m² 0,3 °C 5,9 °C 8,0 km/h (2 Bft)
31.01.2018 19:59 5,9 °C 67 % 1006,7 hPa 0,0 mm 4,2 km/h (1 Bft) S 173 ° 0 min 0,000 mm 0,0 UV-I 0 W/m² 0,3 °C 5,9 °C 8,0 km/h (2 Bft)
31.01.2018 20:00 6,0 °C 65 % 1006,6 hPa 0,0 mm 2,8 km/h (1 Bft) S 171 ° 0 min 0,000 mm 0,0 UV-I 0 W/m² -0,1 °C 6,0 °C 6,4 km/h (2 Bft)
31.01.2018 20:01 6,0 °C 66 % 1006,6 hPa 0,0 mm 3,0 km/h (1 Bft) S 171 ° 0 min 0,026 mm 0,0 UV-I 0 W/m² 0,1 °C 6,0 °C 6,4 km/h (2 Bft)
31.01.2018 20:02 6,0 °C 66 % 1006,6 hPa 0,0 mm 2,5 km/h (1 Bft) S 171 ° 0 min 0,000 mm 0,0 UV-I 0 W/m² 0,1 °C 6,0 °C 3,2 km/h (1 Bft)
31.01.2018 20:03 6,1 °C 67 % 1006,6 hPa 0,0 mm 0,6 km/h (0 Bft) SW 225 ° 0 min 0,000 mm 0,0 UV-I 0 W/m² 0,4 °C 6,1 °C 3,2 km/h (1 Bft)
31.01.2018 20:04 6,0 °C 67 % 1006,6 hPa 0,0 mm 4,4 km/h (1 Bft) S 173 ° 0 min 0,000 mm 0,0 UV-I 0 W/m² 0,3 °C 6,0 °C 8,0 km/h (2 Bft)
31.01.2018 20:05 6,1 °C 67 % 1006,6 hPa 0,0 mm 2,0 km/h (1 Bft) S 173 ° 0 min 0,000 mm 0,0 UV-I 0 W/m² 0,4 °C 6,1 °C 3,2 km/h (1 Bft)
31.01.2018 20:06 6,1 °C 66 % 1006,6 hPa 0,0 mm 1,9 km/h (1 Bft) S 173 ° 0 min 0,000 mm 0,0 UV-I 0 W/m² 0,2 °C 6,1 °C 3,2 km/h (1 Bft)
31.01.2018 20:07 6,1 °C 66 % 1006,5 hPa 0,0 mm 1,3 km/h (1 Bft) S 173 ° 0 min 0,000 mm 0,0 UV-I 0 W/m² 0,2 °C 6,1 °C 3,2 km/h (1 Bft)
31.01.2018 20:08 6,1 °C 66 % 1006,4 hPa 0,0 mm 2,4 km/h (1 Bft) S-SW 205 ° 0 min 0,000 mm 0,0 UV-I 0 W/m² 0,2 °C 6,1 °C 4,8 km/h (1 Bft)
31.01.2018 20:09 6,1 °C 66 % 1006,4 hPa 0,0 mm 0,7 km/h (0 Bft) S-SW 205 ° 0 min 0,000 mm 0,0 UV-I 0 W/m² 0,2 °C 6,1 °C 3,2 km/h (1 Bft)
31.01.2018 20:10 6,1 °C 67 % 1006,4 hPa 0,0 mm 2,2 km/h (1 Bft) SW 225 ° 0 min 0,000 mm 0,0 UV-I 0 W/m² 0,4 °C 6,1 °C 4,8 km/h (1 Bft)
31.01.2018 20:11 6,1 °C 66 % 1006,5 hPa 0,0 mm 4,1 km/h (1 Bft) S-SW 194 ° 0 min 0,000 mm 0,0 UV-I 0 W/m² 0,2 °C 6,1 °C 6,4 km/h (2 Bft)
31.01.2018 20:12 6,1 °C 67 % 1006,5 hPa 0,0 mm 2,0 km/h (1 Bft) S-SW 194 ° 0 min 0,000 mm 0,0 UV-I 0 W/m² 0,4 °C 6,1 °C 3,2 km/h (1 Bft)
31.01.2018 20:13 6,1 °C 66 % 1006,5 hPa 0,0 mm 4,2 km/h (1 Bft) S-SW 207 ° 0 min 0,000 mm 0,0 UV-I 0 W/m² 0,2 °C 6,1 °C 9,7 km/h (2 Bft)
31.01.2018 20:14 6,1 °C 66 % 1006,5 hPa 0,0 mm 4,2 km/h (1 Bft) S-SW 202 ° 0 min 0,000 mm 0,0 UV-I 0 W/m² 0,2 °C 6,1 °C 6,4 km/h (2 Bft)
31.01.2018 20:15 6,1 °C 66 % 1006,5 hPa 0,0 mm 3,9 km/h (1 Bft) S-SW 192 ° 0 min 0,000 mm 0,0 UV-I 0 W/m² 0,2 °C 6,1 °C 6,4 km/h (2 Bft)
31.01.2018 20:16 6,1 °C 67 % 1006,5 hPa 0,0 mm 2,3 km/h (1 Bft) S-SW 192 ° 0 min 0,000 mm 0,0 UV-I 0 W/m² 0,4 °C 6,1 °C 3,2 km/h (1 Bft)
31.01.2018 20:17 6,1 °C 68 % 1006,5 hPa 0,0 mm 5,0 km/h (1 Bft) W-SW 240 ° 0 min 0,000 mm 0,0 UV-I 0 W/m² 0,6 °C 5,3 °C 6,4 km/h (2 Bft)
31.01.2018 20:18 6,1 °C 67 % 1006,5 hPa 0,0 mm 5,8 km/h (2 Bft) S-SW 199 ° 0 min 0,000 mm 0,0 UV-I 0 W/m² 0,4 °C 5,1 °C 8,0 km/h (2 Bft)
31.01.2018 20:19 6,1 °C 67 % 1006,4 hPa 0,0 mm 6,2 km/h (2 Bft) S-SW 209 ° 0 min 0,000 mm 0,0 UV-I 0 W/m² 0,4 °C 4,9 °C 9,7 km/h (2 Bft)
31.01.2018 20:20 6,1 °C 67 % 1006,3 hPa 0,0 mm 3,4 km/h (1 Bft) S-SW 196 ° 0 min 0,000 mm 0,0 UV-I 0 W/m² 0,4 °C 6,1 °C 4,8 km/h (1 Bft)
31.01.2018 20:21 6,1 °C 68 % 1006,3 hPa 0,0 mm 3,7 km/h (1 Bft) S 186 ° 0 min 0,000 mm 0,0 UV-I 0 W/m² 0,6 °C 6,1 °C 4,8 km/h (1 Bft)
31.01.2018 20:22 6,1 °C 68 % 1006,3 hPa 0,0 mm 2,6 km/h (1 Bft) S 184 ° 0 min 0,000 mm 0,0 UV-I 0 W/m² 0,6 °C 6,1 °C 3,2 km/h (1 Bft)
31.01.2018 20:23 6,1 °C 68 % 1006,2 hPa 0,0 mm 1,1 km/h (1 Bft) S 184 ° 0 min 0,000 mm 0,0 UV-I 0 W/m² 0,6 °C 6,1 °C 3,2 km/h (1 Bft)
31.01.2018 20:24 6,1 °C 68 % 1006,2 hPa 0,0 mm 0,5 km/h (0 Bft) S 184 ° 0 min 0,000 mm 0,0 UV-I 0 W/m² 0,6 °C 6,1 °C 1,6 km/h (1 Bft)
31.01.2018 20:25 6,1 °C 68 % 1006,3 hPa 0,0 mm 1,8 km/h (1 Bft) S 184 ° 0 min 0,000 mm 0,0 UV-I 0 W/m² 0,6 °C 6,1 °C 3,2 km/h (1 Bft)
31.01.2018 20:26 6,1 °C 68 % 1006,2 hPa 0,0 mm 0,5 km/h (0 Bft) S 184 ° 0 min 0,000 mm 0,0 UV-I 0 W/m² 0,6 °C 6,1 °C 1,6 km/h (1 Bft)
31.01.2018 20:27 6,1 °C 68 % 1006,1 hPa 0,0 mm 0,0 km/h (0 Bft) S 184 ° 0 min 0,000 mm 0,0 UV-I 0 W/m² 0,6 °C 6,1 °C 0,0 km/h (0 Bft)
31.01.2018 20:28 6,1 °C 68 % 1006,1 hPa 0,0 mm 0,0 km/h (0 Bft) S 184 ° 0 min 0,000 mm 0,0 UV-I 0 W/m² 0,6 °C 6,1 °C 0,0 km/h (0 Bft)
31.01.2018 20:29 6,1 °C 68 % 1006,0 hPa 0,0 mm 0,2 km/h (0 Bft) S 184 ° 0 min 0,000 mm 0,0 UV-I 0 W/m² 0,6 °C 6,1 °C 1,6 km/h (1 Bft)
31.01.2018 20:30 6,0 °C 68 % 1005,9 hPa 0,0 mm 0,0 km/h (0 Bft) S 184 ° 0 min 0,000 mm 0,0 UV-I 0 W/m² 0,6 °C 6,0 °C 0,0 km/h (0 Bft)
31.01.2018 20:31 6,0 °C 68 % 1005,9 hPa 0,0 mm 0,0 km/h (0 Bft) S 184 ° 0 min 0,000 mm 0,0 UV-I 0 W/m² 0,6 °C 6,0 °C 0,0 km/h (0 Bft)
31.01.2018 20:32 5,9 °C 68 % 1005,9 hPa 0,0 mm 0,0 km/h (0 Bft) S 184 ° 0 min 0,000 mm 0,0 UV-I 0 W/m² 0,5 °C 5,9 °C 0,0 km/h (0 Bft)
31.01.2018 20:33 5,9 °C 69 % 1005,9 hPa 0,0 mm 0,0 km/h (0 Bft) S 184 ° 0 min 0,000 mm 0,0 UV-I 0 W/m² 0,7 °C 5,9 °C 0,0 km/h (0 Bft)
31.01.2018 20:34 5,9 °C 69 % 1006,0 hPa 0,0 mm 0,0 km/h (0 Bft) S 184 ° 0 min 0,000 mm 0,0 UV-I 0 W/m² 0,7 °C 5,9 °C 0,0 km/h (0 Bft)
31.01.2018 20:35 5,9 °C 69 % 1005,9 hPa 0,0 mm 0,0 km/h (0 Bft) S 184 ° 0 min 0,000 mm 0,0 UV-I 0 W/m² 0,7 °C 5,9 °C 0,0 km/h (0 Bft)
31.01.2018 20:36 5,9 °C 69 % 1005,9 hPa 0,0 mm 0,0 km/h (0 Bft) S 184 ° 0 min 0,000 mm 0,0 UV-I 0 W/m² 0,7 °C 5,9 °C 0,0 km/h (0 Bft)
31.01.2018 20:37 5,9 °C 69 % 1005,9 hPa 0,0 mm 0,0 km/h (0 Bft) S 184 ° 0 min 0,000 mm 0,0 UV-I 0 W/m² 0,7 °C 5,9 °C 0,0 km/h (0 Bft)
31.01.2018 20:38 5,9 °C 69 % 1005,9 hPa 0,0 mm 0,3 km/h (0 Bft) W-SW 240 ° 0 min 0,000 mm 0,0 UV-I 0 W/m² 0,7 °C 5,9 °C 3,2 km/h (1 Bft)
31.01.2018 20:39 5,9 °C 69 % 1005,9 hPa 0,0 mm 4,8 km/h (1 Bft) SW 223 ° 0 min 0,000 mm 0,0 UV-I 0 W/m² 0,7 °C 5,2 °C 8,0 km/h (2 Bft)
31.01.2018 20:40 5,8 °C 68 % 1005,8 hPa 0,0 mm 2,0 km/h (1 Bft) W 263 ° 0 min 0,000 mm 0,0 UV-I 0 W/m² 0,4 °C 5,8 °C 4,8 km/h (1 Bft)
31.01.2018 20:41 5,8 °C 69 % 1005,8 hPa 0,0 mm 0,0 km/h (0 Bft) W 263 ° 0 min 0,000 mm 0,0 UV-I 0 W/m² 0,6 °C 5,8 °C 0,0 km/h (0 Bft)
31.01.2018 20:42 5,8 °C 69 % 1005,7 hPa 0,0 mm 0,0 km/h (0 Bft) W 263 ° 0 min 0,000 mm 0,0 UV-I 0 W/m² 0,6 °C 5,8 °C 0,0 km/h (0 Bft)
31.01.2018 20:43 5,8 °C 70 % 1005,7 hPa 0,0 mm 0,0 km/h (0 Bft) W 263 ° 0 min 0,000 mm 0,0 UV-I 0 W/m² 0,8 °C 5,8 °C 0,0 km/h (0 Bft)
31.01.2018 20:44 5,8 °C 70 % 1005,6 hPa 0,0 mm 0,6 km/h (0 Bft) W 273 ° 0 min 0,000 mm 0,0 UV-I 0 W/m² 0,8 °C 5,8 °C 3,2 km/h (1 Bft)
31.01.2018 20:45 5,8 °C 70 % 1005,6 hPa 0,0 mm 0,3 km/h (0 Bft) W 273 ° 0 min 0,000 mm 0,0 UV-I 0 W/m² 0,8 °C 5,8 °C 3,2 km/h (1 Bft)
31.01.2018 20:46 5,8 °C 70 % 1005,6 hPa 0,0 mm 0,1 km/h (0 Bft) W 273 ° 0 min 0,000 mm 0,0 UV-I 0 W/m² 0,8 °C 5,8 °C 1,6 km/h (1 Bft)
31.01.2018 20:47 5,7 °C 70 % 1005,6 hPa 0,0 mm 0,6 km/h (0 Bft) W 273 ° 0 min 0,000 mm 0,0 UV-I 0 W/m² 0,7 °C 5,7 °C 1,6 km/h (1 Bft)
31.01.2018 20:48 5,7 °C 70 % 1005,6 hPa 0,0 mm 0,0 km/h (0 Bft) W 273 ° 0 min 0,000 mm 0,0 UV-I 0 W/m² 0,7 °C 5,7 °C 0,0 km/h (0 Bft)
31.01.2018 20:49 5,7 °C 70 % 1005,7 hPa 0,0 mm 0,0 km/h (0 Bft) W 273 ° 0 min 0,000 mm 0,0 UV-I 0 W/m² 0,7 °C 5,7 °C 0,0 km/h (0 Bft)
31.01.2018 20:50 5,7 °C 69 % 1005,6 hPa 0,0 mm 0,1 km/h (0 Bft) W 273 ° 0 min 0,000 mm 0,0 UV-I 0 W/m² 0,5 °C 5,7 °C 1,6 km/h (1 Bft)
31.01.2018 20:51 5,6 °C 70 % 1005,6 hPa 0,0 mm 0,0 km/h (0 Bft) W 273 ° 0 min 0,000 mm 0,0 UV-I 0 W/m² 0,6 °C 5,6 °C 0,0 km/h (0 Bft)
31.01.2018 20:52 5,6 °C 70 % 1005,5 hPa 0,0 mm 0,0 km/h (0 Bft) W 273 ° 0 min 0,000 mm 0,0 UV-I 0 W/m² 0,6 °C 5,6 °C 0,0 km/h (0 Bft)
31.01.2018 20:53 5,6 °C 70 % 1005,5 hPa 0,0 mm 0,0 km/h (0 Bft) W 273 ° 0 min 0,000 mm 0,0 UV-I 0 W/m² 0,6 °C 5,6 °C 0,0 km/h (0 Bft)
31.01.2018 20:54 5,6 °C 70 % 1005,5 hPa 0,0 mm 0,0 km/h (0 Bft) W 273 ° 0 min 0,000 mm 0,0 UV-I 0 W/m² 0,6 °C 5,6 °C 0,0 km/h (0 Bft)
31.01.2018 20:55 5,6 °C 70 % 1005,6 hPa 0,0 mm 0,0 km/h (0 Bft) W 273 ° 0 min 0,000 mm 0,0 UV-I 0 W/m² 0,6 °C 5,6 °C 0,0 km/h (0 Bft)
31.01.2018 20:56 5,6 °C 70 % 1005,6 hPa 0,0 mm 0,0 km/h (0 Bft) W 273 ° 0 min 0,000 mm 0,0 UV-I 0 W/m² 0,6 °C 5,6 °C 0,0 km/h (0 Bft)
31.01.2018 20:57 5,6 °C 70 % 1005,6 hPa 0,0 mm 0,0 km/h (0 Bft) W 273 ° 0 min 0,000 mm 0,0 UV-I 0 W/m² 0,6 °C 5,6 °C 0,0 km/h (0 Bft)
31.01.2018 20:58 5,6 °C 70 % 1005,6 hPa 0,0 mm 0,0 km/h (0 Bft) W 273 ° 0 min 0,000 mm 0,0 UV-I 0 W/m² 0,6 °C 5,6 °C 0,0 km/h (0 Bft)
31.01.2018 20:59 5,6 °C 71 % 1005,6 hPa 0,0 mm 0,0 km/h (0 Bft) W 273 ° 0 min 0,000 mm 0,0 UV-I 0 W/m² 0,8 °C 5,6 °C 0,0 km/h (0 Bft)
31.01.2018 21:00 5,5 °C 71 % 1005,6 hPa 0,0 mm 1,2 km/h (1 Bft) W 273 ° 0 min 0,000 mm 0,0 UV-I 0 W/m² 0,7 °C 5,5 °C 3,2 km/h (1 Bft)
31.01.2018 21:01 5,5 °C 71 % 1005,6 hPa 0,0 mm 1,9 km/h (1 Bft) W 273 ° 0 min 0,025 mm 0,0 UV-I 0 W/m² 0,7 °C 5,5 °C 3,2 km/h (1 Bft)
31.01.2018 21:02 5,5 °C 71 % 1005,5 hPa 0,0 mm 0,7 km/h (0 Bft) W 273 ° 0 min 0,000 mm 0,0 UV-I 0 W/m² 0,7 °C 5,5 °C 1,6 km/h (1 Bft)
31.01.2018 21:03 5,4 °C 71 % 1005,5 hPa 0,0 mm 0,0 km/h (0 Bft) W 273 ° 0 min 0,000 mm 0,0 UV-I 0 W/m² 0,6 °C 5,4 °C 0,0 km/h (0 Bft)
31.01.2018 21:04 5,4 °C 71 % 1005,5 hPa 0,0 mm 0,0 km/h (0 Bft) W 273 ° 0 min 0,000 mm 0,0 UV-I 0 W/m² 0,6 °C 5,4 °C 0,0 km/h (0 Bft)
31.01.2018 21:05 5,4 °C 71 % 1005,4 hPa 0,0 mm 0,0 km/h (0 Bft) W 273 ° 0 min 0,000 mm 0,0 UV-I 0 W/m² 0,6 °C 5,4 °C 0,0 km/h (0 Bft)
31.01.2018 21:06 5,4 °C 71 % 1005,5 hPa 0,0 mm 0,0 km/h (0 Bft) W 273 ° 0 min 0,000 mm 0,0 UV-I 0 W/m² 0,6 °C 5,4 °C 0,0 km/h (0 Bft)
31.01.2018 21:07 5,4 °C 71 % 1005,5 hPa 0,0 mm 0,5 km/h (0 Bft) W 273 ° 0 min 0,000 mm 0,0 UV-I 0 W/m² 0,6 °C 5,4 °C 3,2 km/h (1 Bft)
31.01.2018 21:08 5,4 °C 70 % 1005,4 hPa 0,0 mm 0,9 km/h (0 Bft) W 273 ° 0 min 0,000 mm 0,0 UV-I 0 W/m² 0,4 °C 5,4 °C 3,2 km/h (1 Bft)
31.01.2018 21:09 5,4 °C 70 % 1005,4 hPa 0,0 mm 0,0 km/h (0 Bft) W 273 ° 0 min 0,000 mm 0,0 UV-I 0 W/m² 0,4 °C 5,4 °C 0,0 km/h (0 Bft)
31.01.2018 21:10 5,3 °C 70 % 1005,4 hPa 0,0 mm 0,0 km/h (0 Bft) W 273 ° 0 min 0,000 mm 0,0 UV-I 0 W/m² 0,3 °C 5,3 °C 0,0 km/h (0 Bft)
31.01.2018 21:11 5,3 °C 70 % 1005,4 hPa 0,0 mm 0,0 km/h (0 Bft) W 273 ° 0 min 0,000 mm 0,0 UV-I 0 W/m² 0,3 °C 5,3 °C 0,0 km/h (0 Bft)
31.01.2018 21:12 5,3 °C 70 % 1005,3 hPa 0,0 mm 0,0 km/h (0 Bft) W 273 ° 0 min 0,000 mm 0,0 UV-I 0 W/m² 0,3 °C 5,3 °C 0,0 km/h (0 Bft)
31.01.2018 21:13 5,3 °C 70 % 1005,4 hPa 0,0 mm 0,0 km/h (0 Bft) W 273 ° 0 min 0,000 mm 0,0 UV-I 0 W/m² 0,3 °C 5,3 °C 0,0 km/h (0 Bft)
31.01.2018 21:14 5,3 °C 70 % 1005,4 hPa 0,0 mm 0,7 km/h (0 Bft) W 273 ° 0 min 0,000 mm 0,0 UV-I 0 W/m² 0,3 °C 5,3 °C 1,6 km/h (1 Bft)
31.01.2018 21:15 5,3 °C 70 % 1005,4 hPa 0,0 mm 0,1 km/h (0 Bft) W 273 ° 0 min 0,000 mm 0,0 UV-I 0 W/m² 0,3 °C 5,3 °C 1,6 km/h (1 Bft)
31.01.2018 21:16 5,2 °C 70 % 1005,4 hPa 0,0 mm 1,1 km/h (1 Bft) W 273 ° 0 min 0,000 mm 0,0 UV-I 0 W/m² 0,2 °C 5,2 °C 1,6 km/h (1 Bft)
31.01.2018 21:17 5,2 °C 70 % 1005,4 hPa 0,0 mm 0,0 km/h (0 Bft) W 273 ° 0 min 0,000 mm 0,0 UV-I 0 W/m² 0,2 °C 5,2 °C 0,0 km/h (0 Bft)
31.01.2018 21:18 5,2 °C 70 % 1005,4 hPa 0,0 mm 2,5 km/h (1 Bft) W 273 ° 0 min 0,000 mm 0,0 UV-I 0 W/m² 0,2 °C 5,2 °C 4,8 km/h (1 Bft)
31.01.2018 21:19 5,1 °C 70 % 1005,3 hPa 0,0 mm 4,0 km/h (1 Bft) W 273 ° 0 min 0,000 mm 0,0 UV-I 0 W/m² 0,1 °C 5,1 °C 4,8 km/h (1 Bft)
31.01.2018 21:20 5,1 °C 70 % 1005,3 hPa 0,0 mm 2,0 km/h (1 Bft) W-NW 282 ° 0 min 0,000 mm 0,0 UV-I 0 W/m² 0,1 °C 5,1 °C 4,8 km/h (1 Bft)
31.01.2018 21:21 5,1 °C 70 % 1005,3 hPa 0,0 mm 0,0 km/h (0 Bft) W-NW 282 ° 0 min 0,000 mm 0,0 UV-I 0 W/m² 0,1 °C 5,1 °C 0,0 km/h (0 Bft)
31.01.2018 21:22 5,1 °C 70 % 1005,3 hPa 0,0 mm 0,0 km/h (0 Bft) W-NW 282 ° 0 min 0,000 mm 0,0 UV-I 0 W/m² 0,1 °C 5,1 °C 0,0 km/h (0 Bft)
31.01.2018 21:23 5,1 °C 70 % 1005,3 hPa 0,0 mm 0,0 km/h (0 Bft) W-NW 282 ° 0 min 0,000 mm 0,0 UV-I 0 W/m² 0,1 °C 5,1 °C 0,0 km/h (0 Bft)
31.01.2018 21:24 5,0 °C 70 % 1005,3 hPa 0,0 mm 0,0 km/h (0 Bft) W-NW 282 ° 0 min 0,000 mm 0,0 UV-I 0 W/m² -0,0 °C 5,0 °C 0,0 km/h (0 Bft)
31.01.2018 21:25 5,0 °C 70 % 1005,3 hPa 0,0 mm 0,0 km/h (0 Bft) W-NW 282 ° 0 min 0,000 mm 0,0 UV-I 0 W/m² -0,0 °C 5,0 °C 0,0 km/h (0 Bft)
31.01.2018 21:26 5,0 °C 70 % 1005,3 hPa 0,0 mm 0,0 km/h (0 Bft) W-NW 282 ° 0 min 0,000 mm 0,0 UV-I 0 W/m² -0,0 °C 5,0 °C 0,0 km/h (0 Bft)
31.01.2018 21:27 4,9 °C 70 % 1005,4 hPa 0,0 mm 0,0 km/h (0 Bft) W-NW 282 ° 0 min 0,000 mm 0,0 UV-I 0 W/m² -0,1 °C 4,9 °C 0,0 km/h (0 Bft)
31.01.2018 21:28 4,9 °C 70 % 1005,4 hPa 0,0 mm 0,0 km/h (0 Bft) W-NW 282 ° 0 min 0,000 mm 0,0 UV-I 0 W/m² -0,1 °C 4,9 °C 0,0 km/h (0 Bft)
31.01.2018 21:29 4,9 °C 70 % 1005,4 hPa 0,0 mm 0,9 km/h (0 Bft) W-NW 282 ° 0 min 0,000 mm 0,0 UV-I 0 W/m² -0,1 °C 4,9 °C 1,6 km/h (1 Bft)
31.01.2018 21:30 4,9 °C 70 % 1005,4 hPa 0,0 mm 2,7 km/h (1 Bft) W 265 ° 0 min 0,000 mm 0,0 UV-I 0 W/m² -0,1 °C 4,9 °C 3,2 km/h (1 Bft)
31.01.2018 21:31 4,9 °C 70 % 1005,5 hPa 0,0 mm 3,1 km/h (1 Bft) W-SW 254 ° 0 min 0,000 mm 0,0 UV-I 0 W/m² -0,1 °C 4,9 °C 4,8 km/h (1 Bft)
31.01.2018 21:32 4,8 °C 70 % 1005,5 hPa 0,0 mm 3,6 km/h (1 Bft) W-SW 242 ° 0 min 0,000 mm 0,0 UV-I 0 W/m² -0,2 °C 4,8 °C 4,8 km/h (1 Bft)
31.01.2018 21:33 4,8 °C 70 % 1005,5 hPa 0,0 mm 3,3 km/h (1 Bft) W-SW 242 ° 0 min 0,000 mm 0,0 UV-I 0 W/m² -0,2 °C 4,8 °C 4,8 km/h (1 Bft)
31.01.2018 21:34 4,8 °C 70 % 1005,5 hPa 0,0 mm 2,7 km/h (1 Bft) W-SW 242 ° 0 min 0,000 mm 0,0 UV-I 0 W/m² -0,2 °C 4,8 °C 4,8 km/h (1 Bft)
31.01.2018 21:35 4,8 °C 70 % 1005,5 hPa 0,0 mm 2,3 km/h (1 Bft) W-SW 242 ° 0 min 0,000 mm 0,0 UV-I 0 W/m² -0,2 °C 4,8 °C 3,2 km/h (1 Bft)
31.01.2018 21:36 4,8 °C 70 % 1005,5 hPa 0,0 mm 3,5 km/h (1 Bft) SW 217 ° 0 min 0,000 mm 0,0 UV-I 0 W/m² -0,2 °C 4,8 °C 6,4 km/h (2 Bft)
31.01.2018 21:37 4,8 °C 70 % 1005,5 hPa 0,0 mm 3,8 km/h (1 Bft) SW 217 ° 0 min 0,000 mm 0,0 UV-I 0 W/m² -0,2 °C 4,8 °C 4,8 km/h (1 Bft)
31.01.2018 21:38 4,8 °C 70 % 1005,5 hPa 0,0 mm 1,3 km/h (1 Bft) SW 217 ° 0 min 0,000 mm 0,0 UV-I 0 W/m² -0,2 °C 4,8 °C 4,8 km/h (1 Bft)
31.01.2018 21:39 4,8 °C 71 % 1005,4 hPa 0,0 mm 0,0 km/h (0 Bft) SW 217 ° 0 min 0,000 mm 0,0 UV-I 0 W/m² -0,0 °C 4,8 °C 0,0 km/h (0 Bft)
31.01.2018 21:40 4,8 °C 71 % 1005,4 hPa 0,0 mm 0,1 km/h (0 Bft) SW 217 ° 0 min 0,000 mm 0,0 UV-I 0 W/m² -0,0 °C 4,8 °C 1,6 km/h (1 Bft)
31.01.2018 21:41 4,7 °C 71 % 1005,4 hPa 0,0 mm 2,3 km/h (1 Bft) SW 217 ° 0 min 0,000 mm 0,0 UV-I 0 W/m² -0,1 °C 4,7 °C 3,2 km/h (1 Bft)
31.01.2018 21:42 4,7 °C 71 % 1005,4 hPa 0,0 mm 1,9 km/h (1 Bft) SW 217 ° 0 min 0,000 mm 0,0 UV-I 0 W/m² -0,1 °C 4,7 °C 3,2 km/h (1 Bft)
31.01.2018 21:43 4,7 °C 71 % 1005,3 hPa 0,0 mm 0,5 km/h (0 Bft) SW 217 ° 0 min 0,000 mm 0,0 UV-I 0 W/m² -0,1 °C 4,7 °C 1,6 km/h (1 Bft)
31.01.2018 21:44 4,7 °C 71 % 1005,4 hPa 0,0 mm 0,0 km/h (0 Bft) SW 217 ° 0 min 0,000 mm 0,0 UV-I 0 W/m² -0,1 °C 4,7 °C 0,0 km/h (0 Bft)
31.01.2018 21:45 4,7 °C 71 % 1005,4 hPa 0,0 mm 0,0 km/h (0 Bft) SW 217 ° 0 min 0,000 mm 0,0 UV-I 0 W/m² -0,1 °C 4,7 °C 0,0 km/h (0 Bft)
31.01.2018 21:46 4,7 °C 72 % 1005,3 hPa 0,0 mm 2,0 km/h (1 Bft) SW 217 ° 0 min 0,000 mm 0,0 UV-I 0 W/m² 0,1 °C 4,7 °C 3,2 km/h (1 Bft)
31.01.2018 21:47 4,7 °C 72 % 1005,3 hPa 0,0 mm 1,3 km/h (1 Bft) SW 217 ° 0 min 0,000 mm 0,0 UV-I 0 W/m² 0,1 °C 4,7 °C 3,2 km/h (1 Bft)
31.01.2018 21:48 4,7 °C 72 % 1005,3 hPa 0,0 mm 0,1 km/h (0 Bft) SW 217 ° 0 min 0,000 mm 0,0 UV-I 0 W/m² 0,1 °C 4,7 °C 1,6 km/h (1 Bft)
31.01.2018 21:49 4,7 °C 72 % 1005,4 hPa 0,0 mm 0,8 km/h (0 Bft) SW 217 ° 0 min 0,000 mm 0,0 UV-I 0 W/m² 0,1 °C 4,7 °C 3,2 km/h (1 Bft)
31.01.2018 21:50 4,7 °C 72 % 1005,3 hPa 0,0 mm 2,5 km/h (1 Bft) SW 220 ° 0 min 0,000 mm 0,0 UV-I 0 W/m² 0,1 °C 4,7 °C 3,2 km/h (1 Bft)
31.01.2018 21:51 4,7 °C 72 % 1005,4 hPa 0,0 mm 1,3 km/h (1 Bft) SW 220 ° 0 min 0,000 mm 0,0 UV-I 0 W/m² 0,1 °C 4,7 °C 3,2 km/h (1 Bft)
31.01.2018 21:52 4,7 °C 72 % 1005,3 hPa 0,0 mm 0,0 km/h (0 Bft) SW 220 ° 0 min 0,000 mm 0,0 UV-I 0 W/m² 0,1 °C 4,7 °C 0,0 km/h (0 Bft)
31.01.2018 21:53 4,7 °C 72 % 1005,3 hPa 0,0 mm 0,0 km/h (0 Bft) SW 220 ° 0 min 0,000 mm 0,0 UV-I 0 W/m² 0,1 °C 4,7 °C 0,0 km/h (0 Bft)
31.01.2018 21:54 4,7 °C 72 % 1005,3 hPa 0,0 mm 0,0 km/h (0 Bft) SW 220 ° 0 min 0,000 mm 0,0 UV-I 0 W/m² 0,1 °C 4,7 °C 0,0 km/h (0 Bft)
31.01.2018 21:55 4,7 °C 73 % 1005,2 hPa 0,0 mm 0,0 km/h (0 Bft) SW 220 ° 0 min 0,000 mm 0,0 UV-I 0 W/m² 0,3 °C 4,7 °C 0,0 km/h (0 Bft)
31.01.2018 21:56 4,7 °C 73 % 1005,3 hPa 0,0 mm 0,0 km/h (0 Bft) SW 220 ° 0 min 0,000 mm 0,0 UV-I 0 W/m² 0,3 °C 4,7 °C 0,0 km/h (0 Bft)
31.01.2018 21:57 4,6 °C 73 % 1005,3 hPa 0,0 mm 0,1 km/h (0 Bft) SW 220 ° 0 min 0,000 mm 0,0 UV-I 0 W/m² 0,2 °C 4,6 °C 1,6 km/h (1 Bft)
31.01.2018 21:58 4,6 °C 73 % 1005,3 hPa 0,0 mm 0,0 km/h (0 Bft) SW 220 ° 0 min 0,000 mm 0,0 UV-I 0 W/m² 0,2 °C 4,6 °C 0,0 km/h (0 Bft)
31.01.2018 21:59 4,6 °C 73 % 1005,3 hPa 0,0 mm 0,0 km/h (0 Bft) SW 220 ° 0 min 0,000 mm 0,0 UV-I 0 W/m² 0,2 °C 4,6 °C 0,0 km/h (0 Bft)
31.01.2018 22:00 4,6 °C 73 % 1005,3 hPa 0,0 mm 0,0 km/h (0 Bft) SW 220 ° 0 min 0,000 mm 0,0 UV-I 0 W/m² 0,2 °C 4,6 °C 0,0 km/h (0 Bft)
31.01.2018 22:01 4,6 °C 73 % 1005,3 hPa 0,0 mm 0,0 km/h (0 Bft) SW 220 ° 0 min 0,026 mm 0,0 UV-I 0 W/m² 0,2 °C 4,6 °C 0,0 km/h (0 Bft)
31.01.2018 22:02 4,6 °C 74 % 1005,3 hPa 0,0 mm 0,0 km/h (0 Bft) SW 220 ° 0 min 0,000 mm 0,0 UV-I 0 W/m² 0,4 °C 4,6 °C 0,0 km/h (0 Bft)
31.01.2018 22:03 4,6 °C 74 % 1005,4 hPa 0,0 mm 0,0 km/h (0 Bft) SW 220 ° 0 min 0,000 mm 0,0 UV-I 0 W/m² 0,4 °C 4,6 °C 0,0 km/h (0 Bft)
31.01.2018 22:04 4,6 °C 74 % 1005,4 hPa 0,0 mm 0,0 km/h (0 Bft) SW 220 ° 0 min 0,000 mm 0,0 UV-I 0 W/m² 0,4 °C 4,6 °C 0,0 km/h (0 Bft)
31.01.2018 22:05 4,6 °C 72 % 1005,4 hPa 0,0 mm 2,7 km/h (1 Bft) S-SW 197 ° 0 min 0,000 mm 0,0 UV-I 0 W/m² -0,0 °C 4,6 °C 6,4 km/h (2 Bft)
31.01.2018 22:06 4,6 °C 69 % 1005,4 hPa 0,0 mm 5,0 km/h (1 Bft) S-SW 203 ° 0 min 0,000 mm 0,0 UV-I 0 W/m² -0,6 °C 3,6 °C 8,0 km/h (2 Bft)
31.01.2018 22:07 4,6 °C 69 % 1005,4 hPa 0,0 mm 7,6 km/h (2 Bft) S-SW 193 ° 0 min 0,000 mm 0,0 UV-I 0 W/m² -0,6 °C 2,8 °C 11,3 km/h (2 Bft)
31.01.2018 22:08 4,6 °C 68 % 1005,5 hPa 0,0 mm 4,6 km/h (1 Bft) S-SW 196 ° 0 min 0,000 mm 0,0 UV-I 0 W/m² -0,8 °C 3,8 °C 8,0 km/h (2 Bft)
31.01.2018 22:09 4,7 °C 68 % 1005,5 hPa 0,0 mm 7,4 km/h (2 Bft) S-SW 200 ° 0 min 0,000 mm 0,0 UV-I 0 W/m² -0,7 °C 2,9 °C 9,7 km/h (2 Bft)
31.01.2018 22:10 4,7 °C 67 % 1005,5 hPa 0,0 mm 8,2 km/h (2 Bft) S-SW 202 ° 0 min 0,000 mm 0,0 UV-I 0 W/m² -0,9 °C 2,7 °C 9,7 km/h (2 Bft)
31.01.2018 22:11 4,8 °C 67 % 1005,5 hPa 0,0 mm 6,4 km/h (2 Bft) S-SW 208 ° 0 min 0,000 mm 0,0 UV-I 0 W/m² -0,8 °C 3,4 °C 9,7 km/h (2 Bft)
31.01.2018 22:12 4,9 °C 67 % 1005,6 hPa 0,0 mm 5,9 km/h (2 Bft) S-SW 204 ° 0 min 0,000 mm 0,0 UV-I 0 W/m² -0,7 °C 3,6 °C 9,7 km/h (2 Bft)
31.01.2018 22:13 4,9 °C 67 % 1005,6 hPa 0,0 mm 6,7 km/h (2 Bft) S 184 ° 0 min 0,000 mm 0,0 UV-I 0 W/m² -0,7 °C 3,4 °C 8,0 km/h (2 Bft)
31.01.2018 22:14 4,9 °C 66 % 1005,6 hPa 0,0 mm 6,4 km/h (2 Bft) S-SW 203 ° 0 min 0,000 mm 0,0 UV-I 0 W/m² -0,9 °C 3,5 °C 11,3 km/h (2 Bft)
31.01.2018 22:15 5,1 °C 65 % 1005,6 hPa 0,0 mm 6,1 km/h (2 Bft) S-SW 212 ° 0 min 0,000 mm 0,0 UV-I 0 W/m² -0,9 °C 3,8 °C 8,0 km/h (2 Bft)
31.01.2018 22:16 5,1 °C 65 % 1005,6 hPa 0,0 mm 4,8 km/h (1 Bft) S-SW 207 ° 0 min 0,000 mm 0,0 UV-I 0 W/m² -0,9 °C 4,3 °C 8,0 km/h (2 Bft)
31.01.2018 22:17 5,2 °C 64 % 1005,6 hPa 0,0 mm 7,3 km/h (2 Bft) S-SW 197 ° 0 min 0,000 mm 0,0 UV-I 0 W/m² -1,0 °C 3,6 °C 11,3 km/h (2 Bft)
31.01.2018 22:18 5,3 °C 64 % 1005,6 hPa 0,0 mm 7,1 km/h (2 Bft) SW 235 ° 0 min 0,000 mm 0,0 UV-I 0 W/m² -0,9 °C 3,7 °C 12,9 km/h (3 Bft)
31.01.2018 22:19 5,4 °C 63 % 1005,6 hPa 0,0 mm 6,1 km/h (2 Bft) SW 217 ° 0 min 0,000 mm 0,0 UV-I 0 W/m² -1,1 °C 4,2 °C 9,7 km/h (2 Bft)
31.01.2018 22:20 5,5 °C 63 % 1005,6 hPa 0,0 mm 6,4 km/h (2 Bft) W-SW 245 ° 0 min 0,000 mm 0,0 UV-I 0 W/m² -1,0 °C 4,2 °C 9,7 km/h (2 Bft)
31.01.2018 22:21 5,6 °C 62 % 1005,6 hPa 0,0 mm 6,7 km/h (2 Bft) SW 225 ° 0 min 0,000 mm 0,0 UV-I 0 W/m² -1,1 °C 4,2 °C 11,3 km/h (2 Bft)
31.01.2018 22:22 5,7 °C 62 % 1005,6 hPa 0,0 mm 7,1 km/h (2 Bft) S-SW 202 ° 0 min 0,000 mm 0,0 UV-I 0 W/m² -1,0 °C 4,2 °C 11,3 km/h (2 Bft)
31.01.2018 22:23 5,8 °C 62 % 1005,6 hPa 0,0 mm 5,6 km/h (1 Bft) W-SW 244 ° 0 min 0,000 mm 0,0 UV-I 0 W/m² -0,9 °C 4,8 °C 9,7 km/h (2 Bft)
31.01.2018 22:24 5,9 °C 62 % 1005,6 hPa 0,0 mm 7,4 km/h (2 Bft) W-SW 248 ° 0 min 0,000 mm 0,0 UV-I 0 W/m² -0,8 °C 4,3 °C 12,9 km/h (3 Bft)
31.01.2018 22:25 5,9 °C 61 % 1005,5 hPa 0,0 mm 4,3 km/h (1 Bft) W-SW 256 ° 0 min 0,000 mm 0,0 UV-I 0 W/m² -1,0 °C 5,9 °C 4,8 km/h (1 Bft)
31.01.2018 22:26 5,9 °C 62 % 1005,5 hPa 0,0 mm 4,9 km/h (1 Bft) W 266 ° 0 min 0,000 mm 0,0 UV-I 0 W/m² -0,8 °C 5,1 °C 11,3 km/h (2 Bft)
31.01.2018 22:27 6,0 °C 62 % 1005,6 hPa 0,0 mm 6,8 km/h (2 Bft) W 272 ° 0 min 0,000 mm 0,0 UV-I 0 W/m² -0,7 °C 4,6 °C 9,7 km/h (2 Bft)
31.01.2018 22:28 6,1 °C 61 % 1005,5 hPa 0,0 mm 8,9 km/h (2 Bft) W-SW 255 ° 0 min 0,000 mm 0,0 UV-I 0 W/m² -0,8 °C 4,2 °C 12,9 km/h (3 Bft)
31.01.2018 22:29 6,1 °C 61 % 1005,6 hPa 0,0 mm 9,9 km/h (2 Bft) W-SW 245 ° 0 min 0,000 mm 0,0 UV-I 0 W/m² -0,8 °C 4,0 °C 16,1 km/h (3 Bft)
31.01.2018 22:30 6,1 °C 62 % 1005,5 hPa 0,0 mm 10,9 km/h (2 Bft) W 266 ° 0 min 0,000 mm 0,0 UV-I 0 W/m² -0,6 °C 3,8 °C 17,7 km/h (3 Bft)
31.01.2018 22:31 6,1 °C 61 % 1005,5 hPa 0,0 mm 14,5 km/h (3 Bft) W 260 ° 0 min 0,000 mm 0,0 UV-I 0 W/m² -0,8 °C 3,2 °C 22,5 km/h (4 Bft)
31.01.2018 22:32 6,1 °C 61 % 1005,5 hPa 0,0 mm 8,6 km/h (2 Bft) W 269 ° 0 min 0,000 mm 0,0 UV-I 0 W/m² -0,8 °C 4,3 °C 16,1 km/h (3 Bft)
31.01.2018 22:33 6,1 °C 61 % 1005,4 hPa 0,0 mm 14,1 km/h (3 Bft) W 276 ° 0 min 0,000 mm 0,0 UV-I 0 W/m² -0,8 °C 3,2 °C 20,9 km/h (4 Bft)
31.01.2018 22:34 6,1 °C 61 % 1005,4 hPa 0,0 mm 13,3 km/h (3 Bft) W-SW 244 ° 0 min 0,000 mm 0,0 UV-I 0 W/m² -0,8 °C 3,4 °C 17,7 km/h (3 Bft)
31.01.2018 22:35 6,1 °C 61 % 1005,4 hPa 0,0 mm 13,9 km/h (3 Bft) W 269 ° 0 min 0,000 mm 0,0 UV-I 0 W/m² -0,8 °C 3,3 °C 19,3 km/h (3 Bft)
31.01.2018 22:36 6,1 °C 61 % 1005,4 hPa 0,0 mm 12,9 km/h (3 Bft) W-NW 303 ° 0 min 0,000 mm 0,0 UV-I 0 W/m² -0,8 °C 3,4 °C 17,7 km/h (3 Bft)
31.01.2018 22:37 6,1 °C 61 % 1005,4 hPa 0,0 mm 14,8 km/h (3 Bft) W 277 ° 0 min 0,000 mm 0,0 UV-I 0 W/m² -0,8 °C 3,1 °C 22,5 km/h (4 Bft)
31.01.2018 22:38 6,2 °C 61 % 1005,3 hPa 0,0 mm 13,2 km/h (3 Bft) W 262 ° 0 min 0,000 mm 0,0 UV-I 0 W/m² -0,7 °C 3,5 °C 19,3 km/h (3 Bft)
31.01.2018 22:39 6,2 °C 61 % 1005,4 hPa 0,0 mm 9,9 km/h (2 Bft) W-NW 284 ° 0 min 0,000 mm 0,0 UV-I 0 W/m² -0,7 °C 4,1 °C 14,5 km/h (3 Bft)
31.01.2018 22:40 6,2 °C 61 % 1005,3 hPa 0,0 mm 10,1 km/h (2 Bft) NW 321 ° 0 min 0,000 mm 0,0 UV-I 0 W/m² -0,7 °C 4,1 °C 17,7 km/h (3 Bft)
31.01.2018 22:41 6,2 °C 61 % 1005,3 hPa 0,0 mm 18,1 km/h (3 Bft) SW 225 ° 0 min 0,000 mm 0,0 UV-I 0 W/m² -0,7 °C 2,8 °C 25,7 km/h (4 Bft)
31.01.2018 22:42 6,1 °C 61 % 1005,2 hPa 0,0 mm 14,6 km/h (3 Bft) W 261 ° 0 min 0,000 mm 0,0 UV-I 0 W/m² -0,8 °C 3,2 °C 20,9 km/h (4 Bft)
31.01.2018 22:43 6,2 °C 61 % 1005,3 hPa 0,0 mm 12,8 km/h (3 Bft) W 263 ° 0 min 0,000 mm 0,0 UV-I 0 W/m² -0,7 °C 3,6 °C 22,5 km/h (4 Bft)
31.01.2018 22:44 6,2 °C 61 % 1005,3 hPa 0,0 mm 16,1 km/h (3 Bft) W-NW 288 ° 0 min 0,000 mm 0,0 UV-I 0 W/m² -0,7 °C 3,1 °C 24,1 km/h (4 Bft)
31.01.2018 22:45 6,2 °C 61 % 1005,2 hPa 0,0 mm 16,5 km/h (3 Bft) W 266 ° 0 min 0,000 mm 0,0 UV-I 0 W/m² -0,7 °C 3,0 °C 29,0 km/h (5 Bft)
31.01.2018 22:46 6,2 °C 61 % 1005,3 hPa 0,0 mm 14,4 km/h (3 Bft) W-SW 242 ° 0 min 0,000 mm 0,0 UV-I 0 W/m² -0,7 °C 3,3 °C 17,7 km/h (3 Bft)
31.01.2018 22:47 6,2 °C 61 % 1005,2 hPa 0,0 mm 12,3 km/h (3 Bft) W 275 ° 0 min 0,000 mm 0,0 UV-I 0 W/m² -0,7 °C 3,7 °C 17,7 km/h (3 Bft)
31.01.2018 22:48 6,3 °C 61 % 1005,2 hPa 0,0 mm 12,0 km/h (2 Bft) W 267 ° 0 min 0,000 mm 0,0 UV-I 0 W/m² -0,7 °C 3,8 °C 24,1 km/h (4 Bft)
31.01.2018 22:49 6,3 °C 61 % 1005,2 hPa 0,0 mm 13,6 km/h (3 Bft) W-SW 241 ° 0 min 0,000 mm 0,0 UV-I 0 W/m² -0,7 °C 3,6 °C 20,9 km/h (4 Bft)
31.01.2018 22:50 6,3 °C 61 % 1005,1 hPa 0,0 mm 11,1 km/h (2 Bft) W 278 ° 0 min 0,000 mm 0,0 UV-I 0 W/m² -0,7 °C 4,0 °C 16,1 km/h (3 Bft)
31.01.2018 22:51 6,3 °C 61 % 1005,2 hPa 0,0 mm 12,3 km/h (3 Bft) W 272 ° 0 min 0,000 mm 0,0 UV-I 0 W/m² -0,7 °C 3,8 °C 24,1 km/h (4 Bft)
31.01.2018 22:52 6,3 °C 61 % 1005,2 hPa 0,0 mm 18,2 km/h (3 Bft) W 281 ° 0 min 0,000 mm 0,0 UV-I 0 W/m² -0,7 °C 2,9 °C 25,7 km/h (4 Bft)
31.01.2018 22:53 6,3 °C 61 % 1005,1 hPa 0,0 mm 8,6 km/h (2 Bft) W-NW 284 ° 0 min 0,000 mm 0,0 UV-I 0 W/m² -0,7 °C 4,5 °C 14,5 km/h (3 Bft)
31.01.2018 22:54 6,3 °C 61 % 1005,2 hPa 0,0 mm 4,7 km/h (1 Bft) W 259 ° 0 min 0,000 mm 0,0 UV-I 0 W/m² -0,7 °C 5,7 °C 9,7 km/h (2 Bft)
31.01.2018 22:55 6,3 °C 62 % 1005,1 hPa 0,0 mm 8,2 km/h (2 Bft) W 260 ° 0 min 0,000 mm 0,0 UV-I 0 W/m² -0,4 °C 4,6 °C 16,1 km/h (3 Bft)
31.01.2018 22:56 6,2 °C 62 % 1005,1 hPa 0,0 mm 12,1 km/h (2 Bft) W 268 ° 0 min 0,000 mm 0,0 UV-I 0 W/m² -0,5 °C 3,7 °C 17,7 km/h (3 Bft)
31.01.2018 22:57 6,3 °C 61 % 1005,2 hPa 0,0 mm 14,6 km/h (3 Bft) SW 223 ° 0 min 0,000 mm 0,0 UV-I 0 W/m² -0,7 °C 3,4 °C 24,1 km/h (4 Bft)
31.01.2018 22:58 6,3 °C 61 % 1005,1 hPa 0,0 mm 10,8 km/h (2 Bft) W 259 ° 0 min 0,000 mm 0,0 UV-I 0 W/m² -0,7 °C 4,1 °C 17,7 km/h (3 Bft)
31.01.2018 22:59 6,2 °C 61 % 1005,1 hPa 0,0 mm 10,1 km/h (2 Bft) W 268 ° 0 min 0,000 mm 0,0 UV-I 0 W/m² -0,7 °C 4,1 °C 17,7 km/h (3 Bft)
31.01.2018 23:00 6,3 °C 61 % 1005,1 hPa 0,0 mm 11,2 km/h (2 Bft) W-NW 284 ° 0 min 0,000 mm 0,0 UV-I 0 W/m² -0,7 °C 4,0 °C 17,7 km/h (3 Bft)
31.01.2018 23:01 6,3 °C 61 % 1005,0 hPa 0,0 mm 11,8 km/h (2 Bft) W 277 ° 0 min 0,050 mm 0,0 UV-I 0 W/m² -0,7 °C 3,9 °C 19,3 km/h (3 Bft)
31.01.2018 23:02 6,3 °C 62 % 1005,1 hPa 0,0 mm 10,7 km/h (2 Bft) W-SW 251 ° 0 min 0,000 mm 0,0 UV-I 0 W/m² -0,4 °C 4,1 °C 19,3 km/h (3 Bft)
31.01.2018 23:03 6,3 °C 62 % 1005,0 hPa 0,0 mm 12,2 km/h (2 Bft) W-SW 242 ° 0 min 0,000 mm 0,0 UV-I 0 W/m² -0,4 °C 3,8 °C 19,3 km/h (3 Bft)
31.01.2018 23:04 6,3 °C 62 % 1005,0 hPa 0,0 mm 10,2 km/h (2 Bft) W-SW 248 ° 0 min 0,000 mm 0,0 UV-I 0 W/m² -0,4 °C 4,2 °C 16,1 km/h (3 Bft)
31.01.2018 23:05 6,2 °C 62 % 1005,1 hPa 0,0 mm 8,0 km/h (2 Bft) W-SW 243 ° 0 min 0,000 mm 0,0 UV-I 0 W/m² -0,5 °C 4,5 °C 16,1 km/h (3 Bft)
31.01.2018 23:06 6,3 °C 61 % 1005,0 hPa 0,0 mm 6,6 km/h (2 Bft) W-SW 250 ° 0 min 0,000 mm 0,0 UV-I 0 W/m² -0,7 °C 5,0 °C 12,9 km/h (3 Bft)
31.01.2018 23:07 6,3 °C 62 % 1005,0 hPa 0,0 mm 11,1 km/h (2 Bft) SW 223 ° 0 min 0,000 mm 0,0 UV-I 0 W/m² -0,4 °C 4,0 °C 16,1 km/h (3 Bft)
31.01.2018 23:08 6,2 °C 62 % 1005,0 hPa 0,0 mm 8,4 km/h (2 Bft) W 268 ° 0 min 0,000 mm 0,0 UV-I 0 W/m² -0,5 °C 4,4 °C 17,7 km/h (3 Bft)
31.01.2018 23:09 6,2 °C 62 % 1005,0 hPa 0,0 mm 13,9 km/h (3 Bft) W-SW 244 ° 0 min 0,000 mm 0,0 UV-I 0 W/m² -0,5 °C 3,4 °C 20,9 km/h (4 Bft)
31.01.2018 23:10 6,2 °C 62 % 1005,0 hPa 0,0 mm 15,5 km/h (3 Bft) W 271 ° 0 min 0,000 mm 0,0 UV-I 0 W/m² -0,5 °C 3,2 °C 24,1 km/h (4 Bft)
31.01.2018 23:11 6,2 °C 62 % 1005,0 hPa 0,0 mm 19,5 km/h (3 Bft) W-SW 237 ° 0 min 0,000 mm 0,0 UV-I 0 W/m² -0,5 °C 2,6 °C 27,4 km/h (4 Bft)
31.01.2018 23:12 6,2 °C 62 % 1005,0 hPa 0,0 mm 10,3 km/h (2 Bft) SW 228 ° 0 min 0,000 mm 0,0 UV-I 0 W/m² -0,5 °C 4,0 °C 14,5 km/h (3 Bft)
31.01.2018 23:13 6,3 °C 62 % 1004,9 hPa 0,0 mm 5,4 km/h (1 Bft) SW 221 ° 0 min 0,000 mm 0,0 UV-I 0 W/m² -0,4 °C 5,4 °C 6,4 km/h (2 Bft)
31.01.2018 23:14 6,2 °C 62 % 1005,0 hPa 0,0 mm 6,4 km/h (2 Bft) W 261 ° 0 min 0,000 mm 0,0 UV-I 0 W/m² -0,5 °C 5,0 °C 11,3 km/h (2 Bft)
31.01.2018 23:15 6,3 °C 62 % 1005,1 hPa 0,0 mm 16,3 km/h (3 Bft) W 275 ° 0 min 0,000 mm 0,0 UV-I 0 W/m² -0,4 °C 3,2 °C 22,5 km/h (4 Bft)
31.01.2018 23:16 6,2 °C 62 % 1004,9 hPa 0,0 mm 10,0 km/h (2 Bft) SW 233 ° 0 min 0,000 mm 0,0 UV-I 0 W/m² -0,5 °C 4,1 °C 16,1 km/h (3 Bft)
31.01.2018 23:17 6,3 °C 62 % 1004,9 hPa 0,0 mm 10,9 km/h (2 Bft) W 262 ° 0 min 0,000 mm 0,0 UV-I 0 W/m² -0,4 °C 4,0 °C 16,1 km/h (3 Bft)
31.01.2018 23:18 6,2 °C 62 % 1004,9 hPa 0,0 mm 9,1 km/h (2 Bft) W-SW 256 ° 0 min 0,000 mm 0,0 UV-I 0 W/m² -0,5 °C 4,3 °C 20,9 km/h (4 Bft)
31.01.2018 23:19 6,3 °C 62 % 1004,9 hPa 0,0 mm 11,2 km/h (2 Bft) W 263 ° 0 min 0,000 mm 0,0 UV-I 0 W/m² -0,4 °C 4,0 °C 16,1 km/h (3 Bft)
31.01.2018 23:20 6,3 °C 63 % 1004,9 hPa 0,0 mm 12,7 km/h (3 Bft) W-SW 240 ° 0 min 0,000 mm 0,0 UV-I 0 W/m² -0,2 °C 3,7 °C 20,9 km/h (4 Bft)
31.01.2018 23:21 6,2 °C 63 % 1004,9 hPa 0,0 mm 14,9 km/h (3 Bft) W 267 ° 0 min 0,000 mm 0,0 UV-I 0 W/m² -0,3 °C 3,2 °C 20,9 km/h (4 Bft)
31.01.2018 23:22 6,2 °C 62 % 1004,9 hPa 0,0 mm 8,9 km/h (2 Bft) W-SW 246 ° 0 min 0,000 mm 0,0 UV-I 0 W/m² -0,5 °C 4,3 °C 17,7 km/h (3 Bft)
31.01.2018 23:23 6,2 °C 63 % 1004,8 hPa 0,0 mm 9,4 km/h (2 Bft) S-SW 211 ° 0 min 0,000 mm 0,0 UV-I 0 W/m² -0,3 °C 4,2 °C 14,5 km/h (3 Bft)
31.01.2018 23:24 6,2 °C 63 % 1004,7 hPa 0,0 mm 11,2 km/h (2 Bft) W 267 ° 0 min 0,000 mm 0,0 UV-I 0 W/m² -0,3 °C 3,9 °C 16,1 km/h (3 Bft)
31.01.2018 23:25 6,2 °C 63 % 1004,8 hPa 0,0 mm 10,5 km/h (2 Bft) W-NW 284 ° 0 min 0,000 mm 0,0 UV-I 0 W/m² -0,3 °C 4,0 °C 20,9 km/h (4 Bft)
31.01.2018 23:26 6,2 °C 63 % 1004,8 hPa 0,0 mm 16,2 km/h (3 Bft) W 267 ° 0 min 0,000 mm 0,0 UV-I 0 W/m² -0,3 °C 3,1 °C 25,7 km/h (4 Bft)
31.01.2018 23:27 6,2 °C 63 % 1004,9 hPa 0,0 mm 12,8 km/h (3 Bft) W 272 ° 0 min 0,000 mm 0,0 UV-I 0 W/m² -0,3 °C 3,6 °C 19,3 km/h (3 Bft)
31.01.2018 23:28 6,1 °C 63 % 1004,7 hPa 0,0 mm 12,4 km/h (3 Bft) W-SW 248 ° 0 min 0,000 mm 0,0 UV-I 0 W/m² -0,4 °C 3,5 °C 14,5 km/h (3 Bft)
31.01.2018 23:29 6,2 °C 63 % 1004,8 hPa 0,0 mm 11,4 km/h (2 Bft) W-SW 243 ° 0 min 0,000 mm 0,0 UV-I 0 W/m² -0,3 °C 3,8 °C 16,1 km/h (3 Bft)
31.01.2018 23:30 6,2 °C 63 % 1004,8 hPa 0,0 mm 6,2 km/h (2 Bft) W 263 ° 0 min 0,000 mm 0,0 UV-I 0 W/m² -0,3 °C 5,0 °C 11,3 km/h (2 Bft)
31.01.2018 23:31 6,2 °C 63 % 1004,7 hPa 0,0 mm 15,0 km/h (3 Bft) W-NW 284 ° 0 min 0,000 mm 0,0 UV-I 0 W/m² -0,3 °C 3,2 °C 20,9 km/h (4 Bft)
31.01.2018 23:32 6,1 °C 64 % 1004,7 hPa 0,0 mm 16,2 km/h (3 Bft) W 270 ° 0 min 0,000 mm 0,0 UV-I 0 W/m² -0,2 °C 2,9 °C 20,9 km/h (4 Bft)
31.01.2018 23:33 6,1 °C 64 % 1004,7 hPa 0,0 mm 18,0 km/h (3 Bft) W-NW 283 ° 0 min 0,000 mm 0,0 UV-I 0 W/m² -0,2 °C 2,7 °C 24,1 km/h (4 Bft)
31.01.2018 23:34 6,1 °C 64 % 1004,7 hPa 0,0 mm 17,2 km/h (3 Bft) W-SW 258 ° 0 min 0,000 mm 0,0 UV-I 0 W/m² -0,2 °C 2,8 °C 25,7 km/h (4 Bft)
31.01.2018 23:35 6,1 °C 64 % 1004,7 hPa 0,0 mm 10,7 km/h (2 Bft) W-SW 237 ° 0 min 0,000 mm 0,0 UV-I 0 W/m² -0,2 °C 3,8 °C 17,7 km/h (3 Bft)
31.01.2018 23:36 6,1 °C 64 % 1004,7 hPa 0,0 mm 17,8 km/h (3 Bft) W 261 ° 0 min 0,000 mm 0,0 UV-I 0 W/m² -0,2 °C 2,7 °C 22,5 km/h (4 Bft)
31.01.2018 23:37 6,1 °C 64 % 1004,7 hPa 0,0 mm 17,0 km/h (3 Bft) W-SW 251 ° 0 min 0,000 mm 0,0 UV-I 0 W/m² -0,2 °C 2,8 °C 24,1 km/h (4 Bft)
31.01.2018 23:38 6,1 °C 64 % 1004,7 hPa 0,0 mm 12,3 km/h (3 Bft) W-NW 282 ° 0 min 0,000 mm 0,0 UV-I 0 W/m² -0,2 °C 3,5 °C 17,7 km/h (3 Bft)
31.01.2018 23:39 6,1 °C 64 % 1004,7 hPa 0,0 mm 17,3 km/h (3 Bft) W-SW 258 ° 0 min 0,000 mm 0,0 UV-I 0 W/m² -0,2 °C 2,8 °C 24,1 km/h (4 Bft)
31.01.2018 23:40 6,1 °C 64 % 1004,6 hPa 0,0 mm 16,9 km/h (3 Bft) W 263 ° 0 min 0,000 mm 0,0 UV-I 0 W/m² -0,2 °C 2,8 °C 22,5 km/h (4 Bft)
31.01.2018 23:41 6,1 °C 64 % 1004,6 hPa 0,0 mm 12,7 km/h (3 Bft) W-SW 244 ° 0 min 0,000 mm 0,0 UV-I 0 W/m² -0,2 °C 3,5 °C 20,9 km/h (4 Bft)
31.01.2018 23:42 6,1 °C 64 % 1004,7 hPa 0,0 mm 21,1 km/h (4 Bft) W 274 ° 0 min 0,000 mm 0,0 UV-I 0 W/m² -0,2 °C 2,3 °C 29,0 km/h (5 Bft)
31.01.2018 23:43 6,1 °C 64 % 1004,6 hPa 0,0 mm 18,0 km/h (3 Bft) W-SW 255 ° 0 min 0,000 mm 0,0 UV-I 0 W/m² -0,2 °C 2,7 °C 24,1 km/h (4 Bft)
31.01.2018 23:44 6,1 °C 64 % 1004,5 hPa 0,0 mm 12,9 km/h (3 Bft) W 262 ° 0 min 0,000 mm 0,0 UV-I 0 W/m² -0,2 °C 3,4 °C 16,1 km/h (3 Bft)
31.01.2018 23:45 6,1 °C 64 % 1004,6 hPa 0,0 mm 14,1 km/h (3 Bft) W-NW 298 ° 0 min 0,000 mm 0,0 UV-I 0 W/m² -0,2 °C 3,2 °C 20,9 km/h (4 Bft)
31.01.2018 23:46 6,0 °C 65 % 1004,6 hPa 0,0 mm 14,1 km/h (3 Bft) W-NW 291 ° 0 min 0,000 mm 0,0 UV-I 0 W/m² -0,1 °C 3,1 °C 20,9 km/h (4 Bft)
31.01.2018 23:47 6,1 °C 65 % 1004,6 hPa 0,0 mm 16,0 km/h (3 Bft) W-SW 246 ° 0 min 0,000 mm 0,0 UV-I 0 W/m² 0,0 °C 3,0 °C 24,1 km/h (4 Bft)
31.01.2018 23:48 6,0 °C 65 % 1004,6 hPa 0,0 mm 16,6 km/h (3 Bft) W 267 ° 0 min 0,000 mm 0,0 UV-I 0 W/m² -0,1 °C 2,8 °C 25,7 km/h (4 Bft)
31.01.2018 23:49 6,1 °C 65 % 1004,7 hPa 0,0 mm 19,8 km/h (3 Bft) W-NW 300 ° 0 min 0,000 mm 0,0 UV-I 0 W/m² 0,0 °C 2,5 °C 29,0 km/h (5 Bft)
31.01.2018 23:50 6,1 °C 65 % 1004,6 hPa 0,0 mm 15,0 km/h (3 Bft) W-NW 293 ° 0 min 0,000 mm 0,0 UV-I 0 W/m² 0,0 °C 3,1 °C 19,3 km/h (3 Bft)
31.01.2018 23:51 6,1 °C 65 % 1004,6 hPa 0,0 mm 19,1 km/h (3 Bft) SW 224 ° 0 min 0,000 mm 0,0 UV-I 0 W/m² 0,0 °C 2,6 °C 25,7 km/h (4 Bft)
31.01.2018 23:52 6,1 °C 65 % 1004,6 hPa 0,0 mm 15,8 km/h (3 Bft) W-SW 257 ° 0 min 0,000 mm 0,0 UV-I 0 W/m² 0,0 °C 3,0 °C 24,1 km/h (4 Bft)
31.01.2018 23:53 6,1 °C 65 % 1004,6 hPa 0,0 mm 17,2 km/h (3 Bft) W 276 ° 0 min 0,000 mm 0,0 UV-I 0 W/m² 0,0 °C 2,8 °C 24,1 km/h (4 Bft)
31.01.2018 23:54 6,1 °C 65 % 1004,6 hPa 0,0 mm 12,1 km/h (2 Bft) W 275 ° 0 min 0,000 mm 0,0 UV-I 0 W/m² 0,0 °C 3,6 °C 17,7 km/h (3 Bft)
31.01.2018 23:55 6,1 °C 64 % 1004,6 hPa 0,0 mm 11,4 km/h (2 Bft) W-SW 251 ° 0 min 0,000 mm 0,0 UV-I 0 W/m² -0,2 °C 3,7 °C 17,7 km/h (3 Bft)
31.01.2018 23:56 6,1 °C 65 % 1004,6 hPa 0,0 mm 15,2 km/h (3 Bft) W-SW 251 ° 0 min 0,000 mm 0,0 UV-I 0 W/m² 0,0 °C 3,1 °C 20,9 km/h (4 Bft)
31.01.2018 23:57 6,1 °C 65 % 1004,6 hPa 0,0 mm 16,8 km/h (3 Bft) W 275 ° 0 min 0,000 mm 0,0 UV-I 0 W/m² 0,0 °C 2,9 °C 24,1 km/h (4 Bft)
31.01.2018 23:58 6,1 °C 65 % 1004,6 hPa 0,0 mm 13,3 km/h (3 Bft) W-NW 285 ° 0 min 0,000 mm 0,0 UV-I 0 W/m² 0,0 °C 3,4 °C 17,7 km/h (3 Bft)
31.01.2018 23:59 6,1 °C 65 % 1004,6 hPa 0,0 mm 11,5 km/h (2 Bft) W-NW 286 ° 0 min 0,000 mm 0,0 UV-I 0 W/m² 0,0 °C 3,7 °C 16,1 km/h (3 Bft)
_ Min-Zeit 04:14 15:22 23:44 - 22:04 - - - - - - 08:49 08:58 22:04
Minimum _ 0,6 °C 53 % 1004,5 hPa - 0,0 km/h (0 Bft) - - - - - - -1,2 °C -1,4 °C 0,0 km/h (0 Bft)
_ Max-Zeit 15:15 07:37 00:05 23:59 23:42 - - 23:59 16:01 13:53 14:13 14:38 15:23 23:49
Maximum _ 9,5 °C 90 % 1025,0 hPa 0,0 mm 21,1 km/h
W (4 Bft)
- - 0 min 0,076 mm 1,6 UV-I 250 W/m² 2,2 °C 9,4 °C 29,0 km/h
W-SW (5 Bft)
Durchschnitt _ 4,5 °C 74 % 1015,2 hPa #0,0 mm 2,4 km/h (1 Bft) S-SW - #0 min. #0,533 mm 0,9 UV-I 27 W/m² 0,1 °C 4,3 °C 4,1 km/h (1 Bft)